<?xml version="1.0" encoding="UTF-8" standalone="no" ?>
<gpx xmlns="http://www.topografix.com/GPX/1/1" xmlns:xsi="http://www.w3.org/2001/XMLSchema-instance" xsi:schemaLocation="http://www.topografix.com/GPX/1/1 http://www.topografix.com/GPX/1/1/gpx.xsd" version="1.1" creator="VisuGPX - https://www.visugpx.com">
  <metadata>
    <name>Aiguille des Calvaires</name>
    <desc><![CDATA[                                                                  ]]></desc>
  </metadata>
  <trk>
    <name><![CDATA[20190204124231-pFsPL]]></name>
    <trkseg>
      <trkpt lat="45.90281" lon="6.42636">
        <ele>1105.17</ele>
        <time>2018-12-13T12:56:40Z</time>
      </trkpt>
      <trkpt lat="45.90281" lon="6.42636">
        <ele>1263.31</ele>
        <time>2018-12-13T12:56:41Z</time>
      </trkpt>
      <trkpt lat="45.9028" lon="6.42635">
        <ele>1263.31</ele>
        <time>2018-12-13T12:56:42Z</time>
      </trkpt>
      <trkpt lat="45.90278" lon="6.42635">
        <ele>1105.65</ele>
        <time>2018-12-13T12:56:45Z</time>
      </trkpt>
      <trkpt lat="45.90277" lon="6.42635">
        <ele>1105.65</ele>
        <time>2018-12-13T12:56:46Z</time>
      </trkpt>
      <trkpt lat="45.90272" lon="6.42641">
        <ele>1108.54</ele>
        <time>2018-12-13T12:56:59Z</time>
      </trkpt>
      <trkpt lat="45.90268" lon="6.42652">
        <ele>1111.9</ele>
        <time>2018-12-13T12:57:13Z</time>
      </trkpt>
      <trkpt lat="45.90267" lon="6.42655">
        <ele>1112.38</ele>
        <time>2018-12-13T12:57:15Z</time>
      </trkpt>
      <trkpt lat="45.90265" lon="6.42669">
        <ele>1115.27</ele>
        <time>2018-12-13T12:57:25Z</time>
      </trkpt>
      <trkpt lat="45.90266" lon="6.42685">
        <ele>1118.63</ele>
        <time>2018-12-13T12:57:37Z</time>
      </trkpt>
      <trkpt lat="45.90267" lon="6.42686">
        <ele>1118.63</ele>
        <time>2018-12-13T12:57:38Z</time>
      </trkpt>
      <trkpt lat="45.90267" lon="6.42688">
        <ele>1118.63</ele>
        <time>2018-12-13T12:57:39Z</time>
      </trkpt>
      <trkpt lat="45.9027" lon="6.42702">
        <ele>1122</ele>
        <time>2018-12-13T12:57:52Z</time>
      </trkpt>
      <trkpt lat="45.90273" lon="6.42705">
        <ele>1122.48</ele>
        <time>2018-12-13T12:57:55Z</time>
      </trkpt>
      <trkpt lat="45.90273" lon="6.42707">
        <ele>1122.96</ele>
        <time>2018-12-13T12:57:56Z</time>
      </trkpt>
      <trkpt lat="45.90274" lon="6.42708">
        <ele>1122.96</ele>
        <time>2018-12-13T12:57:57Z</time>
      </trkpt>
      <trkpt lat="45.90281" lon="6.42723">
        <ele>1125.36</ele>
        <time>2018-12-13T12:58:12Z</time>
      </trkpt>
      <trkpt lat="45.90281" lon="6.42725">
        <ele>1125.36</ele>
        <time>2018-12-13T12:58:13Z</time>
      </trkpt>
      <trkpt lat="45.90281" lon="6.42726">
        <ele>1125.36</ele>
        <time>2018-12-13T12:58:14Z</time>
      </trkpt>
      <trkpt lat="45.90282" lon="6.42727">
        <ele>1125.84</ele>
        <time>2018-12-13T12:58:15Z</time>
      </trkpt>
      <trkpt lat="45.90283" lon="6.42735">
        <ele>1126.8</ele>
        <time>2018-12-13T12:58:21Z</time>
      </trkpt>
      <trkpt lat="45.90283" lon="6.4276">
        <ele>1129.69</ele>
        <time>2018-12-13T12:58:38Z</time>
      </trkpt>
      <trkpt lat="45.90285" lon="6.42783">
        <ele>1132.57</ele>
        <time>2018-12-13T12:58:55Z</time>
      </trkpt>
      <trkpt lat="45.90282" lon="6.42802">
        <ele>1135.94</ele>
        <time>2018-12-13T12:59:10Z</time>
      </trkpt>
      <trkpt lat="45.90281" lon="6.42814">
        <ele>1138.82</ele>
        <time>2018-12-13T12:59:21Z</time>
      </trkpt>
      <trkpt lat="45.9028" lon="6.42815">
        <ele>1138.82</ele>
        <time>2018-12-13T12:59:22Z</time>
      </trkpt>
      <trkpt lat="45.90277" lon="6.42833">
        <ele>1142.18</ele>
        <time>2018-12-13T12:59:37Z</time>
      </trkpt>
      <trkpt lat="45.90274" lon="6.42849">
        <ele>1144.59</ele>
        <time>2018-12-13T12:59:50Z</time>
      </trkpt>
      <trkpt lat="45.90274" lon="6.4285">
        <ele>1145.07</ele>
        <time>2018-12-13T12:59:51Z</time>
      </trkpt>
      <trkpt lat="45.90274" lon="6.42851">
        <ele>1145.55</ele>
        <time>2018-12-13T12:59:52Z</time>
      </trkpt>
      <trkpt lat="45.9027" lon="6.42862">
        <ele>1146.99</ele>
        <time>2018-12-13T13:00:01Z</time>
      </trkpt>
      <trkpt lat="45.9027" lon="6.42863">
        <ele>1147.47</ele>
        <time>2018-12-13T13:00:02Z</time>
      </trkpt>
      <trkpt lat="45.90267" lon="6.42869">
        <ele>1148.43</ele>
        <time>2018-12-13T13:00:07Z</time>
      </trkpt>
      <trkpt lat="45.90267" lon="6.4287">
        <ele>1148.91</ele>
        <time>2018-12-13T13:00:08Z</time>
      </trkpt>
      <trkpt lat="45.90266" lon="6.42871">
        <ele>1148.91</ele>
        <time>2018-12-13T13:00:09Z</time>
      </trkpt>
      <trkpt lat="45.90266" lon="6.42873">
        <ele>1149.39</ele>
        <time>2018-12-13T13:00:10Z</time>
      </trkpt>
      <trkpt lat="45.90264" lon="6.42877">
        <ele>1150.35</ele>
        <time>2018-12-13T13:00:14Z</time>
      </trkpt>
      <trkpt lat="45.90264" lon="6.42879">
        <ele>1150.35</ele>
        <time>2018-12-13T13:00:15Z</time>
      </trkpt>
      <trkpt lat="45.90258" lon="6.42893">
        <ele>1153.24</ele>
        <time>2018-12-13T13:00:30Z</time>
      </trkpt>
      <trkpt lat="45.90251" lon="6.42907">
        <ele>1156.6</ele>
        <time>2018-12-13T13:00:44Z</time>
      </trkpt>
      <trkpt lat="45.90247" lon="6.42917">
        <ele>1159.97</ele>
        <time>2018-12-13T13:00:56Z</time>
      </trkpt>
      <trkpt lat="45.9024" lon="6.42932">
        <ele>1162.85</ele>
        <time>2018-12-13T13:01:10Z</time>
      </trkpt>
      <trkpt lat="45.90236" lon="6.42939">
        <ele>1164.29</ele>
        <time>2018-12-13T13:01:16Z</time>
      </trkpt>
      <trkpt lat="45.90236" lon="6.4294">
        <ele>1164.29</ele>
        <time>2018-12-13T13:01:17Z</time>
      </trkpt>
      <trkpt lat="45.90231" lon="6.42953">
        <ele>1167.66</ele>
        <time>2018-12-13T13:01:31Z</time>
      </trkpt>
      <trkpt lat="45.90224" lon="6.42967">
        <ele>1170.54</ele>
        <time>2018-12-13T13:01:46Z</time>
      </trkpt>
      <trkpt lat="45.90215" lon="6.42985">
        <ele>1173.91</ele>
        <time>2018-12-13T13:02:02Z</time>
      </trkpt>
      <trkpt lat="45.90208" lon="6.42999">
        <ele>1176.79</ele>
        <time>2018-12-13T13:02:17Z</time>
      </trkpt>
      <trkpt lat="45.90208" lon="6.43">
        <ele>1176.79</ele>
        <time>2018-12-13T13:02:18Z</time>
      </trkpt>
      <trkpt lat="45.90207" lon="6.43004">
        <ele>1177.75</ele>
        <time>2018-12-13T13:02:22Z</time>
      </trkpt>
      <trkpt lat="45.90206" lon="6.43006">
        <ele>1178.23</ele>
        <time>2018-12-13T13:02:24Z</time>
      </trkpt>
      <trkpt lat="45.90205" lon="6.43007">
        <ele>1178.23</ele>
        <time>2018-12-13T13:02:25Z</time>
      </trkpt>
      <trkpt lat="45.90203" lon="6.43011">
        <ele>1179.19</ele>
        <time>2018-12-13T13:02:29Z</time>
      </trkpt>
      <trkpt lat="45.90203" lon="6.43012">
        <ele>1179.67</ele>
        <time>2018-12-13T13:02:30Z</time>
      </trkpt>
      <trkpt lat="45.90198" lon="6.43021">
        <ele>1181.6</ele>
        <time>2018-12-13T13:02:39Z</time>
      </trkpt>
      <trkpt lat="45.90198" lon="6.43023">
        <ele>1182.08</ele>
        <time>2018-12-13T13:02:41Z</time>
      </trkpt>
      <trkpt lat="45.90197" lon="6.43024">
        <ele>1182.56</ele>
        <time>2018-12-13T13:02:42Z</time>
      </trkpt>
      <trkpt lat="45.90196" lon="6.43028">
        <ele>1183.52</ele>
        <time>2018-12-13T13:02:46Z</time>
      </trkpt>
      <trkpt lat="45.90194" lon="6.4303">
        <ele>1183.52</ele>
        <time>2018-12-13T13:02:48Z</time>
      </trkpt>
      <trkpt lat="45.90189" lon="6.43042">
        <ele>1186.88</ele>
        <time>2018-12-13T13:03:00Z</time>
      </trkpt>
      <trkpt lat="45.90183" lon="6.43052">
        <ele>1189.77</ele>
        <time>2018-12-13T13:03:12Z</time>
      </trkpt>
      <trkpt lat="45.90178" lon="6.43063">
        <ele>1192.65</ele>
        <time>2018-12-13T13:03:25Z</time>
      </trkpt>
      <trkpt lat="45.90177" lon="6.43067">
        <ele>1194.09</ele>
        <time>2018-12-13T13:03:30Z</time>
      </trkpt>
      <trkpt lat="45.90176" lon="6.43069">
        <ele>1194.58</ele>
        <time>2018-12-13T13:03:32Z</time>
      </trkpt>
      <trkpt lat="45.90173" lon="6.43078">
        <ele>1197.46</ele>
        <time>2018-12-13T13:03:43Z</time>
      </trkpt>
      <trkpt lat="45.9017" lon="6.43085">
        <ele>1199.86</ele>
        <time>2018-12-13T13:03:51Z</time>
      </trkpt>
      <trkpt lat="45.9017" lon="6.43086">
        <ele>1199.86</ele>
        <time>2018-12-13T13:03:52Z</time>
      </trkpt>
      <trkpt lat="45.90167" lon="6.43094">
        <ele>1203.23</ele>
        <time>2018-12-13T13:04:04Z</time>
      </trkpt>
      <trkpt lat="45.90166" lon="6.43098">
        <ele>1204.19</ele>
        <time>2018-12-13T13:04:08Z</time>
      </trkpt>
      <trkpt lat="45.90162" lon="6.43107">
        <ele>1207.55</ele>
        <time>2018-12-13T13:04:20Z</time>
      </trkpt>
      <trkpt lat="45.90157" lon="6.43117">
        <ele>1210.44</ele>
        <time>2018-12-13T13:04:33Z</time>
      </trkpt>
      <trkpt lat="45.90154" lon="6.4312">
        <ele>1210.92</ele>
        <time>2018-12-13T13:04:37Z</time>
      </trkpt>
      <trkpt lat="45.90153" lon="6.43121">
        <ele>1210.44</ele>
        <time>2018-12-13T13:04:38Z</time>
      </trkpt>
      <trkpt lat="45.90152" lon="6.43122">
        <ele>1210.92</ele>
        <time>2018-12-13T13:04:39Z</time>
      </trkpt>
      <trkpt lat="45.90151" lon="6.43124">
        <ele>1210.92</ele>
        <time>2018-12-13T13:04:40Z</time>
      </trkpt>
      <trkpt lat="45.9015" lon="6.43128">
        <ele>1211.4</ele>
        <time>2018-12-13T13:04:44Z</time>
      </trkpt>
      <trkpt lat="45.90149" lon="6.43131">
        <ele>1211.88</ele>
        <time>2018-12-13T13:04:47Z</time>
      </trkpt>
      <trkpt lat="45.90143" lon="6.43143">
        <ele>1215.24</ele>
        <time>2018-12-13T13:05:01Z</time>
      </trkpt>
      <trkpt lat="45.90138" lon="6.43155">
        <ele>1218.13</ele>
        <time>2018-12-13T13:05:14Z</time>
      </trkpt>
      <trkpt lat="45.90134" lon="6.43162">
        <ele>1219.57</ele>
        <time>2018-12-13T13:05:21Z</time>
      </trkpt>
      <trkpt lat="45.90134" lon="6.43163">
        <ele>1220.05</ele>
        <time>2018-12-13T13:05:22Z</time>
      </trkpt>
      <trkpt lat="45.90128" lon="6.43176">
        <ele>1222.93</ele>
        <time>2018-12-13T13:05:35Z</time>
      </trkpt>
      <trkpt lat="45.90123" lon="6.43188">
        <ele>1226.3</ele>
        <time>2018-12-13T13:05:49Z</time>
      </trkpt>
      <trkpt lat="45.9012" lon="6.432">
        <ele>1229.18</ele>
        <time>2018-12-13T13:06:02Z</time>
      </trkpt>
      <trkpt lat="45.90114" lon="6.43213">
        <ele>1232.55</ele>
        <time>2018-12-13T13:06:15Z</time>
      </trkpt>
      <trkpt lat="45.90112" lon="6.43225">
        <ele>1235.43</ele>
        <time>2018-12-13T13:06:28Z</time>
      </trkpt>
      <trkpt lat="45.90108" lon="6.43236">
        <ele>1238.32</ele>
        <time>2018-12-13T13:06:41Z</time>
      </trkpt>
      <trkpt lat="45.90103" lon="6.43247">
        <ele>1241.2</ele>
        <time>2018-12-13T13:06:53Z</time>
      </trkpt>
      <trkpt lat="45.901" lon="6.43258">
        <ele>1244.56</ele>
        <time>2018-12-13T13:07:06Z</time>
      </trkpt>
      <trkpt lat="45.90099" lon="6.4326">
        <ele>1245.04</ele>
        <time>2018-12-13T13:07:08Z</time>
      </trkpt>
      <trkpt lat="45.90097" lon="6.4326">
        <ele>1245.04</ele>
        <time>2018-12-13T13:07:09Z</time>
      </trkpt>
      <trkpt lat="45.90097" lon="6.43261">
        <ele>1245.53</ele>
        <time>2018-12-13T13:07:10Z</time>
      </trkpt>
      <trkpt lat="45.90097" lon="6.43262">
        <ele>1246.01</ele>
        <time>2018-12-13T13:07:11Z</time>
      </trkpt>
      <trkpt lat="45.90096" lon="6.43266">
        <ele>1246.97</ele>
        <time>2018-12-13T13:07:15Z</time>
      </trkpt>
      <trkpt lat="45.90096" lon="6.43268">
        <ele>1246.97</ele>
        <time>2018-12-13T13:07:17Z</time>
      </trkpt>
      <trkpt lat="45.90095" lon="6.4327">
        <ele>1247.45</ele>
        <time>2018-12-13T13:07:18Z</time>
      </trkpt>
      <trkpt lat="45.90091" lon="6.43283">
        <ele>1250.81</ele>
        <time>2018-12-13T13:07:33Z</time>
      </trkpt>
      <trkpt lat="45.90089" lon="6.43293">
        <ele>1253.22</ele>
        <time>2018-12-13T13:07:44Z</time>
      </trkpt>
      <trkpt lat="45.90087" lon="6.43297">
        <ele>1254.18</ele>
        <time>2018-12-13T13:07:48Z</time>
      </trkpt>
      <trkpt lat="45.90084" lon="6.43307">
        <ele>1257.06</ele>
        <time>2018-12-13T13:08:00Z</time>
      </trkpt>
      <trkpt lat="45.90083" lon="6.43311">
        <ele>1258.02</ele>
        <time>2018-12-13T13:08:04Z</time>
      </trkpt>
      <trkpt lat="45.90083" lon="6.43312">
        <ele>1258.5</ele>
        <time>2018-12-13T13:08:05Z</time>
      </trkpt>
      <trkpt lat="45.90078" lon="6.43324">
        <ele>1261.87</ele>
        <time>2018-12-13T13:08:19Z</time>
      </trkpt>
      <trkpt lat="45.90077" lon="6.43325">
        <ele>1261.87</ele>
        <time>2018-12-13T13:08:20Z</time>
      </trkpt>
      <trkpt lat="45.90076" lon="6.43326">
        <ele>1262.35</ele>
        <time>2018-12-13T13:08:21Z</time>
      </trkpt>
      <trkpt lat="45.9007" lon="6.43338">
        <ele>1265.23</ele>
        <time>2018-12-13T13:08:34Z</time>
      </trkpt>
      <trkpt lat="45.9006" lon="6.43343">
        <ele>1268.6</ele>
        <time>2018-12-13T13:08:47Z</time>
      </trkpt>
      <trkpt lat="45.90057" lon="6.4335">
        <ele>1271.48</ele>
        <time>2018-12-13T13:09:00Z</time>
      </trkpt>
      <trkpt lat="45.90055" lon="6.43353">
        <ele>1272.44</ele>
        <time>2018-12-13T13:09:04Z</time>
      </trkpt>
      <trkpt lat="45.90049" lon="6.43361">
        <ele>1275.81</ele>
        <time>2018-12-13T13:09:18Z</time>
      </trkpt>
      <trkpt lat="45.90044" lon="6.43368">
        <ele>1278.69</ele>
        <time>2018-12-13T13:09:30Z</time>
      </trkpt>
      <trkpt lat="45.90037" lon="6.43377">
        <ele>1281.57</ele>
        <time>2018-12-13T13:09:44Z</time>
      </trkpt>
      <trkpt lat="45.90035" lon="6.43381">
        <ele>1283.5</ele>
        <time>2018-12-13T13:09:50Z</time>
      </trkpt>
      <trkpt lat="45.90034" lon="6.43383">
        <ele>1283.98</ele>
        <time>2018-12-13T13:09:52Z</time>
      </trkpt>
      <trkpt lat="45.90028" lon="6.43394">
        <ele>1286.86</ele>
        <time>2018-12-13T13:10:06Z</time>
      </trkpt>
      <trkpt lat="45.90023" lon="6.43405">
        <ele>1290.23</ele>
        <time>2018-12-13T13:10:19Z</time>
      </trkpt>
      <trkpt lat="45.90018" lon="6.43416">
        <ele>1293.11</ele>
        <time>2018-12-13T13:10:32Z</time>
      </trkpt>
      <trkpt lat="45.90017" lon="6.43418">
        <ele>1293.59</ele>
        <time>2018-12-13T13:10:34Z</time>
      </trkpt>
      <trkpt lat="45.90014" lon="6.43427">
        <ele>1296.96</ele>
        <time>2018-12-13T13:10:46Z</time>
      </trkpt>
      <trkpt lat="45.90013" lon="6.4343">
        <ele>1297.44</ele>
        <time>2018-12-13T13:10:49Z</time>
      </trkpt>
      <trkpt lat="45.90012" lon="6.43431">
        <ele>1297.92</ele>
        <time>2018-12-13T13:10:50Z</time>
      </trkpt>
      <trkpt lat="45.90012" lon="6.43432">
        <ele>1297.92</ele>
        <time>2018-12-13T13:10:51Z</time>
      </trkpt>
      <trkpt lat="45.90008" lon="6.43441">
        <ele>1298.88</ele>
        <time>2018-12-13T13:11:00Z</time>
      </trkpt>
      <trkpt lat="45.90008" lon="6.43442">
        <ele>1299.36</ele>
        <time>2018-12-13T13:11:01Z</time>
      </trkpt>
      <trkpt lat="45.90003" lon="6.43453">
        <ele>1302.24</ele>
        <time>2018-12-13T13:11:15Z</time>
      </trkpt>
      <trkpt lat="45.89995" lon="6.43464">
        <ele>1305.61</ele>
        <time>2018-12-13T13:11:29Z</time>
      </trkpt>
      <trkpt lat="45.89989" lon="6.43473">
        <ele>1308.49</ele>
        <time>2018-12-13T13:11:43Z</time>
      </trkpt>
      <trkpt lat="45.89986" lon="6.43482">
        <ele>1311.38</ele>
        <time>2018-12-13T13:11:56Z</time>
      </trkpt>
      <trkpt lat="45.89979" lon="6.4349">
        <ele>1314.74</ele>
        <time>2018-12-13T13:12:10Z</time>
      </trkpt>
      <trkpt lat="45.89971" lon="6.43499">
        <ele>1317.62</ele>
        <time>2018-12-13T13:12:25Z</time>
      </trkpt>
      <trkpt lat="45.89966" lon="6.43507">
        <ele>1320.99</ele>
        <time>2018-12-13T13:12:39Z</time>
      </trkpt>
      <trkpt lat="45.89961" lon="6.43516">
        <ele>1323.87</ele>
        <time>2018-12-13T13:12:52Z</time>
      </trkpt>
      <trkpt lat="45.89959" lon="6.43523">
        <ele>1327.24</ele>
        <time>2018-12-13T13:13:04Z</time>
      </trkpt>
      <trkpt lat="45.89956" lon="6.43531">
        <ele>1330.12</ele>
        <time>2018-12-13T13:13:17Z</time>
      </trkpt>
      <trkpt lat="45.8995" lon="6.43539">
        <ele>1333.01</ele>
        <time>2018-12-13T13:13:31Z</time>
      </trkpt>
      <trkpt lat="45.8995" lon="6.4355">
        <ele>1336.37</ele>
        <time>2018-12-13T13:13:46Z</time>
      </trkpt>
      <trkpt lat="45.89951" lon="6.43564">
        <ele>1339.73</ele>
        <time>2018-12-13T13:14:03Z</time>
      </trkpt>
      <trkpt lat="45.89944" lon="6.43568">
        <ele>1342.62</ele>
        <time>2018-12-13T13:14:19Z</time>
      </trkpt>
      <trkpt lat="45.89936" lon="6.43571">
        <ele>1345.98</ele>
        <time>2018-12-13T13:14:33Z</time>
      </trkpt>
      <trkpt lat="45.89926" lon="6.43575">
        <ele>1348.87</ele>
        <time>2018-12-13T13:14:50Z</time>
      </trkpt>
      <trkpt lat="45.89918" lon="6.43582">
        <ele>1352.23</ele>
        <time>2018-12-13T13:15:04Z</time>
      </trkpt>
      <trkpt lat="45.89908" lon="6.43588">
        <ele>1355.12</ele>
        <time>2018-12-13T13:15:20Z</time>
      </trkpt>
      <trkpt lat="45.89907" lon="6.43596">
        <ele>1358.48</ele>
        <time>2018-12-13T13:15:34Z</time>
      </trkpt>
      <trkpt lat="45.89911" lon="6.43609">
        <ele>1361.36</ele>
        <time>2018-12-13T13:15:49Z</time>
      </trkpt>
      <trkpt lat="45.89903" lon="6.43616">
        <ele>1364.73</ele>
        <time>2018-12-13T13:16:05Z</time>
      </trkpt>
      <trkpt lat="45.89897" lon="6.43624">
        <ele>1367.61</ele>
        <time>2018-12-13T13:16:19Z</time>
      </trkpt>
      <trkpt lat="45.8989" lon="6.4363">
        <ele>1370.98</ele>
        <time>2018-12-13T13:16:32Z</time>
      </trkpt>
      <trkpt lat="45.89888" lon="6.43634">
        <ele>1372.42</ele>
        <time>2018-12-13T13:16:38Z</time>
      </trkpt>
      <trkpt lat="45.89884" lon="6.43644">
        <ele>1375.78</ele>
        <time>2018-12-13T13:16:52Z</time>
      </trkpt>
      <trkpt lat="45.89882" lon="6.43654">
        <ele>1378.67</ele>
        <time>2018-12-13T13:17:04Z</time>
      </trkpt>
      <trkpt lat="45.89873" lon="6.43659">
        <ele>1382.03</ele>
        <time>2018-12-13T13:17:20Z</time>
      </trkpt>
      <trkpt lat="45.89872" lon="6.4366">
        <ele>1382.03</ele>
        <time>2018-12-13T13:17:21Z</time>
      </trkpt>
      <trkpt lat="45.89871" lon="6.4367">
        <ele>1384.92</ele>
        <time>2018-12-13T13:17:35Z</time>
      </trkpt>
      <trkpt lat="45.89873" lon="6.43674">
        <ele>1385.88</ele>
        <time>2018-12-13T13:17:39Z</time>
      </trkpt>
      <trkpt lat="45.89874" lon="6.43688">
        <ele>1389.24</ele>
        <time>2018-12-13T13:17:53Z</time>
      </trkpt>
      <trkpt lat="45.8987" lon="6.43698">
        <ele>1392.61</ele>
        <time>2018-12-13T13:18:07Z</time>
      </trkpt>
      <trkpt lat="45.89866" lon="6.43705">
        <ele>1395.49</ele>
        <time>2018-12-13T13:18:20Z</time>
      </trkpt>
      <trkpt lat="45.89861" lon="6.43713">
        <ele>1398.37</ele>
        <time>2018-12-13T13:18:33Z</time>
      </trkpt>
      <trkpt lat="45.89855" lon="6.43723">
        <ele>1402.22</ele>
        <time>2018-12-13T13:18:47Z</time>
      </trkpt>
      <trkpt lat="45.8985" lon="6.4373">
        <ele>1405.1</ele>
        <time>2018-12-13T13:19:00Z</time>
      </trkpt>
      <trkpt lat="45.89846" lon="6.43734">
        <ele>1406.55</ele>
        <time>2018-12-13T13:19:06Z</time>
      </trkpt>
      <trkpt lat="45.89846" lon="6.43734">
        <ele>1406.55</ele>
        <time>2018-12-13T13:19:07Z</time>
      </trkpt>
      <trkpt lat="45.89841" lon="6.43743">
        <ele>1409.43</ele>
        <time>2018-12-13T13:19:21Z</time>
      </trkpt>
      <trkpt lat="45.89835" lon="6.43751">
        <ele>1412.79</ele>
        <time>2018-12-13T13:19:36Z</time>
      </trkpt>
      <trkpt lat="45.89827" lon="6.4376">
        <ele>1415.68</ele>
        <time>2018-12-13T13:19:51Z</time>
      </trkpt>
      <trkpt lat="45.89818" lon="6.43769">
        <ele>1419.04</ele>
        <time>2018-12-13T13:20:06Z</time>
      </trkpt>
      <trkpt lat="45.89815" lon="6.43775">
        <ele>1420.49</ele>
        <time>2018-12-13T13:20:14Z</time>
      </trkpt>
      <trkpt lat="45.89806" lon="6.43782">
        <ele>1423.85</ele>
        <time>2018-12-13T13:20:28Z</time>
      </trkpt>
      <trkpt lat="45.89797" lon="6.4379">
        <ele>1426.73</ele>
        <time>2018-12-13T13:20:45Z</time>
      </trkpt>
      <trkpt lat="45.89797" lon="6.43791">
        <ele>1428.18</ele>
        <time>2018-12-13T13:21:38Z</time>
      </trkpt>
      <trkpt lat="45.89795" lon="6.43791">
        <ele>1427.7</ele>
        <time>2018-12-13T13:22:18Z</time>
      </trkpt>
      <trkpt lat="45.89792" lon="6.43796">
        <ele>1428.66</ele>
        <time>2018-12-13T13:22:41Z</time>
      </trkpt>
      <trkpt lat="45.89786" lon="6.43805">
        <ele>1432.02</ele>
        <time>2018-12-13T13:22:54Z</time>
      </trkpt>
      <trkpt lat="45.89785" lon="6.43806">
        <ele>1432.02</ele>
        <time>2018-12-13T13:22:55Z</time>
      </trkpt>
      <trkpt lat="45.89778" lon="6.43818">
        <ele>1435.39</ele>
        <time>2018-12-13T13:23:09Z</time>
      </trkpt>
      <trkpt lat="45.89774" lon="6.43826">
        <ele>1438.75</ele>
        <time>2018-12-13T13:23:23Z</time>
      </trkpt>
      <trkpt lat="45.89769" lon="6.43838">
        <ele>1441.63</ele>
        <time>2018-12-13T13:23:39Z</time>
      </trkpt>
      <trkpt lat="45.89765" lon="6.43847">
        <ele>1445</ele>
        <time>2018-12-13T13:23:53Z</time>
      </trkpt>
      <trkpt lat="45.89759" lon="6.43854">
        <ele>1447.88</ele>
        <time>2018-12-13T13:24:06Z</time>
      </trkpt>
      <trkpt lat="45.89752" lon="6.43861">
        <ele>1450.77</ele>
        <time>2018-12-13T13:24:22Z</time>
      </trkpt>
      <trkpt lat="45.89746" lon="6.43867">
        <ele>1452.69</ele>
        <time>2018-12-13T13:24:34Z</time>
      </trkpt>
      <trkpt lat="45.89742" lon="6.43871">
        <ele>1454.61</ele>
        <time>2018-12-13T13:24:42Z</time>
      </trkpt>
      <trkpt lat="45.89732" lon="6.43879">
        <ele>1457.5</ele>
        <time>2018-12-13T13:24:59Z</time>
      </trkpt>
      <trkpt lat="45.89724" lon="6.43887">
        <ele>1460.38</ele>
        <time>2018-12-13T13:25:14Z</time>
      </trkpt>
      <trkpt lat="45.89722" lon="6.4389">
        <ele>1461.82</ele>
        <time>2018-12-13T13:25:19Z</time>
      </trkpt>
      <trkpt lat="45.89718" lon="6.43903">
        <ele>1465.19</ele>
        <time>2018-12-13T13:25:34Z</time>
      </trkpt>
      <trkpt lat="45.89718" lon="6.43904">
        <ele>1465.19</ele>
        <time>2018-12-13T13:25:35Z</time>
      </trkpt>
      <trkpt lat="45.89714" lon="6.43916">
        <ele>1468.55</ele>
        <time>2018-12-13T13:25:50Z</time>
      </trkpt>
      <trkpt lat="45.89708" lon="6.43928">
        <ele>1471.44</ele>
        <time>2018-12-13T13:26:05Z</time>
      </trkpt>
      <trkpt lat="45.89704" lon="6.43939">
        <ele>1474.8</ele>
        <time>2018-12-13T13:26:17Z</time>
      </trkpt>
      <trkpt lat="45.89696" lon="6.43945">
        <ele>1477.68</ele>
        <time>2018-12-13T13:26:30Z</time>
      </trkpt>
      <trkpt lat="45.89686" lon="6.43952">
        <ele>1481.05</ele>
        <time>2018-12-13T13:26:46Z</time>
      </trkpt>
      <trkpt lat="45.8969" lon="6.43961">
        <ele>1483.93</ele>
        <time>2018-12-13T13:26:59Z</time>
      </trkpt>
      <trkpt lat="45.8969" lon="6.43963">
        <ele>1484.41</ele>
        <time>2018-12-13T13:27:01Z</time>
      </trkpt>
      <trkpt lat="45.89694" lon="6.43967">
        <ele>1485.37</ele>
        <time>2018-12-13T13:27:07Z</time>
      </trkpt>
      <trkpt lat="45.89698" lon="6.43978">
        <ele>1488.74</ele>
        <time>2018-12-13T13:27:21Z</time>
      </trkpt>
      <trkpt lat="45.89695" lon="6.43989">
        <ele>1491.62</ele>
        <time>2018-12-13T13:27:35Z</time>
      </trkpt>
      <trkpt lat="45.8969" lon="6.43996">
        <ele>1494.99</ele>
        <time>2018-12-13T13:27:46Z</time>
      </trkpt>
      <trkpt lat="45.89682" lon="6.44009">
        <ele>1497.87</ele>
        <time>2018-12-13T13:28:00Z</time>
      </trkpt>
      <trkpt lat="45.89681" lon="6.4402">
        <ele>1500.76</ele>
        <time>2018-12-13T13:28:10Z</time>
      </trkpt>
      <trkpt lat="45.89681" lon="6.44021">
        <ele>1500.76</ele>
        <time>2018-12-13T13:28:11Z</time>
      </trkpt>
      <trkpt lat="45.89683" lon="6.44026">
        <ele>1502.2</ele>
        <time>2018-12-13T13:28:16Z</time>
      </trkpt>
      <trkpt lat="45.89683" lon="6.44027">
        <ele>1502.68</ele>
        <time>2018-12-13T13:28:17Z</time>
      </trkpt>
      <trkpt lat="45.89687" lon="6.44042">
        <ele>1505.56</ele>
        <time>2018-12-13T13:28:32Z</time>
      </trkpt>
      <trkpt lat="45.89684" lon="6.44052">
        <ele>1507.97</ele>
        <time>2018-12-13T13:28:42Z</time>
      </trkpt>
      <trkpt lat="45.89671" lon="6.44069">
        <ele>1511.33</ele>
        <time>2018-12-13T13:29:00Z</time>
      </trkpt>
      <trkpt lat="45.89661" lon="6.44088">
        <ele>1512.29</ele>
        <time>2018-12-13T13:29:16Z</time>
      </trkpt>
      <trkpt lat="45.8966" lon="6.44089">
        <ele>1512.77</ele>
        <time>2018-12-13T13:29:18Z</time>
      </trkpt>
      <trkpt lat="45.89659" lon="6.4409">
        <ele>1512.77</ele>
        <time>2018-12-13T13:29:19Z</time>
      </trkpt>
      <trkpt lat="45.89659" lon="6.44091">
        <ele>1512.77</ele>
        <time>2018-12-13T13:29:20Z</time>
      </trkpt>
      <trkpt lat="45.89658" lon="6.44092">
        <ele>1513.25</ele>
        <time>2018-12-13T13:29:21Z</time>
      </trkpt>
      <trkpt lat="45.89653" lon="6.44104">
        <ele>1514.21</ele>
        <time>2018-12-13T13:29:30Z</time>
      </trkpt>
      <trkpt lat="45.89652" lon="6.44107">
        <ele>1514.69</ele>
        <time>2018-12-13T13:29:33Z</time>
      </trkpt>
      <trkpt lat="45.89649" lon="6.44123">
        <ele>1517.58</ele>
        <time>2018-12-13T13:29:47Z</time>
      </trkpt>
      <trkpt lat="45.89646" lon="6.44142">
        <ele>1520.94</ele>
        <time>2018-12-13T13:30:01Z</time>
      </trkpt>
      <trkpt lat="45.8964" lon="6.44157">
        <ele>1523.83</ele>
        <time>2018-12-13T13:30:16Z</time>
      </trkpt>
      <trkpt lat="45.89639" lon="6.44161">
        <ele>1524.79</ele>
        <time>2018-12-13T13:30:20Z</time>
      </trkpt>
      <trkpt lat="45.89638" lon="6.44163">
        <ele>1525.27</ele>
        <time>2018-12-13T13:30:22Z</time>
      </trkpt>
      <trkpt lat="45.89637" lon="6.44164">
        <ele>1525.27</ele>
        <time>2018-12-13T13:30:23Z</time>
      </trkpt>
      <trkpt lat="45.89636" lon="6.44165">
        <ele>1525.75</ele>
        <time>2018-12-13T13:30:24Z</time>
      </trkpt>
      <trkpt lat="45.89632" lon="6.4418">
        <ele>1528.63</ele>
        <time>2018-12-13T13:30:38Z</time>
      </trkpt>
      <trkpt lat="45.8963" lon="6.44196">
        <ele>1531.52</ele>
        <time>2018-12-13T13:30:52Z</time>
      </trkpt>
      <trkpt lat="45.89628" lon="6.44207">
        <ele>1532.96</ele>
        <time>2018-12-13T13:30:59Z</time>
      </trkpt>
      <trkpt lat="45.89627" lon="6.44209">
        <ele>1533.44</ele>
        <time>2018-12-13T13:31:00Z</time>
      </trkpt>
      <trkpt lat="45.89627" lon="6.44211">
        <ele>1533.44</ele>
        <time>2018-12-13T13:31:02Z</time>
      </trkpt>
      <trkpt lat="45.89627" lon="6.44213">
        <ele>1533.92</ele>
        <time>2018-12-13T13:31:03Z</time>
      </trkpt>
      <trkpt lat="45.89622" lon="6.44239">
        <ele>1536.8</ele>
        <time>2018-12-13T13:31:21Z</time>
      </trkpt>
      <trkpt lat="45.8962" lon="6.4425">
        <ele>1537.77</ele>
        <time>2018-12-13T13:31:28Z</time>
      </trkpt>
      <trkpt lat="45.8962" lon="6.44251">
        <ele>1538.25</ele>
        <time>2018-12-13T13:31:29Z</time>
      </trkpt>
      <trkpt lat="45.89608" lon="6.44272">
        <ele>1541.61</ele>
        <time>2018-12-13T13:31:46Z</time>
      </trkpt>
      <trkpt lat="45.89607" lon="6.44275">
        <ele>1541.61</ele>
        <time>2018-12-13T13:31:49Z</time>
      </trkpt>
      <trkpt lat="45.89606" lon="6.44276">
        <ele>1542.09</ele>
        <time>2018-12-13T13:31:50Z</time>
      </trkpt>
      <trkpt lat="45.89606" lon="6.44278">
        <ele>1542.57</ele>
        <time>2018-12-13T13:31:51Z</time>
      </trkpt>
      <trkpt lat="45.89594" lon="6.44294">
        <ele>1545.46</ele>
        <time>2018-12-13T13:32:06Z</time>
      </trkpt>
      <trkpt lat="45.89584" lon="6.44312">
        <ele>1548.82</ele>
        <time>2018-12-13T13:32:21Z</time>
      </trkpt>
      <trkpt lat="45.89579" lon="6.44322">
        <ele>1550.74</ele>
        <time>2018-12-13T13:32:32Z</time>
      </trkpt>
      <trkpt lat="45.89578" lon="6.44323">
        <ele>1551.22</ele>
        <time>2018-12-13T13:32:34Z</time>
      </trkpt>
      <trkpt lat="45.89577" lon="6.44324">
        <ele>1551.22</ele>
        <time>2018-12-13T13:32:35Z</time>
      </trkpt>
      <trkpt lat="45.89576" lon="6.44325">
        <ele>1551.22</ele>
        <time>2018-12-13T13:32:36Z</time>
      </trkpt>
      <trkpt lat="45.89576" lon="6.44326">
        <ele>1551.71</ele>
        <time>2018-12-13T13:32:37Z</time>
      </trkpt>
      <trkpt lat="45.89575" lon="6.44328">
        <ele>1551.71</ele>
        <time>2018-12-13T13:32:38Z</time>
      </trkpt>
      <trkpt lat="45.89575" lon="6.44329">
        <ele>1552.19</ele>
        <time>2018-12-13T13:32:39Z</time>
      </trkpt>
      <trkpt lat="45.89568" lon="6.44345">
        <ele>1555.07</ele>
        <time>2018-12-13T13:32:54Z</time>
      </trkpt>
      <trkpt lat="45.89562" lon="6.4436">
        <ele>1558.43</ele>
        <time>2018-12-13T13:33:06Z</time>
      </trkpt>
      <trkpt lat="45.89562" lon="6.44362">
        <ele>1558.43</ele>
        <time>2018-12-13T13:33:07Z</time>
      </trkpt>
      <trkpt lat="45.89556" lon="6.44374">
        <ele>1561.8</ele>
        <time>2018-12-13T13:33:20Z</time>
      </trkpt>
      <trkpt lat="45.89545" lon="6.44387">
        <ele>1564.68</ele>
        <time>2018-12-13T13:33:34Z</time>
      </trkpt>
      <trkpt lat="45.89537" lon="6.44402">
        <ele>1567.57</ele>
        <time>2018-12-13T13:33:48Z</time>
      </trkpt>
      <trkpt lat="45.8953" lon="6.44415">
        <ele>1570.93</ele>
        <time>2018-12-13T13:34:03Z</time>
      </trkpt>
      <trkpt lat="45.89524" lon="6.44425">
        <ele>1573.82</ele>
        <time>2018-12-13T13:34:15Z</time>
      </trkpt>
      <trkpt lat="45.89516" lon="6.44439">
        <ele>1577.18</ele>
        <time>2018-12-13T13:34:28Z</time>
      </trkpt>
      <trkpt lat="45.8951" lon="6.4445">
        <ele>1580.06</ele>
        <time>2018-12-13T13:34:40Z</time>
      </trkpt>
      <trkpt lat="45.895" lon="6.44463">
        <ele>1583.43</ele>
        <time>2018-12-13T13:34:54Z</time>
      </trkpt>
      <trkpt lat="45.89494" lon="6.44476">
        <ele>1586.31</ele>
        <time>2018-12-13T13:35:07Z</time>
      </trkpt>
      <trkpt lat="45.89486" lon="6.4449">
        <ele>1589.2</ele>
        <time>2018-12-13T13:35:22Z</time>
      </trkpt>
      <trkpt lat="45.89483" lon="6.44504">
        <ele>1592.56</ele>
        <time>2018-12-13T13:35:35Z</time>
      </trkpt>
      <trkpt lat="45.89483" lon="6.44506">
        <ele>1592.56</ele>
        <time>2018-12-13T13:35:37Z</time>
      </trkpt>
      <trkpt lat="45.89474" lon="6.44525">
        <ele>1595.93</ele>
        <time>2018-12-13T13:35:52Z</time>
      </trkpt>
      <trkpt lat="45.89467" lon="6.44542">
        <ele>1599.29</ele>
        <time>2018-12-13T13:36:08Z</time>
      </trkpt>
      <trkpt lat="45.89457" lon="6.44556">
        <ele>1602.17</ele>
        <time>2018-12-13T13:36:22Z</time>
      </trkpt>
      <trkpt lat="45.89451" lon="6.44564">
        <ele>1604.1</ele>
        <time>2018-12-13T13:36:30Z</time>
      </trkpt>
      <trkpt lat="45.8945" lon="6.44565">
        <ele>1604.58</ele>
        <time>2018-12-13T13:36:32Z</time>
      </trkpt>
      <trkpt lat="45.89446" lon="6.4458">
        <ele>1607.46</ele>
        <time>2018-12-13T13:36:46Z</time>
      </trkpt>
      <trkpt lat="45.89445" lon="6.44582">
        <ele>1607.46</ele>
        <time>2018-12-13T13:36:48Z</time>
      </trkpt>
      <trkpt lat="45.89431" lon="6.44605">
        <ele>1610.83</ele>
        <time>2018-12-13T13:37:11Z</time>
      </trkpt>
      <trkpt lat="45.89431" lon="6.44606">
        <ele>1610.83</ele>
        <time>2018-12-13T13:37:12Z</time>
      </trkpt>
      <trkpt lat="45.89428" lon="6.44622">
        <ele>1613.71</ele>
        <time>2018-12-13T13:37:27Z</time>
      </trkpt>
      <trkpt lat="45.89428" lon="6.44627">
        <ele>1614.67</ele>
        <time>2018-12-13T13:37:31Z</time>
      </trkpt>
      <trkpt lat="45.89427" lon="6.44628">
        <ele>1615.15</ele>
        <time>2018-12-13T13:37:33Z</time>
      </trkpt>
      <trkpt lat="45.89426" lon="6.4463">
        <ele>1615.15</ele>
        <time>2018-12-13T13:37:34Z</time>
      </trkpt>
      <trkpt lat="45.89423" lon="6.44644">
        <ele>1618.52</ele>
        <time>2018-12-13T13:37:49Z</time>
      </trkpt>
      <trkpt lat="45.89415" lon="6.44657">
        <ele>1621.4</ele>
        <time>2018-12-13T13:38:03Z</time>
      </trkpt>
      <trkpt lat="45.89412" lon="6.4466">
        <ele>1622.36</ele>
        <time>2018-12-13T13:38:08Z</time>
      </trkpt>
      <trkpt lat="45.89386" lon="6.44668">
        <ele>1625.25</ele>
        <time>2018-12-13T13:38:35Z</time>
      </trkpt>
      <trkpt lat="45.89387" lon="6.44679">
        <ele>1628.13</ele>
        <time>2018-12-13T13:38:57Z</time>
      </trkpt>
      <trkpt lat="45.89395" lon="6.44688">
        <ele>1631.49</ele>
        <time>2018-12-13T13:39:15Z</time>
      </trkpt>
      <trkpt lat="45.89397" lon="6.44689">
        <ele>1631.98</ele>
        <time>2018-12-13T13:39:18Z</time>
      </trkpt>
      <trkpt lat="45.894" lon="6.44693">
        <ele>1632.94</ele>
        <time>2018-12-13T13:39:24Z</time>
      </trkpt>
      <trkpt lat="45.89406" lon="6.44706">
        <ele>1635.82</ele>
        <time>2018-12-13T13:39:40Z</time>
      </trkpt>
      <trkpt lat="45.89401" lon="6.44711">
        <ele>1637.26</ele>
        <time>2018-12-13T13:39:48Z</time>
      </trkpt>
      <trkpt lat="45.89387" lon="6.44716">
        <ele>1640.63</ele>
        <time>2018-12-13T13:40:03Z</time>
      </trkpt>
      <trkpt lat="45.89375" lon="6.44718">
        <ele>1643.51</ele>
        <time>2018-12-13T13:40:18Z</time>
      </trkpt>
      <trkpt lat="45.89364" lon="6.44717">
        <ele>1646.88</ele>
        <time>2018-12-13T13:40:31Z</time>
      </trkpt>
      <trkpt lat="45.89352" lon="6.44714">
        <ele>1650.24</ele>
        <time>2018-12-13T13:40:45Z</time>
      </trkpt>
      <trkpt lat="45.89339" lon="6.44708">
        <ele>1653.12</ele>
        <time>2018-12-13T13:41:01Z</time>
      </trkpt>
      <trkpt lat="45.89335" lon="6.44706">
        <ele>1653.6</ele>
        <time>2018-12-13T13:41:04Z</time>
      </trkpt>
      <trkpt lat="45.89335" lon="6.44705">
        <ele>1653.6</ele>
        <time>2018-12-13T13:41:05Z</time>
      </trkpt>
      <trkpt lat="45.89334" lon="6.44705">
        <ele>1654.09</ele>
        <time>2018-12-13T13:41:06Z</time>
      </trkpt>
      <trkpt lat="45.89333" lon="6.44705">
        <ele>1654.09</ele>
        <time>2018-12-13T13:41:07Z</time>
      </trkpt>
      <trkpt lat="45.89332" lon="6.44705">
        <ele>1654.09</ele>
        <time>2018-12-13T13:41:08Z</time>
      </trkpt>
      <trkpt lat="45.89332" lon="6.44704">
        <ele>1654.57</ele>
        <time>2018-12-13T13:41:09Z</time>
      </trkpt>
      <trkpt lat="45.89331" lon="6.44703">
        <ele>1654.57</ele>
        <time>2018-12-13T13:41:10Z</time>
      </trkpt>
      <trkpt lat="45.89322" lon="6.44699">
        <ele>1656.49</ele>
        <time>2018-12-13T13:41:21Z</time>
      </trkpt>
      <trkpt lat="45.89309" lon="6.447">
        <ele>1659.85</ele>
        <time>2018-12-13T13:41:37Z</time>
      </trkpt>
      <trkpt lat="45.89302" lon="6.44706">
        <ele>1662.74</ele>
        <time>2018-12-13T13:41:48Z</time>
      </trkpt>
      <trkpt lat="45.89295" lon="6.44715">
        <ele>1666.1</ele>
        <time>2018-12-13T13:41:59Z</time>
      </trkpt>
      <trkpt lat="45.89293" lon="6.44718">
        <ele>1667.06</ele>
        <time>2018-12-13T13:42:02Z</time>
      </trkpt>
      <trkpt lat="45.89282" lon="6.44733">
        <ele>1670.43</ele>
        <time>2018-12-13T13:42:18Z</time>
      </trkpt>
      <trkpt lat="45.89268" lon="6.44741">
        <ele>1672.83</ele>
        <time>2018-12-13T13:42:30Z</time>
      </trkpt>
      <trkpt lat="45.89267" lon="6.44742">
        <ele>1673.31</ele>
        <time>2018-12-13T13:42:32Z</time>
      </trkpt>
      <trkpt lat="45.89266" lon="6.44742">
        <ele>1673.79</ele>
        <time>2018-12-13T13:42:33Z</time>
      </trkpt>
      <trkpt lat="45.89264" lon="6.44743">
        <ele>1674.27</ele>
        <time>2018-12-13T13:42:35Z</time>
      </trkpt>
      <trkpt lat="45.89262" lon="6.44742">
        <ele>1674.75</ele>
        <time>2018-12-13T13:42:36Z</time>
      </trkpt>
      <trkpt lat="45.89261" lon="6.44742">
        <ele>1675.23</ele>
        <time>2018-12-13T13:42:37Z</time>
      </trkpt>
      <trkpt lat="45.8926" lon="6.44743">
        <ele>1675.23</ele>
        <time>2018-12-13T13:42:38Z</time>
      </trkpt>
      <trkpt lat="45.89259" lon="6.44742">
        <ele>1675.72</ele>
        <time>2018-12-13T13:42:39Z</time>
      </trkpt>
      <trkpt lat="45.89255" lon="6.44742">
        <ele>1676.2</ele>
        <time>2018-12-13T13:42:42Z</time>
      </trkpt>
      <trkpt lat="45.89254" lon="6.44741">
        <ele>1676.2</ele>
        <time>2018-12-13T13:42:43Z</time>
      </trkpt>
      <trkpt lat="45.89253" lon="6.44741">
        <ele>1676.68</ele>
        <time>2018-12-13T13:42:44Z</time>
      </trkpt>
      <trkpt lat="45.89248" lon="6.4474">
        <ele>1678.12</ele>
        <time>2018-12-13T13:42:49Z</time>
      </trkpt>
      <trkpt lat="45.89246" lon="6.4474">
        <ele>1678.6</ele>
        <time>2018-12-13T13:42:50Z</time>
      </trkpt>
      <trkpt lat="45.89245" lon="6.4474">
        <ele>1678.6</ele>
        <time>2018-12-13T13:42:51Z</time>
      </trkpt>
      <trkpt lat="45.89244" lon="6.44739">
        <ele>1678.6</ele>
        <time>2018-12-13T13:42:52Z</time>
      </trkpt>
      <trkpt lat="45.89243" lon="6.44739">
        <ele>1679.08</ele>
        <time>2018-12-13T13:42:53Z</time>
      </trkpt>
      <trkpt lat="45.89242" lon="6.44739">
        <ele>1679.08</ele>
        <time>2018-12-13T13:42:54Z</time>
      </trkpt>
      <trkpt lat="45.89241" lon="6.44738">
        <ele>1679.56</ele>
        <time>2018-12-13T13:42:55Z</time>
      </trkpt>
      <trkpt lat="45.89232" lon="6.44734">
        <ele>1681.48</ele>
        <time>2018-12-13T13:43:04Z</time>
      </trkpt>
      <trkpt lat="45.89232" lon="6.44734">
        <ele>1681.96</ele>
        <time>2018-12-13T13:43:05Z</time>
      </trkpt>
      <trkpt lat="45.89231" lon="6.44734">
        <ele>1681.96</ele>
        <time>2018-12-13T13:43:06Z</time>
      </trkpt>
      <trkpt lat="45.89229" lon="6.44733">
        <ele>1681.96</ele>
        <time>2018-12-13T13:43:07Z</time>
      </trkpt>
      <trkpt lat="45.89228" lon="6.44733">
        <ele>1682.44</ele>
        <time>2018-12-13T13:43:08Z</time>
      </trkpt>
      <trkpt lat="45.89216" lon="6.44729">
        <ele>1685.33</ele>
        <time>2018-12-13T13:43:19Z</time>
      </trkpt>
      <trkpt lat="45.89215" lon="6.44729">
        <ele>1685.33</ele>
        <time>2018-12-13T13:43:20Z</time>
      </trkpt>
      <trkpt lat="45.89205" lon="6.44724">
        <ele>1687.25</ele>
        <time>2018-12-13T13:43:29Z</time>
      </trkpt>
      <trkpt lat="45.89204" lon="6.44724">
        <ele>1687.73</ele>
        <time>2018-12-13T13:43:30Z</time>
      </trkpt>
      <trkpt lat="45.89201" lon="6.44722">
        <ele>1688.21</ele>
        <time>2018-12-13T13:43:33Z</time>
      </trkpt>
      <trkpt lat="45.89198" lon="6.44721">
        <ele>1688.69</ele>
        <time>2018-12-13T13:43:36Z</time>
      </trkpt>
      <trkpt lat="45.89197" lon="6.44721">
        <ele>1688.69</ele>
        <time>2018-12-13T13:43:37Z</time>
      </trkpt>
      <trkpt lat="45.89196" lon="6.44721">
        <ele>1689.17</ele>
        <time>2018-12-13T13:43:38Z</time>
      </trkpt>
      <trkpt lat="45.89196" lon="6.4472">
        <ele>1689.17</ele>
        <time>2018-12-13T13:43:39Z</time>
      </trkpt>
      <trkpt lat="45.89195" lon="6.44719">
        <ele>1689.17</ele>
        <time>2018-12-13T13:43:40Z</time>
      </trkpt>
      <trkpt lat="45.89194" lon="6.44718">
        <ele>1689.17</ele>
        <time>2018-12-13T13:43:41Z</time>
      </trkpt>
      <trkpt lat="45.89175" lon="6.44706">
        <ele>1692.54</ele>
        <time>2018-12-13T13:43:59Z</time>
      </trkpt>
      <trkpt lat="45.89174" lon="6.44705">
        <ele>1693.02</ele>
        <time>2018-12-13T13:44:01Z</time>
      </trkpt>
      <trkpt lat="45.89173" lon="6.44704">
        <ele>1693.5</ele>
        <time>2018-12-13T13:44:02Z</time>
      </trkpt>
      <trkpt lat="45.89169" lon="6.44703">
        <ele>1693.98</ele>
        <time>2018-12-13T13:44:06Z</time>
      </trkpt>
      <trkpt lat="45.89168" lon="6.44702">
        <ele>1693.98</ele>
        <time>2018-12-13T13:44:07Z</time>
      </trkpt>
      <trkpt lat="45.89166" lon="6.44701">
        <ele>1693.98</ele>
        <time>2018-12-13T13:44:08Z</time>
      </trkpt>
      <trkpt lat="45.89165" lon="6.44701">
        <ele>1694.46</ele>
        <time>2018-12-13T13:44:09Z</time>
      </trkpt>
      <trkpt lat="45.89164" lon="6.447">
        <ele>1694.46</ele>
        <time>2018-12-13T13:44:10Z</time>
      </trkpt>
      <trkpt lat="45.89164" lon="6.44699">
        <ele>1694.94</ele>
        <time>2018-12-13T13:44:11Z</time>
      </trkpt>
      <trkpt lat="45.89163" lon="6.44698">
        <ele>1694.94</ele>
        <time>2018-12-13T13:44:12Z</time>
      </trkpt>
      <trkpt lat="45.89161" lon="6.44696">
        <ele>1695.42</ele>
        <time>2018-12-13T13:44:15Z</time>
      </trkpt>
      <trkpt lat="45.89147" lon="6.44688">
        <ele>1697.34</ele>
        <time>2018-12-13T13:44:28Z</time>
      </trkpt>
      <trkpt lat="45.89145" lon="6.44687">
        <ele>1697.34</ele>
        <time>2018-12-13T13:44:29Z</time>
      </trkpt>
      <trkpt lat="45.89144" lon="6.44686">
        <ele>1697.83</ele>
        <time>2018-12-13T13:44:30Z</time>
      </trkpt>
      <trkpt lat="45.89144" lon="6.44686">
        <ele>1697.83</ele>
        <time>2018-12-13T13:44:31Z</time>
      </trkpt>
      <trkpt lat="45.89142" lon="6.44685">
        <ele>1697.83</ele>
        <time>2018-12-13T13:44:32Z</time>
      </trkpt>
      <trkpt lat="45.89141" lon="6.44684">
        <ele>1697.83</ele>
        <time>2018-12-13T13:44:33Z</time>
      </trkpt>
      <trkpt lat="45.8914" lon="6.44684">
        <ele>1698.31</ele>
        <time>2018-12-13T13:44:34Z</time>
      </trkpt>
      <trkpt lat="45.89139" lon="6.44683">
        <ele>1698.31</ele>
        <time>2018-12-13T13:44:35Z</time>
      </trkpt>
      <trkpt lat="45.89137" lon="6.44682">
        <ele>1698.31</ele>
        <time>2018-12-13T13:44:36Z</time>
      </trkpt>
      <trkpt lat="45.89136" lon="6.44682">
        <ele>1698.79</ele>
        <time>2018-12-13T13:44:37Z</time>
      </trkpt>
      <trkpt lat="45.89135" lon="6.44681">
        <ele>1698.79</ele>
        <time>2018-12-13T13:44:38Z</time>
      </trkpt>
      <trkpt lat="45.89134" lon="6.44681">
        <ele>1698.79</ele>
        <time>2018-12-13T13:44:39Z</time>
      </trkpt>
      <trkpt lat="45.89133" lon="6.4468">
        <ele>1699.27</ele>
        <time>2018-12-13T13:44:40Z</time>
      </trkpt>
      <trkpt lat="45.89128" lon="6.44679">
        <ele>1699.75</ele>
        <time>2018-12-13T13:44:44Z</time>
      </trkpt>
      <trkpt lat="45.89127" lon="6.44678">
        <ele>1700.23</ele>
        <time>2018-12-13T13:44:45Z</time>
      </trkpt>
      <trkpt lat="45.89116" lon="6.44668">
        <ele>1702.15</ele>
        <time>2018-12-13T13:44:58Z</time>
      </trkpt>
      <trkpt lat="45.89115" lon="6.44667">
        <ele>1702.15</ele>
        <time>2018-12-13T13:44:59Z</time>
      </trkpt>
      <trkpt lat="45.89107" lon="6.44661">
        <ele>1703.59</ele>
        <time>2018-12-13T13:45:07Z</time>
      </trkpt>
      <trkpt lat="45.89105" lon="6.4466">
        <ele>1703.59</ele>
        <time>2018-12-13T13:45:08Z</time>
      </trkpt>
      <trkpt lat="45.89095" lon="6.44654">
        <ele>1705.04</ele>
        <time>2018-12-13T13:45:17Z</time>
      </trkpt>
      <trkpt lat="45.89094" lon="6.44653">
        <ele>1705.52</ele>
        <time>2018-12-13T13:45:18Z</time>
      </trkpt>
      <trkpt lat="45.89093" lon="6.44653">
        <ele>1705.52</ele>
        <time>2018-12-13T13:45:19Z</time>
      </trkpt>
      <trkpt lat="45.89092" lon="6.44653">
        <ele>1706</ele>
        <time>2018-12-13T13:45:20Z</time>
      </trkpt>
      <trkpt lat="45.8909" lon="6.44653">
        <ele>1706</ele>
        <time>2018-12-13T13:45:21Z</time>
      </trkpt>
      <trkpt lat="45.89086" lon="6.44649">
        <ele>1706.96</ele>
        <time>2018-12-13T13:45:26Z</time>
      </trkpt>
      <trkpt lat="45.89083" lon="6.44647">
        <ele>1707.44</ele>
        <time>2018-12-13T13:45:28Z</time>
      </trkpt>
      <trkpt lat="45.89082" lon="6.44646">
        <ele>1707.44</ele>
        <time>2018-12-13T13:45:29Z</time>
      </trkpt>
      <trkpt lat="45.89081" lon="6.44645">
        <ele>1707.44</ele>
        <time>2018-12-13T13:45:30Z</time>
      </trkpt>
      <trkpt lat="45.89079" lon="6.44644">
        <ele>1707.44</ele>
        <time>2018-12-13T13:45:31Z</time>
      </trkpt>
      <trkpt lat="45.89078" lon="6.44643">
        <ele>1707.92</ele>
        <time>2018-12-13T13:45:32Z</time>
      </trkpt>
      <trkpt lat="45.89071" lon="6.44637">
        <ele>1708.88</ele>
        <time>2018-12-13T13:45:41Z</time>
      </trkpt>
      <trkpt lat="45.89066" lon="6.44632">
        <ele>1709.84</ele>
        <time>2018-12-13T13:45:48Z</time>
      </trkpt>
      <trkpt lat="45.89065" lon="6.44632">
        <ele>1710.32</ele>
        <time>2018-12-13T13:45:49Z</time>
      </trkpt>
      <trkpt lat="45.89041" lon="6.44623">
        <ele>1713.21</ele>
        <time>2018-12-13T13:46:09Z</time>
      </trkpt>
      <trkpt lat="45.89022" lon="6.44619">
        <ele>1716.09</ele>
        <time>2018-12-13T13:46:29Z</time>
      </trkpt>
      <trkpt lat="45.89021" lon="6.4462">
        <ele>1716.57</ele>
        <time>2018-12-13T13:46:30Z</time>
      </trkpt>
      <trkpt lat="45.8902" lon="6.4462">
        <ele>1716.57</ele>
        <time>2018-12-13T13:46:31Z</time>
      </trkpt>
      <trkpt lat="45.89019" lon="6.4462">
        <ele>1716.57</ele>
        <time>2018-12-13T13:46:32Z</time>
      </trkpt>
      <trkpt lat="45.89019" lon="6.4462">
        <ele>1716.57</ele>
        <time>2018-12-13T13:46:33Z</time>
      </trkpt>
      <trkpt lat="45.89018" lon="6.4462">
        <ele>1717.05</ele>
        <time>2018-12-13T13:46:34Z</time>
      </trkpt>
      <trkpt lat="45.89017" lon="6.44621">
        <ele>1717.05</ele>
        <time>2018-12-13T13:46:35Z</time>
      </trkpt>
      <trkpt lat="45.89016" lon="6.44621">
        <ele>1717.05</ele>
        <time>2018-12-13T13:46:36Z</time>
      </trkpt>
      <trkpt lat="45.89015" lon="6.44621">
        <ele>1717.05</ele>
        <time>2018-12-13T13:46:37Z</time>
      </trkpt>
      <trkpt lat="45.89011" lon="6.44621">
        <ele>1717.53</ele>
        <time>2018-12-13T13:46:40Z</time>
      </trkpt>
      <trkpt lat="45.8901" lon="6.44622">
        <ele>1718.01</ele>
        <time>2018-12-13T13:46:41Z</time>
      </trkpt>
      <trkpt lat="45.89005" lon="6.44624">
        <ele>1718.49</ele>
        <time>2018-12-13T13:46:46Z</time>
      </trkpt>
      <trkpt lat="45.89004" lon="6.44624">
        <ele>1718.97</ele>
        <time>2018-12-13T13:46:47Z</time>
      </trkpt>
      <trkpt lat="45.89003" lon="6.44625">
        <ele>1718.97</ele>
        <time>2018-12-13T13:46:48Z</time>
      </trkpt>
      <trkpt lat="45.89002" lon="6.44626">
        <ele>1718.97</ele>
        <time>2018-12-13T13:46:49Z</time>
      </trkpt>
      <trkpt lat="45.89001" lon="6.44627">
        <ele>1718.97</ele>
        <time>2018-12-13T13:46:50Z</time>
      </trkpt>
      <trkpt lat="45.89" lon="6.44628">
        <ele>1719.46</ele>
        <time>2018-12-13T13:46:51Z</time>
      </trkpt>
      <trkpt lat="45.88982" lon="6.44639">
        <ele>1722.34</ele>
        <time>2018-12-13T13:47:09Z</time>
      </trkpt>
      <trkpt lat="45.88973" lon="6.44646">
        <ele>1724.74</ele>
        <time>2018-12-13T13:47:20Z</time>
      </trkpt>
      <trkpt lat="45.88972" lon="6.44647">
        <ele>1724.74</ele>
        <time>2018-12-13T13:47:21Z</time>
      </trkpt>
      <trkpt lat="45.88971" lon="6.44648">
        <ele>1725.22</ele>
        <time>2018-12-13T13:47:22Z</time>
      </trkpt>
      <trkpt lat="45.88971" lon="6.44649">
        <ele>1725.22</ele>
        <time>2018-12-13T13:47:23Z</time>
      </trkpt>
      <trkpt lat="45.8897" lon="6.44649">
        <ele>1725.22</ele>
        <time>2018-12-13T13:47:24Z</time>
      </trkpt>
      <trkpt lat="45.88969" lon="6.4465">
        <ele>1725.7</ele>
        <time>2018-12-13T13:47:25Z</time>
      </trkpt>
      <trkpt lat="45.88969" lon="6.44651">
        <ele>1726.18</ele>
        <time>2018-12-13T13:47:26Z</time>
      </trkpt>
      <trkpt lat="45.88968" lon="6.44652">
        <ele>1726.18</ele>
        <time>2018-12-13T13:47:27Z</time>
      </trkpt>
      <trkpt lat="45.88967" lon="6.44653">
        <ele>1726.18</ele>
        <time>2018-12-13T13:47:28Z</time>
      </trkpt>
      <trkpt lat="45.88966" lon="6.44653">
        <ele>1726.67</ele>
        <time>2018-12-13T13:47:29Z</time>
      </trkpt>
      <trkpt lat="45.88965" lon="6.44655">
        <ele>1726.67</ele>
        <time>2018-12-13T13:47:30Z</time>
      </trkpt>
      <trkpt lat="45.88965" lon="6.44656">
        <ele>1726.67</ele>
        <time>2018-12-13T13:47:31Z</time>
      </trkpt>
      <trkpt lat="45.88959" lon="6.44663">
        <ele>1728.11</ele>
        <time>2018-12-13T13:47:37Z</time>
      </trkpt>
      <trkpt lat="45.88959" lon="6.44664">
        <ele>1728.11</ele>
        <time>2018-12-13T13:47:38Z</time>
      </trkpt>
      <trkpt lat="45.88958" lon="6.44665">
        <ele>1728.59</ele>
        <time>2018-12-13T13:47:39Z</time>
      </trkpt>
      <trkpt lat="45.88958" lon="6.44666">
        <ele>1728.59</ele>
        <time>2018-12-13T13:47:40Z</time>
      </trkpt>
      <trkpt lat="45.88957" lon="6.44667">
        <ele>1728.59</ele>
        <time>2018-12-13T13:47:41Z</time>
      </trkpt>
      <trkpt lat="45.88957" lon="6.44668">
        <ele>1729.07</ele>
        <time>2018-12-13T13:47:42Z</time>
      </trkpt>
      <trkpt lat="45.88956" lon="6.44671">
        <ele>1729.55</ele>
        <time>2018-12-13T13:47:44Z</time>
      </trkpt>
      <trkpt lat="45.88956" lon="6.44672">
        <ele>1729.55</ele>
        <time>2018-12-13T13:47:45Z</time>
      </trkpt>
      <trkpt lat="45.88955" lon="6.44673">
        <ele>1730.03</ele>
        <time>2018-12-13T13:47:46Z</time>
      </trkpt>
      <trkpt lat="45.88953" lon="6.44679">
        <ele>1730.99</ele>
        <time>2018-12-13T13:47:51Z</time>
      </trkpt>
      <trkpt lat="45.88947" lon="6.44694">
        <ele>1732.43</ele>
        <time>2018-12-13T13:48:02Z</time>
      </trkpt>
      <trkpt lat="45.88946" lon="6.44695">
        <ele>1732.43</ele>
        <time>2018-12-13T13:48:03Z</time>
      </trkpt>
      <trkpt lat="45.88943" lon="6.44702">
        <ele>1734.36</ele>
        <time>2018-12-13T13:48:08Z</time>
      </trkpt>
      <trkpt lat="45.88943" lon="6.44703">
        <ele>1734.36</ele>
        <time>2018-12-13T13:48:09Z</time>
      </trkpt>
      <trkpt lat="45.88941" lon="6.44723">
        <ele>1736.76</ele>
        <time>2018-12-13T13:48:23Z</time>
      </trkpt>
      <trkpt lat="45.88945" lon="6.44749">
        <ele>1739.64</ele>
        <time>2018-12-13T13:48:40Z</time>
      </trkpt>
      <trkpt lat="45.88945" lon="6.44756">
        <ele>1740.6</ele>
        <time>2018-12-13T13:48:45Z</time>
      </trkpt>
      <trkpt lat="45.88945" lon="6.44758">
        <ele>1741.08</ele>
        <time>2018-12-13T13:48:46Z</time>
      </trkpt>
      <trkpt lat="45.88945" lon="6.44759">
        <ele>1741.08</ele>
        <time>2018-12-13T13:48:47Z</time>
      </trkpt>
      <trkpt lat="45.88945" lon="6.44761">
        <ele>1741.57</ele>
        <time>2018-12-13T13:48:48Z</time>
      </trkpt>
      <trkpt lat="45.88944" lon="6.44763">
        <ele>1741.57</ele>
        <time>2018-12-13T13:48:49Z</time>
      </trkpt>
      <trkpt lat="45.88944" lon="6.44764">
        <ele>1741.57</ele>
        <time>2018-12-13T13:48:50Z</time>
      </trkpt>
      <trkpt lat="45.88943" lon="6.44766">
        <ele>1741.57</ele>
        <time>2018-12-13T13:48:51Z</time>
      </trkpt>
      <trkpt lat="45.88943" lon="6.44768">
        <ele>1742.05</ele>
        <time>2018-12-13T13:48:52Z</time>
      </trkpt>
      <trkpt lat="45.88943" lon="6.44769">
        <ele>1742.05</ele>
        <time>2018-12-13T13:48:53Z</time>
      </trkpt>
      <trkpt lat="45.88943" lon="6.44771">
        <ele>1742.05</ele>
        <time>2018-12-13T13:48:54Z</time>
      </trkpt>
      <trkpt lat="45.88942" lon="6.44773">
        <ele>1742.53</ele>
        <time>2018-12-13T13:48:55Z</time>
      </trkpt>
      <trkpt lat="45.88942" lon="6.44774">
        <ele>1742.53</ele>
        <time>2018-12-13T13:48:56Z</time>
      </trkpt>
      <trkpt lat="45.88942" lon="6.44776">
        <ele>1742.53</ele>
        <time>2018-12-13T13:48:57Z</time>
      </trkpt>
      <trkpt lat="45.88942" lon="6.44779">
        <ele>1743.01</ele>
        <time>2018-12-13T13:48:59Z</time>
      </trkpt>
      <trkpt lat="45.88942" lon="6.4478">
        <ele>1743.01</ele>
        <time>2018-12-13T13:49:00Z</time>
      </trkpt>
      <trkpt lat="45.88941" lon="6.44781">
        <ele>1743.49</ele>
        <time>2018-12-13T13:49:01Z</time>
      </trkpt>
      <trkpt lat="45.88937" lon="6.44798">
        <ele>1745.89</ele>
        <time>2018-12-13T13:49:14Z</time>
      </trkpt>
      <trkpt lat="45.88937" lon="6.448">
        <ele>1746.37</ele>
        <time>2018-12-13T13:49:15Z</time>
      </trkpt>
      <trkpt lat="45.88934" lon="6.4481">
        <ele>1747.33</ele>
        <time>2018-12-13T13:49:23Z</time>
      </trkpt>
      <trkpt lat="45.88933" lon="6.44811">
        <ele>1747.81</ele>
        <time>2018-12-13T13:49:24Z</time>
      </trkpt>
      <trkpt lat="45.88927" lon="6.44834">
        <ele>1750.7</ele>
        <time>2018-12-13T13:49:43Z</time>
      </trkpt>
      <trkpt lat="45.88917" lon="6.44861">
        <ele>1753.58</ele>
        <time>2018-12-13T13:50:04Z</time>
      </trkpt>
      <trkpt lat="45.88908" lon="6.44883">
        <ele>1756.95</ele>
        <time>2018-12-13T13:50:21Z</time>
      </trkpt>
      <trkpt lat="45.88899" lon="6.44918">
        <ele>1759.83</ele>
        <time>2018-12-13T13:50:45Z</time>
      </trkpt>
      <trkpt lat="45.88893" lon="6.44939">
        <ele>1761.75</ele>
        <time>2018-12-13T13:51:01Z</time>
      </trkpt>
      <trkpt lat="45.88888" lon="6.44955">
        <ele>1763.68</ele>
        <time>2018-12-13T13:51:12Z</time>
      </trkpt>
      <trkpt lat="45.88888" lon="6.44956">
        <ele>1763.68</ele>
        <time>2018-12-13T13:51:13Z</time>
      </trkpt>
      <trkpt lat="45.88883" lon="6.44988">
        <ele>1767.04</ele>
        <time>2018-12-13T13:51:36Z</time>
      </trkpt>
      <trkpt lat="45.88883" lon="6.44989">
        <ele>1767.04</ele>
        <time>2018-12-13T13:51:37Z</time>
      </trkpt>
      <trkpt lat="45.88883" lon="6.4499">
        <ele>1767.52</ele>
        <time>2018-12-13T13:51:38Z</time>
      </trkpt>
      <trkpt lat="45.88882" lon="6.45005">
        <ele>1768.96</ele>
        <time>2018-12-13T13:51:49Z</time>
      </trkpt>
      <trkpt lat="45.88885" lon="6.4503">
        <ele>1772.33</ele>
        <time>2018-12-13T13:52:06Z</time>
      </trkpt>
      <trkpt lat="45.88886" lon="6.45033">
        <ele>1772.81</ele>
        <time>2018-12-13T13:52:08Z</time>
      </trkpt>
      <trkpt lat="45.88886" lon="6.45034">
        <ele>1772.81</ele>
        <time>2018-12-13T13:52:09Z</time>
      </trkpt>
      <trkpt lat="45.88886" lon="6.45035">
        <ele>1773.29</ele>
        <time>2018-12-13T13:52:10Z</time>
      </trkpt>
      <trkpt lat="45.88887" lon="6.45036">
        <ele>1773.29</ele>
        <time>2018-12-13T13:52:11Z</time>
      </trkpt>
      <trkpt lat="45.88887" lon="6.45037">
        <ele>1773.29</ele>
        <time>2018-12-13T13:52:12Z</time>
      </trkpt>
      <trkpt lat="45.88887" lon="6.45039">
        <ele>1773.77</ele>
        <time>2018-12-13T13:52:13Z</time>
      </trkpt>
      <trkpt lat="45.88891" lon="6.45052">
        <ele>1775.69</ele>
        <time>2018-12-13T13:52:23Z</time>
      </trkpt>
      <trkpt lat="45.88891" lon="6.45053">
        <ele>1775.69</ele>
        <time>2018-12-13T13:52:24Z</time>
      </trkpt>
      <trkpt lat="45.88892" lon="6.4506">
        <ele>1776.65</ele>
        <time>2018-12-13T13:52:29Z</time>
      </trkpt>
      <trkpt lat="45.88892" lon="6.45061">
        <ele>1777.13</ele>
        <time>2018-12-13T13:52:30Z</time>
      </trkpt>
      <trkpt lat="45.88892" lon="6.45062">
        <ele>1777.13</ele>
        <time>2018-12-13T13:52:31Z</time>
      </trkpt>
      <trkpt lat="45.88892" lon="6.45064">
        <ele>1777.61</ele>
        <time>2018-12-13T13:52:32Z</time>
      </trkpt>
      <trkpt lat="45.88893" lon="6.45065">
        <ele>1777.61</ele>
        <time>2018-12-13T13:52:33Z</time>
      </trkpt>
      <trkpt lat="45.88897" lon="6.45081">
        <ele>1780.98</ele>
        <time>2018-12-13T13:52:45Z</time>
      </trkpt>
      <trkpt lat="45.88897" lon="6.45082">
        <ele>1780.98</ele>
        <time>2018-12-13T13:52:46Z</time>
      </trkpt>
      <trkpt lat="45.88897" lon="6.45084">
        <ele>1780.98</ele>
        <time>2018-12-13T13:52:47Z</time>
      </trkpt>
      <trkpt lat="45.88897" lon="6.45098">
        <ele>1781.94</ele>
        <time>2018-12-13T13:52:57Z</time>
      </trkpt>
      <trkpt lat="45.88897" lon="6.451">
        <ele>1781.94</ele>
        <time>2018-12-13T13:52:58Z</time>
      </trkpt>
      <trkpt lat="45.88897" lon="6.45113">
        <ele>1782.9</ele>
        <time>2018-12-13T13:53:07Z</time>
      </trkpt>
      <trkpt lat="45.88897" lon="6.45115">
        <ele>1783.38</ele>
        <time>2018-12-13T13:53:08Z</time>
      </trkpt>
      <trkpt lat="45.88897" lon="6.45116">
        <ele>1783.38</ele>
        <time>2018-12-13T13:53:09Z</time>
      </trkpt>
      <trkpt lat="45.88903" lon="6.45141">
        <ele>1786.27</ele>
        <time>2018-12-13T13:53:27Z</time>
      </trkpt>
      <trkpt lat="45.88904" lon="6.45143">
        <ele>1786.27</ele>
        <time>2018-12-13T13:53:29Z</time>
      </trkpt>
      <trkpt lat="45.88905" lon="6.45145">
        <ele>1786.75</ele>
        <time>2018-12-13T13:53:31Z</time>
      </trkpt>
      <trkpt lat="45.88912" lon="6.45166">
        <ele>1789.63</ele>
        <time>2018-12-13T13:53:47Z</time>
      </trkpt>
      <trkpt lat="45.88918" lon="6.45182">
        <ele>1792.03</ele>
        <time>2018-12-13T13:53:59Z</time>
      </trkpt>
      <trkpt lat="45.88919" lon="6.45183">
        <ele>1792.52</ele>
        <time>2018-12-13T13:54:00Z</time>
      </trkpt>
      <trkpt lat="45.88919" lon="6.45184">
        <ele>1792.52</ele>
        <time>2018-12-13T13:54:01Z</time>
      </trkpt>
      <trkpt lat="45.88919" lon="6.45185">
        <ele>1793</ele>
        <time>2018-12-13T13:54:02Z</time>
      </trkpt>
      <trkpt lat="45.8892" lon="6.45186">
        <ele>1793</ele>
        <time>2018-12-13T13:54:03Z</time>
      </trkpt>
      <trkpt lat="45.8892" lon="6.45188">
        <ele>1793.48</ele>
        <time>2018-12-13T13:54:04Z</time>
      </trkpt>
      <trkpt lat="45.8892" lon="6.45189">
        <ele>1793.48</ele>
        <time>2018-12-13T13:54:05Z</time>
      </trkpt>
      <trkpt lat="45.8892" lon="6.45191">
        <ele>1793.96</ele>
        <time>2018-12-13T13:54:06Z</time>
      </trkpt>
      <trkpt lat="45.88922" lon="6.45197">
        <ele>1794.44</ele>
        <time>2018-12-13T13:54:11Z</time>
      </trkpt>
      <trkpt lat="45.88928" lon="6.45213">
        <ele>1797.32</ele>
        <time>2018-12-13T13:54:25Z</time>
      </trkpt>
      <trkpt lat="45.88932" lon="6.45232">
        <ele>1800.69</ele>
        <time>2018-12-13T13:54:40Z</time>
      </trkpt>
      <trkpt lat="45.88933" lon="6.45233">
        <ele>1801.17</ele>
        <time>2018-12-13T13:54:42Z</time>
      </trkpt>
      <trkpt lat="45.8894" lon="6.45255">
        <ele>1804.05</ele>
        <time>2018-12-13T13:54:59Z</time>
      </trkpt>
      <trkpt lat="45.88941" lon="6.45257">
        <ele>1805.01</ele>
        <time>2018-12-13T13:55:01Z</time>
      </trkpt>
      <trkpt lat="45.88943" lon="6.45263">
        <ele>1805.97</ele>
        <time>2018-12-13T13:55:06Z</time>
      </trkpt>
      <trkpt lat="45.88945" lon="6.45267">
        <ele>1806.45</ele>
        <time>2018-12-13T13:55:09Z</time>
      </trkpt>
      <trkpt lat="45.88946" lon="6.45268">
        <ele>1806.94</ele>
        <time>2018-12-13T13:55:10Z</time>
      </trkpt>
      <trkpt lat="45.88946" lon="6.45269">
        <ele>1806.94</ele>
        <time>2018-12-13T13:55:11Z</time>
      </trkpt>
      <trkpt lat="45.88947" lon="6.4527">
        <ele>1807.42</ele>
        <time>2018-12-13T13:55:12Z</time>
      </trkpt>
      <trkpt lat="45.88947" lon="6.45271">
        <ele>1807.42</ele>
        <time>2018-12-13T13:55:13Z</time>
      </trkpt>
      <trkpt lat="45.88948" lon="6.45273">
        <ele>1807.42</ele>
        <time>2018-12-13T13:55:14Z</time>
      </trkpt>
      <trkpt lat="45.88952" lon="6.4529">
        <ele>1810.78</ele>
        <time>2018-12-13T13:55:29Z</time>
      </trkpt>
      <trkpt lat="45.88954" lon="6.45292">
        <ele>1811.26</ele>
        <time>2018-12-13T13:55:32Z</time>
      </trkpt>
      <trkpt lat="45.88957" lon="6.45303">
        <ele>1814.63</ele>
        <time>2018-12-13T13:55:42Z</time>
      </trkpt>
      <trkpt lat="45.88962" lon="6.45315">
        <ele>1817.51</ele>
        <time>2018-12-13T13:55:53Z</time>
      </trkpt>
      <trkpt lat="45.88965" lon="6.45327">
        <ele>1820.39</ele>
        <time>2018-12-13T13:56:07Z</time>
      </trkpt>
      <trkpt lat="45.88969" lon="6.45343">
        <ele>1823.76</ele>
        <time>2018-12-13T13:56:22Z</time>
      </trkpt>
      <trkpt lat="45.88974" lon="6.45361">
        <ele>1827.12</ele>
        <time>2018-12-13T13:56:37Z</time>
      </trkpt>
      <trkpt lat="45.88978" lon="6.45378">
        <ele>1830.01</ele>
        <time>2018-12-13T13:56:52Z</time>
      </trkpt>
      <trkpt lat="45.88982" lon="6.45393">
        <ele>1833.37</ele>
        <time>2018-12-13T13:57:06Z</time>
      </trkpt>
      <trkpt lat="45.88987" lon="6.45407">
        <ele>1836.26</ele>
        <time>2018-12-13T13:57:19Z</time>
      </trkpt>
      <trkpt lat="45.88991" lon="6.4542">
        <ele>1839.62</ele>
        <time>2018-12-13T13:57:31Z</time>
      </trkpt>
      <trkpt lat="45.88993" lon="6.45437">
        <ele>1842.5</ele>
        <time>2018-12-13T13:57:45Z</time>
      </trkpt>
      <trkpt lat="45.88997" lon="6.45455">
        <ele>1845.39</ele>
        <time>2018-12-13T13:58:01Z</time>
      </trkpt>
      <trkpt lat="45.89001" lon="6.45467">
        <ele>1848.75</ele>
        <time>2018-12-13T13:58:14Z</time>
      </trkpt>
      <trkpt lat="45.89005" lon="6.45481">
        <ele>1852.12</ele>
        <time>2018-12-13T13:58:29Z</time>
      </trkpt>
      <trkpt lat="45.89012" lon="6.45492">
        <ele>1855</ele>
        <time>2018-12-13T13:58:42Z</time>
      </trkpt>
      <trkpt lat="45.89022" lon="6.45526">
        <ele>1858.37</ele>
        <time>2018-12-13T13:59:09Z</time>
      </trkpt>
      <trkpt lat="45.89023" lon="6.45527">
        <ele>1858.37</ele>
        <time>2018-12-13T13:59:10Z</time>
      </trkpt>
      <trkpt lat="45.89026" lon="6.45552">
        <ele>1861.73</ele>
        <time>2018-12-13T13:59:30Z</time>
      </trkpt>
      <trkpt lat="45.89027" lon="6.45578">
        <ele>1864.61</ele>
        <time>2018-12-13T13:59:50Z</time>
      </trkpt>
      <trkpt lat="45.89028" lon="6.4559">
        <ele>1867.02</ele>
        <time>2018-12-13T14:00:00Z</time>
      </trkpt>
      <trkpt lat="45.89028" lon="6.45593">
        <ele>1867.5</ele>
        <time>2018-12-13T14:00:02Z</time>
      </trkpt>
      <trkpt lat="45.89028" lon="6.45594">
        <ele>1867.5</ele>
        <time>2018-12-13T14:00:03Z</time>
      </trkpt>
      <trkpt lat="45.89029" lon="6.45601">
        <ele>1867.98</ele>
        <time>2018-12-13T14:00:09Z</time>
      </trkpt>
      <trkpt lat="45.89029" lon="6.45602">
        <ele>1868.46</ele>
        <time>2018-12-13T14:00:10Z</time>
      </trkpt>
      <trkpt lat="45.89029" lon="6.45604">
        <ele>1868.46</ele>
        <time>2018-12-13T14:00:11Z</time>
      </trkpt>
      <trkpt lat="45.89029" lon="6.45605">
        <ele>1868.46</ele>
        <time>2018-12-13T14:00:12Z</time>
      </trkpt>
      <trkpt lat="45.89029" lon="6.45606">
        <ele>1868.94</ele>
        <time>2018-12-13T14:00:13Z</time>
      </trkpt>
      <trkpt lat="45.8903" lon="6.45614">
        <ele>1870.38</ele>
        <time>2018-12-13T14:00:19Z</time>
      </trkpt>
      <trkpt lat="45.8903" lon="6.45615">
        <ele>1870.38</ele>
        <time>2018-12-13T14:00:20Z</time>
      </trkpt>
      <trkpt lat="45.89031" lon="6.4562">
        <ele>1871.82</ele>
        <time>2018-12-13T14:00:25Z</time>
      </trkpt>
      <trkpt lat="45.89031" lon="6.45622">
        <ele>1871.82</ele>
        <time>2018-12-13T14:00:27Z</time>
      </trkpt>
      <trkpt lat="45.89033" lon="6.45637">
        <ele>1875.19</ele>
        <time>2018-12-13T14:00:40Z</time>
      </trkpt>
      <trkpt lat="45.89035" lon="6.45654">
        <ele>1878.55</ele>
        <time>2018-12-13T14:00:56Z</time>
      </trkpt>
      <trkpt lat="45.89036" lon="6.45667">
        <ele>1881.44</ele>
        <time>2018-12-13T14:01:07Z</time>
      </trkpt>
      <trkpt lat="45.8904" lon="6.45684">
        <ele>1884.8</ele>
        <time>2018-12-13T14:01:22Z</time>
      </trkpt>
      <trkpt lat="45.89041" lon="6.45699">
        <ele>1887.21</ele>
        <time>2018-12-13T14:01:34Z</time>
      </trkpt>
      <trkpt lat="45.89041" lon="6.45701">
        <ele>1887.69</ele>
        <time>2018-12-13T14:01:36Z</time>
      </trkpt>
      <trkpt lat="45.89043" lon="6.45715">
        <ele>1891.05</ele>
        <time>2018-12-13T14:01:49Z</time>
      </trkpt>
      <trkpt lat="45.89045" lon="6.45728">
        <ele>1894.42</ele>
        <time>2018-12-13T14:02:01Z</time>
      </trkpt>
      <trkpt lat="45.89046" lon="6.45743">
        <ele>1897.3</ele>
        <time>2018-12-13T14:02:14Z</time>
      </trkpt>
      <trkpt lat="45.89046" lon="6.45747">
        <ele>1898.74</ele>
        <time>2018-12-13T14:02:18Z</time>
      </trkpt>
      <trkpt lat="45.89047" lon="6.45752">
        <ele>1900.18</ele>
        <time>2018-12-13T14:02:23Z</time>
      </trkpt>
      <trkpt lat="45.89048" lon="6.45759">
        <ele>1902.11</ele>
        <time>2018-12-13T14:02:30Z</time>
      </trkpt>
      <trkpt lat="45.89051" lon="6.45769">
        <ele>1904.99</ele>
        <time>2018-12-13T14:02:42Z</time>
      </trkpt>
      <trkpt lat="45.89054" lon="6.45782">
        <ele>1908.35</ele>
        <time>2018-12-13T14:02:55Z</time>
      </trkpt>
      <trkpt lat="45.89055" lon="6.45795">
        <ele>1911.72</ele>
        <time>2018-12-13T14:03:08Z</time>
      </trkpt>
      <trkpt lat="45.89057" lon="6.45809">
        <ele>1914.6</ele>
        <time>2018-12-13T14:03:21Z</time>
      </trkpt>
      <trkpt lat="45.89059" lon="6.45816">
        <ele>1916.53</ele>
        <time>2018-12-13T14:03:28Z</time>
      </trkpt>
      <trkpt lat="45.89059" lon="6.4582">
        <ele>1917.01</ele>
        <time>2018-12-13T14:03:31Z</time>
      </trkpt>
      <trkpt lat="45.89059" lon="6.45839">
        <ele>1920.37</ele>
        <time>2018-12-13T14:03:48Z</time>
      </trkpt>
      <trkpt lat="45.89062" lon="6.45859">
        <ele>1923.25</ele>
        <time>2018-12-13T14:04:05Z</time>
      </trkpt>
      <trkpt lat="45.89061" lon="6.45877">
        <ele>1926.62</ele>
        <time>2018-12-13T14:04:19Z</time>
      </trkpt>
      <trkpt lat="45.89059" lon="6.45904">
        <ele>1929.5</ele>
        <time>2018-12-13T14:04:39Z</time>
      </trkpt>
      <trkpt lat="45.8906" lon="6.45905">
        <ele>1929.5</ele>
        <time>2018-12-13T14:04:40Z</time>
      </trkpt>
      <trkpt lat="45.89059" lon="6.45906">
        <ele>1929.5</ele>
        <time>2018-12-13T14:04:41Z</time>
      </trkpt>
      <trkpt lat="45.89059" lon="6.45908">
        <ele>1929.98</ele>
        <time>2018-12-13T14:04:42Z</time>
      </trkpt>
      <trkpt lat="45.89059" lon="6.45909">
        <ele>1929.98</ele>
        <time>2018-12-13T14:04:43Z</time>
      </trkpt>
      <trkpt lat="45.89059" lon="6.45911">
        <ele>1929.98</ele>
        <time>2018-12-13T14:04:44Z</time>
      </trkpt>
      <trkpt lat="45.89059" lon="6.45912">
        <ele>1929.98</ele>
        <time>2018-12-13T14:04:45Z</time>
      </trkpt>
      <trkpt lat="45.89057" lon="6.45931">
        <ele>1933.35</ele>
        <time>2018-12-13T14:05:49Z</time>
      </trkpt>
      <trkpt lat="45.89056" lon="6.45951">
        <ele>1933.83</ele>
        <time>2018-12-13T14:06:03Z</time>
      </trkpt>
      <trkpt lat="45.89056" lon="6.45956">
        <ele>1934.79</ele>
        <time>2018-12-13T14:06:07Z</time>
      </trkpt>
      <trkpt lat="45.89056" lon="6.45957">
        <ele>1934.79</ele>
        <time>2018-12-13T14:06:08Z</time>
      </trkpt>
      <trkpt lat="45.89054" lon="6.45978">
        <ele>1937.67</ele>
        <time>2018-12-13T14:06:26Z</time>
      </trkpt>
      <trkpt lat="45.89054" lon="6.4598">
        <ele>1938.16</ele>
        <time>2018-12-13T14:06:27Z</time>
      </trkpt>
      <trkpt lat="45.89054" lon="6.45993">
        <ele>1941.52</ele>
        <time>2018-12-13T14:06:42Z</time>
      </trkpt>
      <trkpt lat="45.89055" lon="6.46004">
        <ele>1944.4</ele>
        <time>2018-12-13T14:06:55Z</time>
      </trkpt>
      <trkpt lat="45.89056" lon="6.46011">
        <ele>1947.29</ele>
        <time>2018-12-13T14:07:06Z</time>
      </trkpt>
      <trkpt lat="45.89058" lon="6.46021">
        <ele>1950.17</ele>
        <time>2018-12-13T14:07:18Z</time>
      </trkpt>
      <trkpt lat="45.89058" lon="6.46034">
        <ele>1953.54</ele>
        <time>2018-12-13T14:07:33Z</time>
      </trkpt>
      <trkpt lat="45.89065" lon="6.46031">
        <ele>1956.42</ele>
        <time>2018-12-13T14:07:46Z</time>
      </trkpt>
      <trkpt lat="45.89068" lon="6.46042">
        <ele>1958.82</ele>
        <time>2018-12-13T14:08:01Z</time>
      </trkpt>
      <trkpt lat="45.89065" lon="6.46056">
        <ele>1962.19</ele>
        <time>2018-12-13T14:08:17Z</time>
      </trkpt>
      <trkpt lat="45.8906" lon="6.4607">
        <ele>1965.07</ele>
        <time>2018-12-13T14:08:31Z</time>
      </trkpt>
      <trkpt lat="45.89059" lon="6.46072">
        <ele>1966.03</ele>
        <time>2018-12-13T14:08:33Z</time>
      </trkpt>
      <trkpt lat="45.89059" lon="6.46075">
        <ele>1966.03</ele>
        <time>2018-12-13T14:08:35Z</time>
      </trkpt>
      <trkpt lat="45.89053" lon="6.46093">
        <ele>1969.4</ele>
        <time>2018-12-13T14:08:54Z</time>
      </trkpt>
      <trkpt lat="45.89061" lon="6.46096">
        <ele>1972.28</ele>
        <time>2018-12-13T14:09:10Z</time>
      </trkpt>
      <trkpt lat="45.89064" lon="6.46095">
        <ele>1972.76</ele>
        <time>2018-12-13T14:09:13Z</time>
      </trkpt>
      <trkpt lat="45.89066" lon="6.46094">
        <ele>1973.72</ele>
        <time>2018-12-13T14:09:16Z</time>
      </trkpt>
      <trkpt lat="45.89071" lon="6.46094">
        <ele>1974.69</ele>
        <time>2018-12-13T14:09:22Z</time>
      </trkpt>
      <trkpt lat="45.89069" lon="6.46097">
        <ele>1975.65</ele>
        <time>2018-12-13T14:09:26Z</time>
      </trkpt>
      <trkpt lat="45.89069" lon="6.46098">
        <ele>1975.65</ele>
        <time>2018-12-13T14:09:27Z</time>
      </trkpt>
      <trkpt lat="45.89075" lon="6.46103">
        <ele>1978.53</ele>
        <time>2018-12-13T14:09:43Z</time>
      </trkpt>
      <trkpt lat="45.89081" lon="6.46102">
        <ele>1979.97</ele>
        <time>2018-12-13T14:09:50Z</time>
      </trkpt>
      <trkpt lat="45.89088" lon="6.46101">
        <ele>1983.34</ele>
        <time>2018-12-13T14:10:01Z</time>
      </trkpt>
      <trkpt lat="45.89087" lon="6.46105">
        <ele>1984.78</ele>
        <time>2018-12-13T14:10:10Z</time>
      </trkpt>
      <trkpt lat="45.89086" lon="6.46106">
        <ele>1985.26</ele>
        <time>2018-12-13T14:10:11Z</time>
      </trkpt>
      <trkpt lat="45.89083" lon="6.46112">
        <ele>1986.22</ele>
        <time>2018-12-13T14:10:18Z</time>
      </trkpt>
      <trkpt lat="45.89082" lon="6.46113">
        <ele>1986.7</ele>
        <time>2018-12-13T14:10:19Z</time>
      </trkpt>
      <trkpt lat="45.89074" lon="6.46136">
        <ele>1989.59</ele>
        <time>2018-12-13T14:10:43Z</time>
      </trkpt>
      <trkpt lat="45.89071" lon="6.46145">
        <ele>1991.99</ele>
        <time>2018-12-13T14:10:55Z</time>
      </trkpt>
      <trkpt lat="45.89066" lon="6.46153">
        <ele>1993.91</ele>
        <time>2018-12-13T14:11:06Z</time>
      </trkpt>
      <trkpt lat="45.89061" lon="6.46165">
        <ele>1996.8</ele>
        <time>2018-12-13T14:11:21Z</time>
      </trkpt>
      <trkpt lat="45.89055" lon="6.46174">
        <ele>1997.28</ele>
        <time>2018-12-13T14:11:39Z</time>
      </trkpt>
      <trkpt lat="45.89053" lon="6.46173">
        <ele>1996.8</ele>
        <time>2018-12-13T14:12:09Z</time>
      </trkpt>
      <trkpt lat="45.89052" lon="6.46169">
        <ele>1996.8</ele>
        <time>2018-12-13T14:12:18Z</time>
      </trkpt>
      <trkpt lat="45.89052" lon="6.46166">
        <ele>1996.8</ele>
        <time>2018-12-13T14:12:19Z</time>
      </trkpt>
      <trkpt lat="45.8905" lon="6.4616">
        <ele>1995.83</ele>
        <time>2018-12-13T14:12:20Z</time>
      </trkpt>
      <trkpt lat="45.89049" lon="6.46154">
        <ele>1994.87</ele>
        <time>2018-12-13T14:12:21Z</time>
      </trkpt>
      <trkpt lat="45.89048" lon="6.46151">
        <ele>1993.43</ele>
        <time>2018-12-13T14:12:22Z</time>
      </trkpt>
      <trkpt lat="45.89049" lon="6.4615">
        <ele>1990.07</ele>
        <time>2018-12-13T14:12:24Z</time>
      </trkpt>
      <trkpt lat="45.89049" lon="6.46149">
        <ele>1989.1</ele>
        <time>2018-12-13T14:12:26Z</time>
      </trkpt>
      <trkpt lat="45.89049" lon="6.46147">
        <ele>1989.1</ele>
        <time>2018-12-13T14:12:35Z</time>
      </trkpt>
      <trkpt lat="45.89056" lon="6.46149">
        <ele>1990.55</ele>
        <time>2018-12-13T14:12:44Z</time>
      </trkpt>
      <trkpt lat="45.89066" lon="6.46153">
        <ele>1993.91</ele>
        <time>2018-12-13T14:12:58Z</time>
      </trkpt>
      <trkpt lat="45.89064" lon="6.46157">
        <ele>1994.39</ele>
        <time>2018-12-13T14:13:01Z</time>
      </trkpt>
      <trkpt lat="45.89064" lon="6.46158">
        <ele>1994.87</ele>
        <time>2018-12-13T14:13:02Z</time>
      </trkpt>
      <trkpt lat="45.89068" lon="6.46162">
        <ele>1997.76</ele>
        <time>2018-12-13T14:13:13Z</time>
      </trkpt>
      <trkpt lat="45.89069" lon="6.46162">
        <ele>1998.24</ele>
        <time>2018-12-13T14:13:14Z</time>
      </trkpt>
      <trkpt lat="45.89074" lon="6.46164">
        <ele>1999.68</ele>
        <time>2018-12-13T14:13:20Z</time>
      </trkpt>
      <trkpt lat="45.89075" lon="6.46164">
        <ele>2000.16</ele>
        <time>2018-12-13T14:13:21Z</time>
      </trkpt>
      <trkpt lat="45.89083" lon="6.46162">
        <ele>2003.04</ele>
        <time>2018-12-13T14:13:31Z</time>
      </trkpt>
      <trkpt lat="45.89087" lon="6.4617">
        <ele>2005.45</ele>
        <time>2018-12-13T14:13:44Z</time>
      </trkpt>
      <trkpt lat="45.89086" lon="6.46171">
        <ele>2005.93</ele>
        <time>2018-12-13T14:13:45Z</time>
      </trkpt>
      <trkpt lat="45.89085" lon="6.46172">
        <ele>2005.93</ele>
        <time>2018-12-13T14:13:46Z</time>
      </trkpt>
      <trkpt lat="45.89081" lon="6.46183">
        <ele>2008.33</ele>
        <time>2018-12-13T14:13:57Z</time>
      </trkpt>
      <trkpt lat="45.89081" lon="6.46192">
        <ele>2012.18</ele>
        <time>2018-12-13T14:14:14Z</time>
      </trkpt>
      <trkpt lat="45.89087" lon="6.46193">
        <ele>2014.58</ele>
        <time>2018-12-13T14:14:22Z</time>
      </trkpt>
      <trkpt lat="45.89089" lon="6.46208">
        <ele>2017.46</ele>
        <time>2018-12-13T14:14:42Z</time>
      </trkpt>
      <trkpt lat="45.89085" lon="6.46215">
        <ele>2018.43</ele>
        <time>2018-12-13T14:14:51Z</time>
      </trkpt>
      <trkpt lat="45.89083" lon="6.46223">
        <ele>2020.35</ele>
        <time>2018-12-13T14:15:02Z</time>
      </trkpt>
      <trkpt lat="45.8908" lon="6.46234">
        <ele>2023.71</ele>
        <time>2018-12-13T14:15:14Z</time>
      </trkpt>
      <trkpt lat="45.89079" lon="6.46246">
        <ele>2026.6</ele>
        <time>2018-12-13T14:15:26Z</time>
      </trkpt>
      <trkpt lat="45.89076" lon="6.46252">
        <ele>2028.52</ele>
        <time>2018-12-13T14:15:36Z</time>
      </trkpt>
      <trkpt lat="45.89076" lon="6.4626">
        <ele>2031.4</ele>
        <time>2018-12-13T14:15:50Z</time>
      </trkpt>
      <trkpt lat="45.8908" lon="6.4626">
        <ele>2032.36</ele>
        <time>2018-12-13T14:15:55Z</time>
      </trkpt>
      <trkpt lat="45.89082" lon="6.46261">
        <ele>2032.84</ele>
        <time>2018-12-13T14:15:57Z</time>
      </trkpt>
      <trkpt lat="45.89084" lon="6.46266">
        <ele>2036.21</ele>
        <time>2018-12-13T14:16:18Z</time>
      </trkpt>
      <trkpt lat="45.89084" lon="6.46274">
        <ele>2039.09</ele>
        <time>2018-12-13T14:16:27Z</time>
      </trkpt>
      <trkpt lat="45.89084" lon="6.46275">
        <ele>2039.09</ele>
        <time>2018-12-13T14:16:28Z</time>
      </trkpt>
      <trkpt lat="45.8908" lon="6.46291">
        <ele>2041.98</ele>
        <time>2018-12-13T14:16:43Z</time>
      </trkpt>
      <trkpt lat="45.89077" lon="6.46295">
        <ele>2043.42</ele>
        <time>2018-12-13T14:16:48Z</time>
      </trkpt>
      <trkpt lat="45.89074" lon="6.46301">
        <ele>2044.38</ele>
        <time>2018-12-13T14:16:55Z</time>
      </trkpt>
      <trkpt lat="45.89072" lon="6.46303">
        <ele>2044.86</ele>
        <time>2018-12-13T14:16:58Z</time>
      </trkpt>
      <trkpt lat="45.89068" lon="6.46309">
        <ele>2047.26</ele>
        <time>2018-12-13T14:17:05Z</time>
      </trkpt>
      <trkpt lat="45.89067" lon="6.46311">
        <ele>2047.75</ele>
        <time>2018-12-13T14:17:07Z</time>
      </trkpt>
      <trkpt lat="45.89066" lon="6.46313">
        <ele>2048.23</ele>
        <time>2018-12-13T14:17:09Z</time>
      </trkpt>
      <trkpt lat="45.89066" lon="6.46314">
        <ele>2048.23</ele>
        <time>2018-12-13T14:17:10Z</time>
      </trkpt>
      <trkpt lat="45.89062" lon="6.46334">
        <ele>2051.11</ele>
        <time>2018-12-13T14:17:26Z</time>
      </trkpt>
      <trkpt lat="45.89055" lon="6.46352">
        <ele>2053.99</ele>
        <time>2018-12-13T14:17:45Z</time>
      </trkpt>
      <trkpt lat="45.89049" lon="6.46365">
        <ele>2057.36</ele>
        <time>2018-12-13T14:18:00Z</time>
      </trkpt>
      <trkpt lat="45.89041" lon="6.46374">
        <ele>2060.72</ele>
        <time>2018-12-13T14:18:13Z</time>
      </trkpt>
      <trkpt lat="45.89035" lon="6.46384">
        <ele>2064.09</ele>
        <time>2018-12-13T14:18:26Z</time>
      </trkpt>
      <trkpt lat="45.8903" lon="6.46392">
        <ele>2066.97</ele>
        <time>2018-12-13T14:18:40Z</time>
      </trkpt>
      <trkpt lat="45.89032" lon="6.46394">
        <ele>2067.93</ele>
        <time>2018-12-13T14:18:44Z</time>
      </trkpt>
      <trkpt lat="45.89035" lon="6.46398">
        <ele>2068.89</ele>
        <time>2018-12-13T14:18:49Z</time>
      </trkpt>
      <trkpt lat="45.89039" lon="6.46404">
        <ele>2070.82</ele>
        <time>2018-12-13T14:18:58Z</time>
      </trkpt>
      <trkpt lat="45.89041" lon="6.46407">
        <ele>2072.26</ele>
        <time>2018-12-13T14:19:02Z</time>
      </trkpt>
      <trkpt lat="45.89041" lon="6.46408">
        <ele>2072.74</ele>
        <time>2018-12-13T14:19:03Z</time>
      </trkpt>
      <trkpt lat="45.89043" lon="6.46409">
        <ele>2073.7</ele>
        <time>2018-12-13T14:19:05Z</time>
      </trkpt>
      <trkpt lat="45.89043" lon="6.46411">
        <ele>2074.66</ele>
        <time>2018-12-13T14:19:07Z</time>
      </trkpt>
      <trkpt lat="45.89045" lon="6.46412">
        <ele>2075.14</ele>
        <time>2018-12-13T14:19:09Z</time>
      </trkpt>
      <trkpt lat="45.89046" lon="6.46413">
        <ele>2075.62</ele>
        <time>2018-12-13T14:19:11Z</time>
      </trkpt>
      <trkpt lat="45.89047" lon="6.46414">
        <ele>2075.62</ele>
        <time>2018-12-13T14:19:12Z</time>
      </trkpt>
      <trkpt lat="45.8905" lon="6.46418">
        <ele>2076.59</ele>
        <time>2018-12-13T14:19:18Z</time>
      </trkpt>
      <trkpt lat="45.89044" lon="6.46426">
        <ele>2078.03</ele>
        <time>2018-12-13T14:19:32Z</time>
      </trkpt>
      <trkpt lat="45.89041" lon="6.46428">
        <ele>2079.95</ele>
        <time>2018-12-13T14:19:36Z</time>
      </trkpt>
      <trkpt lat="45.89031" lon="6.46435">
        <ele>2083.31</ele>
        <time>2018-12-13T14:19:54Z</time>
      </trkpt>
      <trkpt lat="45.89025" lon="6.46438">
        <ele>2084.28</ele>
        <time>2018-12-13T14:20:03Z</time>
      </trkpt>
      <trkpt lat="45.89023" lon="6.46439">
        <ele>2084.76</ele>
        <time>2018-12-13T14:20:05Z</time>
      </trkpt>
      <trkpt lat="45.89016" lon="6.46446">
        <ele>2087.64</ele>
        <time>2018-12-13T14:20:20Z</time>
      </trkpt>
      <trkpt lat="45.89019" lon="6.46452">
        <ele>2089.08</ele>
        <time>2018-12-13T14:20:27Z</time>
      </trkpt>
      <trkpt lat="45.89024" lon="6.46458">
        <ele>2091.49</ele>
        <time>2018-12-13T14:20:36Z</time>
      </trkpt>
      <trkpt lat="45.89029" lon="6.46467">
        <ele>2094.37</ele>
        <time>2018-12-13T14:20:49Z</time>
      </trkpt>
      <trkpt lat="45.8903" lon="6.46469">
        <ele>2094.85</ele>
        <time>2018-12-13T14:20:51Z</time>
      </trkpt>
      <trkpt lat="45.89035" lon="6.4648">
        <ele>2098.21</ele>
        <time>2018-12-13T14:21:05Z</time>
      </trkpt>
      <trkpt lat="45.89036" lon="6.46482">
        <ele>2098.21</ele>
        <time>2018-12-13T14:21:06Z</time>
      </trkpt>
      <trkpt lat="45.89035" lon="6.46484">
        <ele>2100.14</ele>
        <time>2018-12-13T14:21:11Z</time>
      </trkpt>
      <trkpt lat="45.89023" lon="6.4649">
        <ele>2103.02</ele>
        <time>2018-12-13T14:21:31Z</time>
      </trkpt>
      <trkpt lat="45.89022" lon="6.46491">
        <ele>2103.98</ele>
        <time>2018-12-13T14:21:32Z</time>
      </trkpt>
      <trkpt lat="45.89015" lon="6.46496">
        <ele>2106.39</ele>
        <time>2018-12-13T14:21:45Z</time>
      </trkpt>
      <trkpt lat="45.89011" lon="6.46499">
        <ele>2107.35</ele>
        <time>2018-12-13T14:21:51Z</time>
      </trkpt>
      <trkpt lat="45.89009" lon="6.46506">
        <ele>2110.23</ele>
        <time>2018-12-13T14:22:07Z</time>
      </trkpt>
      <trkpt lat="45.89013" lon="6.46511">
        <ele>2112.15</ele>
        <time>2018-12-13T14:22:14Z</time>
      </trkpt>
      <trkpt lat="45.89018" lon="6.46518">
        <ele>2115.04</ele>
        <time>2018-12-13T14:22:25Z</time>
      </trkpt>
      <trkpt lat="45.89023" lon="6.46526">
        <ele>2118.4</ele>
        <time>2018-12-13T14:22:38Z</time>
      </trkpt>
      <trkpt lat="45.89027" lon="6.46532">
        <ele>2119.84</ele>
        <time>2018-12-13T14:22:46Z</time>
      </trkpt>
      <trkpt lat="45.8903" lon="6.46539">
        <ele>2122.25</ele>
        <time>2018-12-13T14:22:55Z</time>
      </trkpt>
      <trkpt lat="45.89021" lon="6.46547">
        <ele>2125.61</ele>
        <time>2018-12-13T14:23:15Z</time>
      </trkpt>
      <trkpt lat="45.89016" lon="6.4655">
        <ele>2126.57</ele>
        <time>2018-12-13T14:23:23Z</time>
      </trkpt>
      <trkpt lat="45.89013" lon="6.46552">
        <ele>2127.53</ele>
        <time>2018-12-13T14:23:27Z</time>
      </trkpt>
      <trkpt lat="45.89011" lon="6.46554">
        <ele>2128.5</ele>
        <time>2018-12-13T14:23:31Z</time>
      </trkpt>
      <trkpt lat="45.88998" lon="6.46561">
        <ele>2131.38</ele>
        <time>2018-12-13T14:23:53Z</time>
      </trkpt>
      <trkpt lat="45.88999" lon="6.46569">
        <ele>2134.26</ele>
        <time>2018-12-13T14:24:07Z</time>
      </trkpt>
      <trkpt lat="45.89004" lon="6.46578">
        <ele>2137.63</ele>
        <time>2018-12-13T14:24:19Z</time>
      </trkpt>
      <trkpt lat="45.89007" lon="6.46581">
        <ele>2138.59</ele>
        <time>2018-12-13T14:24:24Z</time>
      </trkpt>
      <trkpt lat="45.89008" lon="6.46583">
        <ele>2138.59</ele>
        <time>2018-12-13T14:24:26Z</time>
      </trkpt>
      <trkpt lat="45.89015" lon="6.46595">
        <ele>2141.95</ele>
        <time>2018-12-13T14:24:43Z</time>
      </trkpt>
      <trkpt lat="45.89018" lon="6.46601">
        <ele>2143.4</ele>
        <time>2018-12-13T14:24:51Z</time>
      </trkpt>
      <trkpt lat="45.89018" lon="6.46602">
        <ele>2143.88</ele>
        <time>2018-12-13T14:24:53Z</time>
      </trkpt>
      <trkpt lat="45.89019" lon="6.46604">
        <ele>2144.36</ele>
        <time>2018-12-13T14:24:55Z</time>
      </trkpt>
      <trkpt lat="45.89017" lon="6.46612">
        <ele>2147.72</ele>
        <time>2018-12-13T14:25:10Z</time>
      </trkpt>
      <trkpt lat="45.89007" lon="6.46619">
        <ele>2150.61</ele>
        <time>2018-12-13T14:25:26Z</time>
      </trkpt>
      <trkpt lat="45.88997" lon="6.46624">
        <ele>2153.97</ele>
        <time>2018-12-13T14:25:43Z</time>
      </trkpt>
      <trkpt lat="45.88987" lon="6.46629">
        <ele>2157.34</ele>
        <time>2018-12-13T14:26:00Z</time>
      </trkpt>
      <trkpt lat="45.88987" lon="6.46636">
        <ele>2160.22</ele>
        <time>2018-12-13T14:26:17Z</time>
      </trkpt>
      <trkpt lat="45.88988" lon="6.46639">
        <ele>2161.18</ele>
        <time>2018-12-13T14:26:21Z</time>
      </trkpt>
      <trkpt lat="45.88993" lon="6.46651">
        <ele>2164.55</ele>
        <time>2018-12-13T14:26:35Z</time>
      </trkpt>
      <trkpt lat="45.88998" lon="6.46661">
        <ele>2167.43</ele>
        <time>2018-12-13T14:26:48Z</time>
      </trkpt>
      <trkpt lat="45.88999" lon="6.46663">
        <ele>2167.43</ele>
        <time>2018-12-13T14:26:49Z</time>
      </trkpt>
      <trkpt lat="45.89" lon="6.46665">
        <ele>2168.39</ele>
        <time>2018-12-13T14:26:53Z</time>
      </trkpt>
      <trkpt lat="45.89006" lon="6.46674">
        <ele>2171.27</ele>
        <time>2018-12-13T14:27:06Z</time>
      </trkpt>
      <trkpt lat="45.89007" lon="6.46675">
        <ele>2171.76</ele>
        <time>2018-12-13T14:27:08Z</time>
      </trkpt>
      <trkpt lat="45.89001" lon="6.46681">
        <ele>2174.16</ele>
        <time>2018-12-13T14:27:23Z</time>
      </trkpt>
      <trkpt lat="45.88988" lon="6.46686">
        <ele>2177.52</ele>
        <time>2018-12-13T14:27:41Z</time>
      </trkpt>
      <trkpt lat="45.88977" lon="6.46688">
        <ele>2180.41</ele>
        <time>2018-12-13T14:27:58Z</time>
      </trkpt>
      <trkpt lat="45.88969" lon="6.4669">
        <ele>2183.77</ele>
        <time>2018-12-13T14:28:11Z</time>
      </trkpt>
      <trkpt lat="45.8897" lon="6.46694">
        <ele>2186.18</ele>
        <time>2018-12-13T14:28:20Z</time>
      </trkpt>
      <trkpt lat="45.88975" lon="6.46707">
        <ele>2189.06</ele>
        <time>2018-12-13T14:28:38Z</time>
      </trkpt>
      <trkpt lat="45.8898" lon="6.46718">
        <ele>2192.42</ele>
        <time>2018-12-13T14:28:54Z</time>
      </trkpt>
      <trkpt lat="45.88982" lon="6.46726">
        <ele>2193.87</ele>
        <time>2018-12-13T14:29:04Z</time>
      </trkpt>
      <trkpt lat="45.88972" lon="6.4673">
        <ele>2197.23</ele>
        <time>2018-12-13T14:29:22Z</time>
      </trkpt>
      <trkpt lat="45.88962" lon="6.46732">
        <ele>2200.11</ele>
        <time>2018-12-13T14:29:37Z</time>
      </trkpt>
      <trkpt lat="45.88955" lon="6.46738">
        <ele>2203</ele>
        <time>2018-12-13T14:29:54Z</time>
      </trkpt>
      <trkpt lat="45.88957" lon="6.4674">
        <ele>2203.96</ele>
        <time>2018-12-13T14:29:56Z</time>
      </trkpt>
      <trkpt lat="45.88963" lon="6.46751">
        <ele>2206.36</ele>
        <time>2018-12-13T14:30:11Z</time>
      </trkpt>
      <trkpt lat="45.88961" lon="6.4676">
        <ele>2210.21</ele>
        <time>2018-12-13T14:30:26Z</time>
      </trkpt>
      <trkpt lat="45.88958" lon="6.46762">
        <ele>2210.69</ele>
        <time>2018-12-13T14:30:30Z</time>
      </trkpt>
      <trkpt lat="45.88957" lon="6.46762">
        <ele>2210.69</ele>
        <time>2018-12-13T14:30:32Z</time>
      </trkpt>
      <trkpt lat="45.88951" lon="6.46767">
        <ele>2213.57</ele>
        <time>2018-12-13T14:30:43Z</time>
      </trkpt>
      <trkpt lat="45.8895" lon="6.46768">
        <ele>2214.53</ele>
        <time>2018-12-13T14:30:45Z</time>
      </trkpt>
      <trkpt lat="45.88949" lon="6.46769">
        <ele>2214.53</ele>
        <time>2018-12-13T14:30:47Z</time>
      </trkpt>
      <trkpt lat="45.88944" lon="6.4678">
        <ele>2217.42</ele>
        <time>2018-12-13T14:31:03Z</time>
      </trkpt>
      <trkpt lat="45.88941" lon="6.46795">
        <ele>2220.3</ele>
        <time>2018-12-13T14:31:22Z</time>
      </trkpt>
      <trkpt lat="45.88937" lon="6.46807">
        <ele>2223.19</ele>
        <time>2018-12-13T14:31:35Z</time>
      </trkpt>
      <trkpt lat="45.88936" lon="6.46809">
        <ele>2226.07</ele>
        <time>2018-12-13T14:31:41Z</time>
      </trkpt>
      <trkpt lat="45.88934" lon="6.46814">
        <ele>2225.11</ele>
        <time>2018-12-13T14:32:31Z</time>
      </trkpt>
      <trkpt lat="45.8893" lon="6.46823">
        <ele>2228.47</ele>
        <time>2018-12-13T14:32:42Z</time>
      </trkpt>
      <trkpt lat="45.88929" lon="6.46824">
        <ele>2228.95</ele>
        <time>2018-12-13T14:32:44Z</time>
      </trkpt>
      <trkpt lat="45.88925" lon="6.46834">
        <ele>2231.84</ele>
        <time>2018-12-13T14:32:56Z</time>
      </trkpt>
      <trkpt lat="45.88924" lon="6.46839">
        <ele>2233.28</ele>
        <time>2018-12-13T14:33:01Z</time>
      </trkpt>
      <trkpt lat="45.8892" lon="6.46847">
        <ele>2236.16</ele>
        <time>2018-12-13T14:33:12Z</time>
      </trkpt>
      <trkpt lat="45.88917" lon="6.46855">
        <ele>2239.53</ele>
        <time>2018-12-13T14:33:24Z</time>
      </trkpt>
      <trkpt lat="45.88919" lon="6.46865">
        <ele>2242.89</ele>
        <time>2018-12-13T14:33:38Z</time>
      </trkpt>
      <trkpt lat="45.88919" lon="6.46874">
        <ele>2245.78</ele>
        <time>2018-12-13T14:33:52Z</time>
      </trkpt>
      <trkpt lat="45.88912" lon="6.46881">
        <ele>2249.14</ele>
        <time>2018-12-13T14:34:06Z</time>
      </trkpt>
      <trkpt lat="45.88909" lon="6.46885">
        <ele>2251.06</ele>
        <time>2018-12-13T14:34:14Z</time>
      </trkpt>
      <trkpt lat="45.88907" lon="6.46888">
        <ele>2254.43</ele>
        <time>2018-12-13T14:34:24Z</time>
      </trkpt>
      <trkpt lat="45.88908" lon="6.4689">
        <ele>2255.87</ele>
        <time>2018-12-13T14:34:26Z</time>
      </trkpt>
      <trkpt lat="45.88908" lon="6.46891">
        <ele>2256.35</ele>
        <time>2018-12-13T14:34:27Z</time>
      </trkpt>
      <trkpt lat="45.88908" lon="6.46892">
        <ele>2255.87</ele>
        <time>2018-12-13T14:34:28Z</time>
      </trkpt>
      <trkpt lat="45.88909" lon="6.46898">
        <ele>2256.35</ele>
        <time>2018-12-13T14:34:35Z</time>
      </trkpt>
      <trkpt lat="45.88913" lon="6.46908">
        <ele>2258.75</ele>
        <time>2018-12-13T14:34:49Z</time>
      </trkpt>
      <trkpt lat="45.88906" lon="6.46914">
        <ele>2261.64</ele>
        <time>2018-12-13T14:35:05Z</time>
      </trkpt>
      <trkpt lat="45.889" lon="6.46916">
        <ele>2262.6</ele>
        <time>2018-12-13T14:35:13Z</time>
      </trkpt>
      <trkpt lat="45.88892" lon="6.46917">
        <ele>2265.48</ele>
        <time>2018-12-13T14:35:26Z</time>
      </trkpt>
      <trkpt lat="45.88889" lon="6.46921">
        <ele>2268.37</ele>
        <time>2018-12-13T14:35:38Z</time>
      </trkpt>
      <trkpt lat="45.88889" lon="6.46923">
        <ele>2269.33</ele>
        <time>2018-12-13T14:35:40Z</time>
      </trkpt>
      <trkpt lat="45.88893" lon="6.4693">
        <ele>2269.81</ele>
        <time>2018-12-13T14:35:49Z</time>
      </trkpt>
      <trkpt lat="45.88895" lon="6.46941">
        <ele>2272.69</ele>
        <time>2018-12-13T14:36:03Z</time>
      </trkpt>
      <trkpt lat="45.88891" lon="6.46943">
        <ele>2273.66</ele>
        <time>2018-12-13T14:36:12Z</time>
      </trkpt>
      <trkpt lat="45.88882" lon="6.46945">
        <ele>2277.02</ele>
        <time>2018-12-13T14:36:28Z</time>
      </trkpt>
      <trkpt lat="45.88878" lon="6.46945">
        <ele>2278.94</ele>
        <time>2018-12-13T14:36:33Z</time>
      </trkpt>
      <trkpt lat="45.88879" lon="6.46955">
        <ele>2281.83</ele>
        <time>2018-12-13T14:36:46Z</time>
      </trkpt>
      <trkpt lat="45.88879" lon="6.46961">
        <ele>2282.79</ele>
        <time>2018-12-13T14:36:52Z</time>
      </trkpt>
      <trkpt lat="45.88879" lon="6.46965">
        <ele>2283.27</ele>
        <time>2018-12-13T14:36:56Z</time>
      </trkpt>
      <trkpt lat="45.88873" lon="6.46983">
        <ele>2286.63</ele>
        <time>2018-12-13T14:37:13Z</time>
      </trkpt>
      <trkpt lat="45.8887" lon="6.46991">
        <ele>2286.63</ele>
        <time>2018-12-13T14:37:19Z</time>
      </trkpt>
      <trkpt lat="45.8887" lon="6.46993">
        <ele>2286.63</ele>
        <time>2018-12-13T14:37:20Z</time>
      </trkpt>
      <trkpt lat="45.88865" lon="6.47008">
        <ele>2290</ele>
        <time>2018-12-13T14:37:38Z</time>
      </trkpt>
      <trkpt lat="45.88863" lon="6.47012">
        <ele>2290</ele>
        <time>2018-12-13T14:37:42Z</time>
      </trkpt>
      <trkpt lat="45.88858" lon="6.47023">
        <ele>2293.36</ele>
        <time>2018-12-13T14:37:56Z</time>
      </trkpt>
      <trkpt lat="45.88856" lon="6.4703">
        <ele>2294.32</ele>
        <time>2018-12-13T14:38:04Z</time>
      </trkpt>
      <trkpt lat="45.88861" lon="6.47041">
        <ele>2297.69</ele>
        <time>2018-12-13T14:38:19Z</time>
      </trkpt>
      <trkpt lat="45.88861" lon="6.47044">
        <ele>2298.17</ele>
        <time>2018-12-13T14:38:22Z</time>
      </trkpt>
      <trkpt lat="45.88862" lon="6.47057">
        <ele>2301.05</ele>
        <time>2018-12-13T14:38:43Z</time>
      </trkpt>
      <trkpt lat="45.88862" lon="6.47069">
        <ele>2304.42</ele>
        <time>2018-12-13T14:38:58Z</time>
      </trkpt>
      <trkpt lat="45.88861" lon="6.47082">
        <ele>2307.3</ele>
        <time>2018-12-13T14:39:13Z</time>
      </trkpt>
      <trkpt lat="45.88862" lon="6.47096">
        <ele>2310.67</ele>
        <time>2018-12-13T14:39:29Z</time>
      </trkpt>
      <trkpt lat="45.88861" lon="6.47108">
        <ele>2313.55</ele>
        <time>2018-12-13T14:39:44Z</time>
      </trkpt>
      <trkpt lat="45.88861" lon="6.47119">
        <ele>2316.91</ele>
        <time>2018-12-13T14:39:58Z</time>
      </trkpt>
      <trkpt lat="45.88861" lon="6.47132">
        <ele>2319.32</ele>
        <time>2018-12-13T14:40:11Z</time>
      </trkpt>
      <trkpt lat="45.88858" lon="6.47144">
        <ele>2322.2</ele>
        <time>2018-12-13T14:40:28Z</time>
      </trkpt>
      <trkpt lat="45.8886" lon="6.47147">
        <ele>2325.57</ele>
        <time>2018-12-13T14:40:46Z</time>
      </trkpt>
      <trkpt lat="45.88869" lon="6.47145">
        <ele>2327.01</ele>
        <time>2018-12-13T14:40:59Z</time>
      </trkpt>
      <trkpt lat="45.88882" lon="6.47139">
        <ele>2330.37</ele>
        <time>2018-12-13T14:41:16Z</time>
      </trkpt>
      <trkpt lat="45.8889" lon="6.47133">
        <ele>2333.26</ele>
        <time>2018-12-13T14:41:31Z</time>
      </trkpt>
      <trkpt lat="45.88896" lon="6.47128">
        <ele>2336.62</ele>
        <time>2018-12-13T14:41:44Z</time>
      </trkpt>
      <trkpt lat="45.88902" lon="6.47121">
        <ele>2339.51</ele>
        <time>2018-12-13T14:41:56Z</time>
      </trkpt>
      <trkpt lat="45.88909" lon="6.47109">
        <ele>2342.87</ele>
        <time>2018-12-13T14:42:14Z</time>
      </trkpt>
      <trkpt lat="45.88914" lon="6.47104">
        <ele>2345.75</ele>
        <time>2018-12-13T14:42:25Z</time>
      </trkpt>
      <trkpt lat="45.88922" lon="6.47099">
        <ele>2348.16</ele>
        <time>2018-12-13T14:42:43Z</time>
      </trkpt>
      <trkpt lat="45.88931" lon="6.47092">
        <ele>2351.04</ele>
        <time>2018-12-13T14:42:59Z</time>
      </trkpt>
      <trkpt lat="45.88935" lon="6.47091">
        <ele>2352.96</ele>
        <time>2018-12-13T14:43:06Z</time>
      </trkpt>
      <trkpt lat="45.88949" lon="6.471">
        <ele>2355.85</ele>
        <time>2018-12-13T14:43:31Z</time>
      </trkpt>
      <trkpt lat="45.88956" lon="6.47099">
        <ele>2359.21</ele>
        <time>2018-12-13T14:43:43Z</time>
      </trkpt>
      <trkpt lat="45.88961" lon="6.471">
        <ele>2359.69</ele>
        <time>2018-12-13T14:44:45Z</time>
      </trkpt>
      <trkpt lat="45.8896" lon="6.47099">
        <ele>2361.62</ele>
        <time>2018-12-13T14:45:03Z</time>
      </trkpt>
      <trkpt lat="45.8896" lon="6.471">
        <ele>2359.69</ele>
        <time>2018-12-13T14:45:23Z</time>
      </trkpt>
      <trkpt lat="45.88961" lon="6.47102">
        <ele>2359.21</ele>
        <time>2018-12-13T14:45:44Z</time>
      </trkpt>
      <trkpt lat="45.88961" lon="6.471">
        <ele>2361.14</ele>
        <time>2018-12-13T14:46:00Z</time>
      </trkpt>
      <trkpt lat="45.8896" lon="6.47098">
        <ele>2359.69</ele>
        <time>2018-12-13T14:51:32Z</time>
      </trkpt>
      <trkpt lat="45.88957" lon="6.47096">
        <ele>2359.69</ele>
        <time>2018-12-13T14:51:36Z</time>
      </trkpt>
      <trkpt lat="45.88956" lon="6.47096">
        <ele>2359.21</ele>
        <time>2018-12-13T14:51:37Z</time>
      </trkpt>
      <trkpt lat="45.88955" lon="6.47095">
        <ele>2357.77</ele>
        <time>2018-12-13T14:51:38Z</time>
      </trkpt>
      <trkpt lat="45.88953" lon="6.47095">
        <ele>2356.81</ele>
        <time>2018-12-13T14:51:39Z</time>
      </trkpt>
      <trkpt lat="45.88951" lon="6.47095">
        <ele>2355.37</ele>
        <time>2018-12-13T14:51:40Z</time>
      </trkpt>
      <trkpt lat="45.88948" lon="6.47092">
        <ele>2353.93</ele>
        <time>2018-12-13T14:51:42Z</time>
      </trkpt>
      <trkpt lat="45.88948" lon="6.47089">
        <ele>2352.96</ele>
        <time>2018-12-13T14:51:43Z</time>
      </trkpt>
      <trkpt lat="45.8895" lon="6.47086">
        <ele>2352.48</ele>
        <time>2018-12-13T14:51:44Z</time>
      </trkpt>
      <trkpt lat="45.88951" lon="6.47081">
        <ele>2349.6</ele>
        <time>2018-12-13T14:51:46Z</time>
      </trkpt>
      <trkpt lat="45.88953" lon="6.47078">
        <ele>2347.68</ele>
        <time>2018-12-13T14:51:47Z</time>
      </trkpt>
      <trkpt lat="45.88954" lon="6.47072">
        <ele>2344.79</ele>
        <time>2018-12-13T14:51:49Z</time>
      </trkpt>
      <trkpt lat="45.88952" lon="6.4707">
        <ele>2342.87</ele>
        <time>2018-12-13T14:51:50Z</time>
      </trkpt>
      <trkpt lat="45.88952" lon="6.47067">
        <ele>2341.43</ele>
        <time>2018-12-13T14:51:51Z</time>
      </trkpt>
      <trkpt lat="45.88952" lon="6.47063">
        <ele>2339.99</ele>
        <time>2018-12-13T14:51:52Z</time>
      </trkpt>
      <trkpt lat="45.88951" lon="6.4706">
        <ele>2339.02</ele>
        <time>2018-12-13T14:51:53Z</time>
      </trkpt>
      <trkpt lat="45.8895" lon="6.47056">
        <ele>2336.62</ele>
        <time>2018-12-13T14:51:54Z</time>
      </trkpt>
      <trkpt lat="45.88951" lon="6.47053">
        <ele>2334.7</ele>
        <time>2018-12-13T14:51:55Z</time>
      </trkpt>
      <trkpt lat="45.88952" lon="6.4705">
        <ele>2333.74</ele>
        <time>2018-12-13T14:51:56Z</time>
      </trkpt>
      <trkpt lat="45.88953" lon="6.47047">
        <ele>2332.78</ele>
        <time>2018-12-13T14:51:57Z</time>
      </trkpt>
      <trkpt lat="45.88953" lon="6.47046">
        <ele>2331.81</ele>
        <time>2018-12-13T14:51:58Z</time>
      </trkpt>
      <trkpt lat="45.88951" lon="6.47044">
        <ele>2329.89</ele>
        <time>2018-12-13T14:51:59Z</time>
      </trkpt>
      <trkpt lat="45.88951" lon="6.47041">
        <ele>2328.93</ele>
        <time>2018-12-13T14:52:00Z</time>
      </trkpt>
      <trkpt lat="45.88952" lon="6.47038">
        <ele>2327.97</ele>
        <time>2018-12-13T14:52:01Z</time>
      </trkpt>
      <trkpt lat="45.88951" lon="6.47036">
        <ele>2326.53</ele>
        <time>2018-12-13T14:52:02Z</time>
      </trkpt>
      <trkpt lat="45.88951" lon="6.47033">
        <ele>2324.61</ele>
        <time>2018-12-13T14:52:03Z</time>
      </trkpt>
      <trkpt lat="45.88952" lon="6.4703">
        <ele>2323.16</ele>
        <time>2018-12-13T14:52:04Z</time>
      </trkpt>
      <trkpt lat="45.88952" lon="6.47027">
        <ele>2321.72</ele>
        <time>2018-12-13T14:52:05Z</time>
      </trkpt>
      <trkpt lat="45.88951" lon="6.47025">
        <ele>2320.28</ele>
        <time>2018-12-13T14:52:06Z</time>
      </trkpt>
      <trkpt lat="45.88949" lon="6.47024">
        <ele>2318.84</ele>
        <time>2018-12-13T14:52:07Z</time>
      </trkpt>
      <trkpt lat="45.88947" lon="6.47023">
        <ele>2317.4</ele>
        <time>2018-12-13T14:52:08Z</time>
      </trkpt>
      <trkpt lat="45.88944" lon="6.4702">
        <ele>2314.99</ele>
        <time>2018-12-13T14:52:11Z</time>
      </trkpt>
      <trkpt lat="45.88944" lon="6.47016">
        <ele>2313.55</ele>
        <time>2018-12-13T14:52:12Z</time>
      </trkpt>
      <trkpt lat="45.88943" lon="6.47005">
        <ele>2310.19</ele>
        <time>2018-12-13T14:52:15Z</time>
      </trkpt>
      <trkpt lat="45.88939" lon="6.47">
        <ele>2306.82</ele>
        <time>2018-12-13T14:52:17Z</time>
      </trkpt>
      <trkpt lat="45.88939" lon="6.46996">
        <ele>2305.38</ele>
        <time>2018-12-13T14:52:18Z</time>
      </trkpt>
      <trkpt lat="45.88938" lon="6.46992">
        <ele>2304.42</ele>
        <time>2018-12-13T14:52:19Z</time>
      </trkpt>
      <trkpt lat="45.88937" lon="6.46989">
        <ele>2302.49</ele>
        <time>2018-12-13T14:52:20Z</time>
      </trkpt>
      <trkpt lat="45.88936" lon="6.46986">
        <ele>2300.57</ele>
        <time>2018-12-13T14:52:21Z</time>
      </trkpt>
      <trkpt lat="45.88938" lon="6.46982">
        <ele>2299.13</ele>
        <time>2018-12-13T14:52:22Z</time>
      </trkpt>
      <trkpt lat="45.88939" lon="6.46979">
        <ele>2298.17</ele>
        <time>2018-12-13T14:52:23Z</time>
      </trkpt>
      <trkpt lat="45.88939" lon="6.46976">
        <ele>2297.21</ele>
        <time>2018-12-13T14:52:24Z</time>
      </trkpt>
      <trkpt lat="45.88937" lon="6.46974">
        <ele>2296.25</ele>
        <time>2018-12-13T14:52:25Z</time>
      </trkpt>
      <trkpt lat="45.88935" lon="6.46971">
        <ele>2294.8</ele>
        <time>2018-12-13T14:52:26Z</time>
      </trkpt>
      <trkpt lat="45.88934" lon="6.46967">
        <ele>2292.4</ele>
        <time>2018-12-13T14:52:27Z</time>
      </trkpt>
      <trkpt lat="45.88933" lon="6.46964">
        <ele>2291.44</ele>
        <time>2018-12-13T14:52:28Z</time>
      </trkpt>
      <trkpt lat="45.8893" lon="6.46963">
        <ele>2290.48</ele>
        <time>2018-12-13T14:52:29Z</time>
      </trkpt>
      <trkpt lat="45.88927" lon="6.46962">
        <ele>2290</ele>
        <time>2018-12-13T14:52:30Z</time>
      </trkpt>
      <trkpt lat="45.88924" lon="6.46962">
        <ele>2289.52</ele>
        <time>2018-12-13T14:52:31Z</time>
      </trkpt>
      <trkpt lat="45.88921" lon="6.46961">
        <ele>2288.56</ele>
        <time>2018-12-13T14:52:32Z</time>
      </trkpt>
      <trkpt lat="45.88919" lon="6.46961">
        <ele>2287.59</ele>
        <time>2018-12-13T14:52:33Z</time>
      </trkpt>
      <trkpt lat="45.88916" lon="6.4696">
        <ele>2286.63</ele>
        <time>2018-12-13T14:52:34Z</time>
      </trkpt>
      <trkpt lat="45.88913" lon="6.46959">
        <ele>2285.67</ele>
        <time>2018-12-13T14:52:35Z</time>
      </trkpt>
      <trkpt lat="45.88909" lon="6.46958">
        <ele>2285.19</ele>
        <time>2018-12-13T14:52:36Z</time>
      </trkpt>
      <trkpt lat="45.88897" lon="6.46952">
        <ele>2281.83</ele>
        <time>2018-12-13T14:52:40Z</time>
      </trkpt>
      <trkpt lat="45.88893" lon="6.46942">
        <ele>2279.42</ele>
        <time>2018-12-13T14:52:43Z</time>
      </trkpt>
      <trkpt lat="45.88895" lon="6.46938">
        <ele>2277.98</ele>
        <time>2018-12-13T14:52:44Z</time>
      </trkpt>
      <trkpt lat="45.88897" lon="6.46934">
        <ele>2277.02</ele>
        <time>2018-12-13T14:52:45Z</time>
      </trkpt>
      <trkpt lat="45.88896" lon="6.46928">
        <ele>2275.1</ele>
        <time>2018-12-13T14:52:46Z</time>
      </trkpt>
      <trkpt lat="45.88896" lon="6.46923">
        <ele>2273.17</ele>
        <time>2018-12-13T14:52:47Z</time>
      </trkpt>
      <trkpt lat="45.88898" lon="6.46918">
        <ele>2271.73</ele>
        <time>2018-12-13T14:52:48Z</time>
      </trkpt>
      <trkpt lat="45.88898" lon="6.46912">
        <ele>2270.77</ele>
        <time>2018-12-13T14:52:49Z</time>
      </trkpt>
      <trkpt lat="45.88901" lon="6.46905">
        <ele>2269.33</ele>
        <time>2018-12-13T14:52:50Z</time>
      </trkpt>
      <trkpt lat="45.88905" lon="6.46899">
        <ele>2266.93</ele>
        <time>2018-12-13T14:52:51Z</time>
      </trkpt>
      <trkpt lat="45.88907" lon="6.46892">
        <ele>2264.52</ele>
        <time>2018-12-13T14:52:52Z</time>
      </trkpt>
      <trkpt lat="45.88912" lon="6.46886">
        <ele>2261.64</ele>
        <time>2018-12-13T14:52:53Z</time>
      </trkpt>
      <trkpt lat="45.88916" lon="6.46881">
        <ele>2257.79</ele>
        <time>2018-12-13T14:52:54Z</time>
      </trkpt>
      <trkpt lat="45.88919" lon="6.46874">
        <ele>2255.39</ele>
        <time>2018-12-13T14:52:55Z</time>
      </trkpt>
      <trkpt lat="45.88923" lon="6.46866">
        <ele>2252.99</ele>
        <time>2018-12-13T14:52:56Z</time>
      </trkpt>
      <trkpt lat="45.88927" lon="6.4686">
        <ele>2248.66</ele>
        <time>2018-12-13T14:52:57Z</time>
      </trkpt>
      <trkpt lat="45.88929" lon="6.46854">
        <ele>2246.74</ele>
        <time>2018-12-13T14:52:58Z</time>
      </trkpt>
      <trkpt lat="45.88932" lon="6.46846">
        <ele>2243.85</ele>
        <time>2018-12-13T14:52:59Z</time>
      </trkpt>
      <trkpt lat="45.88935" lon="6.46839">
        <ele>2240.97</ele>
        <time>2018-12-13T14:53:00Z</time>
      </trkpt>
      <trkpt lat="45.88937" lon="6.46832">
        <ele>2238.57</ele>
        <time>2018-12-13T14:53:01Z</time>
      </trkpt>
      <trkpt lat="45.8894" lon="6.46825">
        <ele>2237.13</ele>
        <time>2018-12-13T14:53:02Z</time>
      </trkpt>
      <trkpt lat="45.88942" lon="6.46818">
        <ele>2234.24</ele>
        <time>2018-12-13T14:53:03Z</time>
      </trkpt>
      <trkpt lat="45.88944" lon="6.46812">
        <ele>2231.84</ele>
        <time>2018-12-13T14:53:04Z</time>
      </trkpt>
      <trkpt lat="45.88945" lon="6.46804">
        <ele>2229.92</ele>
        <time>2018-12-13T14:53:05Z</time>
      </trkpt>
      <trkpt lat="45.88946" lon="6.46796">
        <ele>2227.03</ele>
        <time>2018-12-13T14:53:06Z</time>
      </trkpt>
      <trkpt lat="45.88947" lon="6.46789">
        <ele>2225.11</ele>
        <time>2018-12-13T14:53:07Z</time>
      </trkpt>
      <trkpt lat="45.8895" lon="6.46782">
        <ele>2224.15</ele>
        <time>2018-12-13T14:53:08Z</time>
      </trkpt>
      <trkpt lat="45.88953" lon="6.46778">
        <ele>2221.74</ele>
        <time>2018-12-13T14:53:09Z</time>
      </trkpt>
      <trkpt lat="45.88956" lon="6.46775">
        <ele>2219.82</ele>
        <time>2018-12-13T14:53:10Z</time>
      </trkpt>
      <trkpt lat="45.88958" lon="6.46773">
        <ele>2218.86</ele>
        <time>2018-12-13T14:53:11Z</time>
      </trkpt>
      <trkpt lat="45.8896" lon="6.46769">
        <ele>2218.38</ele>
        <time>2018-12-13T14:53:12Z</time>
      </trkpt>
      <trkpt lat="45.88962" lon="6.46764">
        <ele>2216.94</ele>
        <time>2018-12-13T14:53:13Z</time>
      </trkpt>
      <trkpt lat="45.88964" lon="6.46759">
        <ele>2215.98</ele>
        <time>2018-12-13T14:53:14Z</time>
      </trkpt>
      <trkpt lat="45.88965" lon="6.46754">
        <ele>2214.05</ele>
        <time>2018-12-13T14:53:15Z</time>
      </trkpt>
      <trkpt lat="45.88965" lon="6.46748">
        <ele>2212.61</ele>
        <time>2018-12-13T14:53:16Z</time>
      </trkpt>
      <trkpt lat="45.88969" lon="6.46742">
        <ele>2210.21</ele>
        <time>2018-12-13T14:53:17Z</time>
      </trkpt>
      <trkpt lat="45.8897" lon="6.46736">
        <ele>2208.29</ele>
        <time>2018-12-13T14:53:18Z</time>
      </trkpt>
      <trkpt lat="45.88971" lon="6.46732">
        <ele>2205.4</ele>
        <time>2018-12-13T14:53:19Z</time>
      </trkpt>
      <trkpt lat="45.88974" lon="6.46727">
        <ele>2203.48</ele>
        <time>2018-12-13T14:53:20Z</time>
      </trkpt>
      <trkpt lat="45.88977" lon="6.46725">
        <ele>2202.04</ele>
        <time>2018-12-13T14:53:21Z</time>
      </trkpt>
      <trkpt lat="45.88978" lon="6.46721">
        <ele>2199.63</ele>
        <time>2018-12-13T14:53:22Z</time>
      </trkpt>
      <trkpt lat="45.8898" lon="6.46717">
        <ele>2198.19</ele>
        <time>2018-12-13T14:53:23Z</time>
      </trkpt>
      <trkpt lat="45.88982" lon="6.46712">
        <ele>2195.79</ele>
        <time>2018-12-13T14:53:24Z</time>
      </trkpt>
      <trkpt lat="45.88983" lon="6.46707">
        <ele>2193.87</ele>
        <time>2018-12-13T14:53:25Z</time>
      </trkpt>
      <trkpt lat="45.88987" lon="6.46702">
        <ele>2191.94</ele>
        <time>2018-12-13T14:53:26Z</time>
      </trkpt>
      <trkpt lat="45.88989" lon="6.46697">
        <ele>2190.02</ele>
        <time>2018-12-13T14:53:27Z</time>
      </trkpt>
      <trkpt lat="45.8899" lon="6.46691">
        <ele>2188.1</ele>
        <time>2018-12-13T14:53:28Z</time>
      </trkpt>
      <trkpt lat="45.88993" lon="6.46684">
        <ele>2185.21</ele>
        <time>2018-12-13T14:53:29Z</time>
      </trkpt>
      <trkpt lat="45.88996" lon="6.46678">
        <ele>2182.33</ele>
        <time>2018-12-13T14:53:30Z</time>
      </trkpt>
      <trkpt lat="45.88998" lon="6.46671">
        <ele>2179.45</ele>
        <time>2018-12-13T14:53:31Z</time>
      </trkpt>
      <trkpt lat="45.88999" lon="6.46663">
        <ele>2176.08</ele>
        <time>2018-12-13T14:53:32Z</time>
      </trkpt>
      <trkpt lat="45.89001" lon="6.46656">
        <ele>2173.2</ele>
        <time>2018-12-13T14:53:33Z</time>
      </trkpt>
      <trkpt lat="45.89001" lon="6.46648">
        <ele>2170.31</ele>
        <time>2018-12-13T14:53:34Z</time>
      </trkpt>
      <trkpt lat="45.89002" lon="6.46642">
        <ele>2167.43</ele>
        <time>2018-12-13T14:53:35Z</time>
      </trkpt>
      <trkpt lat="45.89004" lon="6.46635">
        <ele>2163.58</ele>
        <time>2018-12-13T14:53:36Z</time>
      </trkpt>
      <trkpt lat="45.89006" lon="6.46629">
        <ele>2161.66</ele>
        <time>2018-12-13T14:53:37Z</time>
      </trkpt>
      <trkpt lat="45.89007" lon="6.46622">
        <ele>2158.78</ele>
        <time>2018-12-13T14:53:38Z</time>
      </trkpt>
      <trkpt lat="45.89009" lon="6.46614">
        <ele>2156.37</ele>
        <time>2018-12-13T14:53:39Z</time>
      </trkpt>
      <trkpt lat="45.8901" lon="6.46606">
        <ele>2153.97</ele>
        <time>2018-12-13T14:53:40Z</time>
      </trkpt>
      <trkpt lat="45.89011" lon="6.46599">
        <ele>2151.57</ele>
        <time>2018-12-13T14:53:41Z</time>
      </trkpt>
      <trkpt lat="45.89014" lon="6.46592">
        <ele>2148.68</ele>
        <time>2018-12-13T14:53:42Z</time>
      </trkpt>
      <trkpt lat="45.89014" lon="6.46585">
        <ele>2146.76</ele>
        <time>2018-12-13T14:53:43Z</time>
      </trkpt>
      <trkpt lat="45.89015" lon="6.46578">
        <ele>2144.36</ele>
        <time>2018-12-13T14:53:44Z</time>
      </trkpt>
      <trkpt lat="45.89017" lon="6.46572">
        <ele>2141.95</ele>
        <time>2018-12-13T14:53:45Z</time>
      </trkpt>
      <trkpt lat="45.89018" lon="6.46565">
        <ele>2139.07</ele>
        <time>2018-12-13T14:53:46Z</time>
      </trkpt>
      <trkpt lat="45.89019" lon="6.46559">
        <ele>2136.19</ele>
        <time>2018-12-13T14:53:47Z</time>
      </trkpt>
      <trkpt lat="45.89021" lon="6.46552">
        <ele>2133.78</ele>
        <time>2018-12-13T14:53:48Z</time>
      </trkpt>
      <trkpt lat="45.89022" lon="6.46545">
        <ele>2131.86</ele>
        <time>2018-12-13T14:53:49Z</time>
      </trkpt>
      <trkpt lat="45.89027" lon="6.46537">
        <ele>2127.53</ele>
        <time>2018-12-13T14:53:50Z</time>
      </trkpt>
      <trkpt lat="45.89031" lon="6.46531">
        <ele>2124.65</ele>
        <time>2018-12-13T14:53:51Z</time>
      </trkpt>
      <trkpt lat="45.89031" lon="6.46525">
        <ele>2122.73</ele>
        <time>2018-12-13T14:53:52Z</time>
      </trkpt>
      <trkpt lat="45.89032" lon="6.46516">
        <ele>2119.84</ele>
        <time>2018-12-13T14:53:53Z</time>
      </trkpt>
      <trkpt lat="45.89033" lon="6.46508">
        <ele>2116.48</ele>
        <time>2018-12-13T14:53:54Z</time>
      </trkpt>
      <trkpt lat="45.89034" lon="6.465">
        <ele>2113.6</ele>
        <time>2018-12-13T14:53:55Z</time>
      </trkpt>
      <trkpt lat="45.89036" lon="6.46492">
        <ele>2112.15</ele>
        <time>2018-12-13T14:53:56Z</time>
      </trkpt>
      <trkpt lat="45.89035" lon="6.46484">
        <ele>2108.31</ele>
        <time>2018-12-13T14:53:57Z</time>
      </trkpt>
      <trkpt lat="45.89035" lon="6.46476">
        <ele>2104.94</ele>
        <time>2018-12-13T14:53:58Z</time>
      </trkpt>
      <trkpt lat="45.89036" lon="6.46469">
        <ele>2101.58</ele>
        <time>2018-12-13T14:53:59Z</time>
      </trkpt>
      <trkpt lat="45.89038" lon="6.46462">
        <ele>2099.18</ele>
        <time>2018-12-13T14:54:00Z</time>
      </trkpt>
      <trkpt lat="45.8904" lon="6.46455">
        <ele>2096.29</ele>
        <time>2018-12-13T14:54:01Z</time>
      </trkpt>
      <trkpt lat="45.89043" lon="6.46447">
        <ele>2093.41</ele>
        <time>2018-12-13T14:54:02Z</time>
      </trkpt>
      <trkpt lat="45.89044" lon="6.46438">
        <ele>2091</ele>
        <time>2018-12-13T14:54:03Z</time>
      </trkpt>
      <trkpt lat="45.89044" lon="6.46429">
        <ele>2087.64</ele>
        <time>2018-12-13T14:54:04Z</time>
      </trkpt>
      <trkpt lat="45.89046" lon="6.46421">
        <ele>2085.24</ele>
        <time>2018-12-13T14:54:05Z</time>
      </trkpt>
      <trkpt lat="45.89046" lon="6.46412">
        <ele>2081.87</ele>
        <time>2018-12-13T14:54:06Z</time>
      </trkpt>
      <trkpt lat="45.89047" lon="6.46403">
        <ele>2078.03</ele>
        <time>2018-12-13T14:54:07Z</time>
      </trkpt>
      <trkpt lat="45.8905" lon="6.46396">
        <ele>2074.66</ele>
        <time>2018-12-13T14:54:08Z</time>
      </trkpt>
      <trkpt lat="45.89051" lon="6.46388">
        <ele>2072.26</ele>
        <time>2018-12-13T14:54:09Z</time>
      </trkpt>
      <trkpt lat="45.89051" lon="6.46379">
        <ele>2069.86</ele>
        <time>2018-12-13T14:54:10Z</time>
      </trkpt>
      <trkpt lat="45.89053" lon="6.46371">
        <ele>2066.97</ele>
        <time>2018-12-13T14:54:11Z</time>
      </trkpt>
      <trkpt lat="45.89055" lon="6.46365">
        <ele>2064.57</ele>
        <time>2018-12-13T14:54:12Z</time>
      </trkpt>
      <trkpt lat="45.89055" lon="6.46358">
        <ele>2061.68</ele>
        <time>2018-12-13T14:54:13Z</time>
      </trkpt>
      <trkpt lat="45.89055" lon="6.46351">
        <ele>2060.24</ele>
        <time>2018-12-13T14:54:14Z</time>
      </trkpt>
      <trkpt lat="45.89056" lon="6.46343">
        <ele>2057.84</ele>
        <time>2018-12-13T14:54:15Z</time>
      </trkpt>
      <trkpt lat="45.89057" lon="6.46336">
        <ele>2054.96</ele>
        <time>2018-12-13T14:54:16Z</time>
      </trkpt>
      <trkpt lat="45.89057" lon="6.46331">
        <ele>2053.03</ele>
        <time>2018-12-13T14:54:17Z</time>
      </trkpt>
      <trkpt lat="45.89058" lon="6.46327">
        <ele>2051.59</ele>
        <time>2018-12-13T14:54:18Z</time>
      </trkpt>
      <trkpt lat="45.8906" lon="6.46323">
        <ele>2050.63</ele>
        <time>2018-12-13T14:54:19Z</time>
      </trkpt>
      <trkpt lat="45.8906" lon="6.46318">
        <ele>2049.67</ele>
        <time>2018-12-13T14:54:20Z</time>
      </trkpt>
      <trkpt lat="45.89059" lon="6.46313">
        <ele>2048.23</ele>
        <time>2018-12-13T14:54:21Z</time>
      </trkpt>
      <trkpt lat="45.89059" lon="6.46308">
        <ele>2046.78</ele>
        <time>2018-12-13T14:54:22Z</time>
      </trkpt>
      <trkpt lat="45.89057" lon="6.46303">
        <ele>2045.34</ele>
        <time>2018-12-13T14:54:23Z</time>
      </trkpt>
      <trkpt lat="45.89057" lon="6.46297">
        <ele>2043.42</ele>
        <time>2018-12-13T14:54:24Z</time>
      </trkpt>
      <trkpt lat="45.89055" lon="6.46291">
        <ele>2041.98</ele>
        <time>2018-12-13T14:54:25Z</time>
      </trkpt>
      <trkpt lat="45.89055" lon="6.46284">
        <ele>2041.02</ele>
        <time>2018-12-13T14:54:26Z</time>
      </trkpt>
      <trkpt lat="45.89055" lon="6.46278">
        <ele>2039.09</ele>
        <time>2018-12-13T14:54:27Z</time>
      </trkpt>
      <trkpt lat="45.89054" lon="6.46271">
        <ele>2037.17</ele>
        <time>2018-12-13T14:54:28Z</time>
      </trkpt>
      <trkpt lat="45.89053" lon="6.46265">
        <ele>2034.77</ele>
        <time>2018-12-13T14:54:29Z</time>
      </trkpt>
      <trkpt lat="45.89053" lon="6.46258">
        <ele>2032.84</ele>
        <time>2018-12-13T14:54:30Z</time>
      </trkpt>
      <trkpt lat="45.89051" lon="6.46252">
        <ele>2030.44</ele>
        <time>2018-12-13T14:54:31Z</time>
      </trkpt>
      <trkpt lat="45.89051" lon="6.46246">
        <ele>2028.52</ele>
        <time>2018-12-13T14:54:32Z</time>
      </trkpt>
      <trkpt lat="45.8905" lon="6.46239">
        <ele>2027.56</ele>
        <time>2018-12-13T14:54:33Z</time>
      </trkpt>
      <trkpt lat="45.89049" lon="6.46233">
        <ele>2024.67</ele>
        <time>2018-12-13T14:54:34Z</time>
      </trkpt>
      <trkpt lat="45.89046" lon="6.46219">
        <ele>2019.87</ele>
        <time>2018-12-13T14:54:36Z</time>
      </trkpt>
      <trkpt lat="45.89044" lon="6.46211">
        <ele>2017.46</ele>
        <time>2018-12-13T14:54:37Z</time>
      </trkpt>
      <trkpt lat="45.89043" lon="6.46204">
        <ele>2015.06</ele>
        <time>2018-12-13T14:54:38Z</time>
      </trkpt>
      <trkpt lat="45.89042" lon="6.46196">
        <ele>2012.66</ele>
        <time>2018-12-13T14:54:39Z</time>
      </trkpt>
      <trkpt lat="45.89042" lon="6.46189">
        <ele>2011.22</ele>
        <time>2018-12-13T14:54:40Z</time>
      </trkpt>
      <trkpt lat="45.89042" lon="6.46181">
        <ele>2007.85</ele>
        <time>2018-12-13T14:54:41Z</time>
      </trkpt>
      <trkpt lat="45.89041" lon="6.46173">
        <ele>2005.45</ele>
        <time>2018-12-13T14:54:42Z</time>
      </trkpt>
      <trkpt lat="45.8904" lon="6.46165">
        <ele>2002.56</ele>
        <time>2018-12-13T14:54:43Z</time>
      </trkpt>
      <trkpt lat="45.89039" lon="6.46158">
        <ele>2000.16</ele>
        <time>2018-12-13T14:54:44Z</time>
      </trkpt>
      <trkpt lat="45.89039" lon="6.46151">
        <ele>1997.76</ele>
        <time>2018-12-13T14:54:45Z</time>
      </trkpt>
      <trkpt lat="45.89038" lon="6.46143">
        <ele>1995.83</ele>
        <time>2018-12-13T14:54:46Z</time>
      </trkpt>
      <trkpt lat="45.89037" lon="6.46135">
        <ele>1991.99</ele>
        <time>2018-12-13T14:54:47Z</time>
      </trkpt>
      <trkpt lat="45.89036" lon="6.46126">
        <ele>1989.1</ele>
        <time>2018-12-13T14:54:48Z</time>
      </trkpt>
      <trkpt lat="45.89036" lon="6.46117">
        <ele>1986.7</ele>
        <time>2018-12-13T14:54:49Z</time>
      </trkpt>
      <trkpt lat="45.89035" lon="6.46109">
        <ele>1983.34</ele>
        <time>2018-12-13T14:54:50Z</time>
      </trkpt>
      <trkpt lat="45.89036" lon="6.46099">
        <ele>1980.45</ele>
        <time>2018-12-13T14:54:51Z</time>
      </trkpt>
      <trkpt lat="45.89035" lon="6.4609">
        <ele>1976.61</ele>
        <time>2018-12-13T14:54:52Z</time>
      </trkpt>
      <trkpt lat="45.89033" lon="6.46082">
        <ele>1973.24</ele>
        <time>2018-12-13T14:54:53Z</time>
      </trkpt>
      <trkpt lat="45.89032" lon="6.46073">
        <ele>1970.84</ele>
        <time>2018-12-13T14:54:54Z</time>
      </trkpt>
      <trkpt lat="45.89032" lon="6.46064">
        <ele>1967.96</ele>
        <time>2018-12-13T14:54:55Z</time>
      </trkpt>
      <trkpt lat="45.89032" lon="6.46054">
        <ele>1965.55</ele>
        <time>2018-12-13T14:54:56Z</time>
      </trkpt>
      <trkpt lat="45.89034" lon="6.46045">
        <ele>1962.19</ele>
        <time>2018-12-13T14:54:57Z</time>
      </trkpt>
      <trkpt lat="45.89035" lon="6.46036">
        <ele>1958.82</ele>
        <time>2018-12-13T14:54:58Z</time>
      </trkpt>
      <trkpt lat="45.89038" lon="6.46025">
        <ele>1954.98</ele>
        <time>2018-12-13T14:54:59Z</time>
      </trkpt>
      <trkpt lat="45.8904" lon="6.46014">
        <ele>1950.17</ele>
        <time>2018-12-13T14:55:00Z</time>
      </trkpt>
      <trkpt lat="45.89045" lon="6.45988">
        <ele>1944.4</ele>
        <time>2018-12-13T14:55:02Z</time>
      </trkpt>
      <trkpt lat="45.89048" lon="6.45975">
        <ele>1943.44</ele>
        <time>2018-12-13T14:55:03Z</time>
      </trkpt>
      <trkpt lat="45.8905" lon="6.45961">
        <ele>1942</ele>
        <time>2018-12-13T14:55:04Z</time>
      </trkpt>
      <trkpt lat="45.89054" lon="6.45947">
        <ele>1937.67</ele>
        <time>2018-12-13T14:55:05Z</time>
      </trkpt>
      <trkpt lat="45.89059" lon="6.45934">
        <ele>1933.35</ele>
        <time>2018-12-13T14:55:06Z</time>
      </trkpt>
      <trkpt lat="45.89063" lon="6.45922">
        <ele>1931.43</ele>
        <time>2018-12-13T14:55:07Z</time>
      </trkpt>
      <trkpt lat="45.89065" lon="6.45911">
        <ele>1931.43</ele>
        <time>2018-12-13T14:55:08Z</time>
      </trkpt>
      <trkpt lat="45.89065" lon="6.45891">
        <ele>1930.46</ele>
        <time>2018-12-13T14:55:10Z</time>
      </trkpt>
      <trkpt lat="45.89066" lon="6.45883">
        <ele>1929.5</ele>
        <time>2018-12-13T14:55:11Z</time>
      </trkpt>
      <trkpt lat="45.89066" lon="6.45876">
        <ele>1929.02</ele>
        <time>2018-12-13T14:55:12Z</time>
      </trkpt>
      <trkpt lat="45.89066" lon="6.45867">
        <ele>1929.02</ele>
        <time>2018-12-13T14:55:13Z</time>
      </trkpt>
      <trkpt lat="45.89065" lon="6.45858">
        <ele>1927.1</ele>
        <time>2018-12-13T14:55:14Z</time>
      </trkpt>
      <trkpt lat="45.89065" lon="6.45849">
        <ele>1925.66</ele>
        <time>2018-12-13T14:55:15Z</time>
      </trkpt>
      <trkpt lat="45.89065" lon="6.45841">
        <ele>1924.7</ele>
        <time>2018-12-13T14:55:16Z</time>
      </trkpt>
      <trkpt lat="45.89064" lon="6.45834">
        <ele>1923.25</ele>
        <time>2018-12-13T14:55:17Z</time>
      </trkpt>
      <trkpt lat="45.89064" lon="6.45825">
        <ele>1922.29</ele>
        <time>2018-12-13T14:55:18Z</time>
      </trkpt>
      <trkpt lat="45.89065" lon="6.45817">
        <ele>1921.33</ele>
        <time>2018-12-13T14:55:19Z</time>
      </trkpt>
      <trkpt lat="45.89064" lon="6.4581">
        <ele>1920.37</ele>
        <time>2018-12-13T14:55:20Z</time>
      </trkpt>
      <trkpt lat="45.89065" lon="6.45802">
        <ele>1919.89</ele>
        <time>2018-12-13T14:55:21Z</time>
      </trkpt>
      <trkpt lat="45.89067" lon="6.45796">
        <ele>1918.93</ele>
        <time>2018-12-13T14:55:22Z</time>
      </trkpt>
      <trkpt lat="45.89068" lon="6.45789">
        <ele>1917.49</ele>
        <time>2018-12-13T14:55:23Z</time>
      </trkpt>
      <trkpt lat="45.89069" lon="6.45779">
        <ele>1917.01</ele>
        <time>2018-12-13T14:55:24Z</time>
      </trkpt>
      <trkpt lat="45.8907" lon="6.45769">
        <ele>1916.04</ele>
        <time>2018-12-13T14:55:25Z</time>
      </trkpt>
      <trkpt lat="45.89071" lon="6.45726">
        <ele>1912.2</ele>
        <time>2018-12-13T14:55:29Z</time>
      </trkpt>
      <trkpt lat="45.89071" lon="6.45683">
        <ele>1909.32</ele>
        <time>2018-12-13T14:55:33Z</time>
      </trkpt>
      <trkpt lat="45.89071" lon="6.45639">
        <ele>1905.47</ele>
        <time>2018-12-13T14:55:37Z</time>
      </trkpt>
      <trkpt lat="45.89072" lon="6.45586">
        <ele>1902.11</ele>
        <time>2018-12-13T14:55:42Z</time>
      </trkpt>
      <trkpt lat="45.89072" lon="6.45554">
        <ele>1898.74</ele>
        <time>2018-12-13T14:55:45Z</time>
      </trkpt>
      <trkpt lat="45.89071" lon="6.45509">
        <ele>1894.9</ele>
        <time>2018-12-13T14:55:49Z</time>
      </trkpt>
      <trkpt lat="45.8907" lon="6.45497">
        <ele>1893.93</ele>
        <time>2018-12-13T14:55:50Z</time>
      </trkpt>
      <trkpt lat="45.89068" lon="6.45448">
        <ele>1890.57</ele>
        <time>2018-12-13T14:55:54Z</time>
      </trkpt>
      <trkpt lat="45.89067" lon="6.45403">
        <ele>1887.21</ele>
        <time>2018-12-13T14:55:58Z</time>
      </trkpt>
      <trkpt lat="45.89065" lon="6.45363">
        <ele>1883.36</ele>
        <time>2018-12-13T14:56:02Z</time>
      </trkpt>
      <trkpt lat="45.89065" lon="6.45346">
        <ele>1882.4</ele>
        <time>2018-12-13T14:56:04Z</time>
      </trkpt>
      <trkpt lat="45.89065" lon="6.45324">
        <ele>1879.51</ele>
        <time>2018-12-13T14:56:07Z</time>
      </trkpt>
      <trkpt lat="45.89065" lon="6.45277">
        <ele>1876.63</ele>
        <time>2018-12-13T14:56:14Z</time>
      </trkpt>
      <trkpt lat="45.89055" lon="6.45211">
        <ele>1877.11</ele>
        <time>2018-12-13T14:56:36Z</time>
      </trkpt>
      <trkpt lat="45.89048" lon="6.45177">
        <ele>1873.75</ele>
        <time>2018-12-13T14:56:44Z</time>
      </trkpt>
      <trkpt lat="45.89047" lon="6.45171">
        <ele>1873.27</ele>
        <time>2018-12-13T14:56:45Z</time>
      </trkpt>
      <trkpt lat="45.89046" lon="6.45165">
        <ele>1872.79</ele>
        <time>2018-12-13T14:56:46Z</time>
      </trkpt>
      <trkpt lat="45.89046" lon="6.45144">
        <ele>1870.86</ele>
        <time>2018-12-13T14:56:50Z</time>
      </trkpt>
      <trkpt lat="45.89046" lon="6.45141">
        <ele>1870.86</ele>
        <time>2018-12-13T14:56:51Z</time>
      </trkpt>
      <trkpt lat="45.89046" lon="6.45137">
        <ele>1870.38</ele>
        <time>2018-12-13T14:56:52Z</time>
      </trkpt>
      <trkpt lat="45.89047" lon="6.45133">
        <ele>1870.38</ele>
        <time>2018-12-13T14:56:53Z</time>
      </trkpt>
      <trkpt lat="45.89049" lon="6.4513">
        <ele>1869.9</ele>
        <time>2018-12-13T14:56:54Z</time>
      </trkpt>
      <trkpt lat="45.89051" lon="6.45128">
        <ele>1868.94</ele>
        <time>2018-12-13T14:56:55Z</time>
      </trkpt>
      <trkpt lat="45.89054" lon="6.45125">
        <ele>1867.98</ele>
        <time>2018-12-13T14:56:56Z</time>
      </trkpt>
      <trkpt lat="45.89058" lon="6.45122">
        <ele>1867.5</ele>
        <time>2018-12-13T14:56:57Z</time>
      </trkpt>
      <trkpt lat="45.8906" lon="6.45121">
        <ele>1867.02</ele>
        <time>2018-12-13T14:56:58Z</time>
      </trkpt>
      <trkpt lat="45.89069" lon="6.45106">
        <ele>1865.09</ele>
        <time>2018-12-13T14:57:03Z</time>
      </trkpt>
      <trkpt lat="45.89071" lon="6.45101">
        <ele>1864.61</ele>
        <time>2018-12-13T14:57:04Z</time>
      </trkpt>
      <trkpt lat="45.89072" lon="6.45098">
        <ele>1863.17</ele>
        <time>2018-12-13T14:57:05Z</time>
      </trkpt>
      <trkpt lat="45.89072" lon="6.45095">
        <ele>1862.21</ele>
        <time>2018-12-13T14:57:06Z</time>
      </trkpt>
      <trkpt lat="45.89071" lon="6.45091">
        <ele>1861.25</ele>
        <time>2018-12-13T14:57:07Z</time>
      </trkpt>
      <trkpt lat="45.89072" lon="6.45087">
        <ele>1860.29</ele>
        <time>2018-12-13T14:57:08Z</time>
      </trkpt>
      <trkpt lat="45.89074" lon="6.45084">
        <ele>1859.33</ele>
        <time>2018-12-13T14:57:09Z</time>
      </trkpt>
      <trkpt lat="45.89075" lon="6.45081">
        <ele>1858.37</ele>
        <time>2018-12-13T14:57:10Z</time>
      </trkpt>
      <trkpt lat="45.89075" lon="6.45077">
        <ele>1856.92</ele>
        <time>2018-12-13T14:57:11Z</time>
      </trkpt>
      <trkpt lat="45.89073" lon="6.45072">
        <ele>1855.96</ele>
        <time>2018-12-13T14:57:12Z</time>
      </trkpt>
      <trkpt lat="45.89071" lon="6.45068">
        <ele>1854.52</ele>
        <time>2018-12-13T14:57:13Z</time>
      </trkpt>
      <trkpt lat="45.8907" lon="6.45063">
        <ele>1853.08</ele>
        <time>2018-12-13T14:57:14Z</time>
      </trkpt>
      <trkpt lat="45.89069" lon="6.45058">
        <ele>1852.12</ele>
        <time>2018-12-13T14:57:15Z</time>
      </trkpt>
      <trkpt lat="45.89067" lon="6.45053">
        <ele>1850.68</ele>
        <time>2018-12-13T14:57:16Z</time>
      </trkpt>
      <trkpt lat="45.89067" lon="6.45049">
        <ele>1849.23</ele>
        <time>2018-12-13T14:57:17Z</time>
      </trkpt>
      <trkpt lat="45.89067" lon="6.45044">
        <ele>1847.31</ele>
        <time>2018-12-13T14:57:18Z</time>
      </trkpt>
      <trkpt lat="45.89066" lon="6.4504">
        <ele>1846.83</ele>
        <time>2018-12-13T14:57:19Z</time>
      </trkpt>
      <trkpt lat="45.89066" lon="6.45036">
        <ele>1845.39</ele>
        <time>2018-12-13T14:57:20Z</time>
      </trkpt>
      <trkpt lat="45.89066" lon="6.45031">
        <ele>1844.43</ele>
        <time>2018-12-13T14:57:21Z</time>
      </trkpt>
      <trkpt lat="45.89065" lon="6.45026">
        <ele>1842.98</ele>
        <time>2018-12-13T14:57:22Z</time>
      </trkpt>
      <trkpt lat="45.89066" lon="6.45021">
        <ele>1841.54</ele>
        <time>2018-12-13T14:57:23Z</time>
      </trkpt>
      <trkpt lat="45.89066" lon="6.45017">
        <ele>1840.1</ele>
        <time>2018-12-13T14:57:24Z</time>
      </trkpt>
      <trkpt lat="45.89065" lon="6.45012">
        <ele>1839.14</ele>
        <time>2018-12-13T14:57:25Z</time>
      </trkpt>
      <trkpt lat="45.89067" lon="6.45008">
        <ele>1837.22</ele>
        <time>2018-12-13T14:57:26Z</time>
      </trkpt>
      <trkpt lat="45.89067" lon="6.45002">
        <ele>1835.77</ele>
        <time>2018-12-13T14:57:27Z</time>
      </trkpt>
      <trkpt lat="45.89066" lon="6.44997">
        <ele>1833.85</ele>
        <time>2018-12-13T14:57:28Z</time>
      </trkpt>
      <trkpt lat="45.89068" lon="6.44993">
        <ele>1832.41</ele>
        <time>2018-12-13T14:57:29Z</time>
      </trkpt>
      <trkpt lat="45.89069" lon="6.44988">
        <ele>1830.97</ele>
        <time>2018-12-13T14:57:30Z</time>
      </trkpt>
      <trkpt lat="45.89069" lon="6.44984">
        <ele>1830.01</ele>
        <time>2018-12-13T14:57:31Z</time>
      </trkpt>
      <trkpt lat="45.8907" lon="6.4498">
        <ele>1828.56</ele>
        <time>2018-12-13T14:57:32Z</time>
      </trkpt>
      <trkpt lat="45.89069" lon="6.44975">
        <ele>1827.6</ele>
        <time>2018-12-13T14:57:33Z</time>
      </trkpt>
      <trkpt lat="45.89068" lon="6.4497">
        <ele>1826.16</ele>
        <time>2018-12-13T14:57:34Z</time>
      </trkpt>
      <trkpt lat="45.89069" lon="6.44966">
        <ele>1825.2</ele>
        <time>2018-12-13T14:57:35Z</time>
      </trkpt>
      <trkpt lat="45.89072" lon="6.44963">
        <ele>1824.24</ele>
        <time>2018-12-13T14:57:36Z</time>
      </trkpt>
      <trkpt lat="45.89073" lon="6.4496">
        <ele>1823.28</ele>
        <time>2018-12-13T14:57:37Z</time>
      </trkpt>
      <trkpt lat="45.89073" lon="6.44954">
        <ele>1821.84</ele>
        <time>2018-12-13T14:57:38Z</time>
      </trkpt>
      <trkpt lat="45.89072" lon="6.44949">
        <ele>1820.87</ele>
        <time>2018-12-13T14:57:39Z</time>
      </trkpt>
      <trkpt lat="45.89071" lon="6.44946">
        <ele>1819.43</ele>
        <time>2018-12-13T14:57:40Z</time>
      </trkpt>
      <trkpt lat="45.89069" lon="6.44943">
        <ele>1818.47</ele>
        <time>2018-12-13T14:57:41Z</time>
      </trkpt>
      <trkpt lat="45.89059" lon="6.44926">
        <ele>1815.11</ele>
        <time>2018-12-13T14:57:45Z</time>
      </trkpt>
      <trkpt lat="45.89058" lon="6.44921">
        <ele>1814.15</ele>
        <time>2018-12-13T14:57:46Z</time>
      </trkpt>
      <trkpt lat="45.89055" lon="6.44917">
        <ele>1813.18</ele>
        <time>2018-12-13T14:57:47Z</time>
      </trkpt>
      <trkpt lat="45.89054" lon="6.44912">
        <ele>1812.22</ele>
        <time>2018-12-13T14:57:48Z</time>
      </trkpt>
      <trkpt lat="45.89055" lon="6.44908">
        <ele>1810.78</ele>
        <time>2018-12-13T14:57:49Z</time>
      </trkpt>
      <trkpt lat="45.89055" lon="6.44903">
        <ele>1809.82</ele>
        <time>2018-12-13T14:57:50Z</time>
      </trkpt>
      <trkpt lat="45.89053" lon="6.44898">
        <ele>1808.38</ele>
        <time>2018-12-13T14:57:51Z</time>
      </trkpt>
      <trkpt lat="45.89053" lon="6.44893">
        <ele>1806.94</ele>
        <time>2018-12-13T14:57:52Z</time>
      </trkpt>
      <trkpt lat="45.89052" lon="6.44887">
        <ele>1805.97</ele>
        <time>2018-12-13T14:57:53Z</time>
      </trkpt>
      <trkpt lat="45.89051" lon="6.44882">
        <ele>1805.01</ele>
        <time>2018-12-13T14:57:54Z</time>
      </trkpt>
      <trkpt lat="45.89049" lon="6.44877">
        <ele>1802.61</ele>
        <time>2018-12-13T14:57:55Z</time>
      </trkpt>
      <trkpt lat="45.89046" lon="6.44873">
        <ele>1802.13</ele>
        <time>2018-12-13T14:57:56Z</time>
      </trkpt>
      <trkpt lat="45.89043" lon="6.44869">
        <ele>1801.17</ele>
        <time>2018-12-13T14:57:57Z</time>
      </trkpt>
      <trkpt lat="45.89041" lon="6.44864">
        <ele>1799.73</ele>
        <time>2018-12-13T14:57:58Z</time>
      </trkpt>
      <trkpt lat="45.8904" lon="6.44859">
        <ele>1798.76</ele>
        <time>2018-12-13T14:57:59Z</time>
      </trkpt>
      <trkpt lat="45.89039" lon="6.44854">
        <ele>1797.32</ele>
        <time>2018-12-13T14:58:00Z</time>
      </trkpt>
      <trkpt lat="45.89038" lon="6.44849">
        <ele>1796.36</ele>
        <time>2018-12-13T14:58:01Z</time>
      </trkpt>
      <trkpt lat="45.89039" lon="6.44844">
        <ele>1795.4</ele>
        <time>2018-12-13T14:58:02Z</time>
      </trkpt>
      <trkpt lat="45.89038" lon="6.44839">
        <ele>1794.44</ele>
        <time>2018-12-13T14:58:03Z</time>
      </trkpt>
      <trkpt lat="45.89037" lon="6.44835">
        <ele>1792.03</ele>
        <time>2018-12-13T14:58:04Z</time>
      </trkpt>
      <trkpt lat="45.89036" lon="6.44829">
        <ele>1790.59</ele>
        <time>2018-12-13T14:58:05Z</time>
      </trkpt>
      <trkpt lat="45.89034" lon="6.44823">
        <ele>1789.63</ele>
        <time>2018-12-13T14:58:06Z</time>
      </trkpt>
      <trkpt lat="45.89033" lon="6.44818">
        <ele>1788.19</ele>
        <time>2018-12-13T14:58:07Z</time>
      </trkpt>
      <trkpt lat="45.89032" lon="6.44812">
        <ele>1786.75</ele>
        <time>2018-12-13T14:58:08Z</time>
      </trkpt>
      <trkpt lat="45.89032" lon="6.44807">
        <ele>1785.31</ele>
        <time>2018-12-13T14:58:09Z</time>
      </trkpt>
      <trkpt lat="45.89033" lon="6.44803">
        <ele>1783.86</ele>
        <time>2018-12-13T14:58:10Z</time>
      </trkpt>
      <trkpt lat="45.89034" lon="6.44799">
        <ele>1782.42</ele>
        <time>2018-12-13T14:58:11Z</time>
      </trkpt>
      <trkpt lat="45.89034" lon="6.44794">
        <ele>1780.98</ele>
        <time>2018-12-13T14:58:12Z</time>
      </trkpt>
      <trkpt lat="45.89035" lon="6.44789">
        <ele>1780.02</ele>
        <time>2018-12-13T14:58:13Z</time>
      </trkpt>
      <trkpt lat="45.89037" lon="6.44786">
        <ele>1778.1</ele>
        <time>2018-12-13T14:58:14Z</time>
      </trkpt>
      <trkpt lat="45.89039" lon="6.44782">
        <ele>1776.65</ele>
        <time>2018-12-13T14:58:15Z</time>
      </trkpt>
      <trkpt lat="45.89036" lon="6.44779">
        <ele>1775.69</ele>
        <time>2018-12-13T14:58:16Z</time>
      </trkpt>
      <trkpt lat="45.89035" lon="6.44777">
        <ele>1774.25</ele>
        <time>2018-12-13T14:58:17Z</time>
      </trkpt>
      <trkpt lat="45.89035" lon="6.44774">
        <ele>1772.81</ele>
        <time>2018-12-13T14:58:26Z</time>
      </trkpt>
      <trkpt lat="45.89037" lon="6.44771">
        <ele>1772.33</ele>
        <time>2018-12-13T14:58:27Z</time>
      </trkpt>
      <trkpt lat="45.89039" lon="6.4477">
        <ele>1771.85</ele>
        <time>2018-12-13T14:58:28Z</time>
      </trkpt>
      <trkpt lat="45.89041" lon="6.4477">
        <ele>1771.37</ele>
        <time>2018-12-13T14:58:29Z</time>
      </trkpt>
      <trkpt lat="45.89044" lon="6.4477">
        <ele>1770.89</ele>
        <time>2018-12-13T14:58:30Z</time>
      </trkpt>
      <trkpt lat="45.89045" lon="6.44771">
        <ele>1770.41</ele>
        <time>2018-12-13T14:58:31Z</time>
      </trkpt>
      <trkpt lat="45.89061" lon="6.44779">
        <ele>1767.04</ele>
        <time>2018-12-13T14:58:44Z</time>
      </trkpt>
      <trkpt lat="45.89074" lon="6.44785">
        <ele>1764.16</ele>
        <time>2018-12-13T14:58:48Z</time>
      </trkpt>
      <trkpt lat="45.89081" lon="6.44787">
        <ele>1761.27</ele>
        <time>2018-12-13T14:58:51Z</time>
      </trkpt>
      <trkpt lat="45.89084" lon="6.44783">
        <ele>1760.31</ele>
        <time>2018-12-13T14:58:52Z</time>
      </trkpt>
      <trkpt lat="45.89086" lon="6.44779">
        <ele>1758.39</ele>
        <time>2018-12-13T14:58:53Z</time>
      </trkpt>
      <trkpt lat="45.89089" lon="6.44777">
        <ele>1756.95</ele>
        <time>2018-12-13T14:58:54Z</time>
      </trkpt>
      <trkpt lat="45.8909" lon="6.44773">
        <ele>1755.02</ele>
        <time>2018-12-13T14:58:55Z</time>
      </trkpt>
      <trkpt lat="45.89091" lon="6.44768">
        <ele>1753.1</ele>
        <time>2018-12-13T14:58:56Z</time>
      </trkpt>
      <trkpt lat="45.89092" lon="6.44764">
        <ele>1751.66</ele>
        <time>2018-12-13T14:58:57Z</time>
      </trkpt>
      <trkpt lat="45.89094" lon="6.44761">
        <ele>1749.26</ele>
        <time>2018-12-13T14:58:58Z</time>
      </trkpt>
      <trkpt lat="45.89096" lon="6.44757">
        <ele>1747.81</ele>
        <time>2018-12-13T14:58:59Z</time>
      </trkpt>
      <trkpt lat="45.89098" lon="6.44753">
        <ele>1745.89</ele>
        <time>2018-12-13T14:59:00Z</time>
      </trkpt>
      <trkpt lat="45.891" lon="6.44751">
        <ele>1743.49</ele>
        <time>2018-12-13T14:59:01Z</time>
      </trkpt>
      <trkpt lat="45.89101" lon="6.44748">
        <ele>1742.05</ele>
        <time>2018-12-13T14:59:02Z</time>
      </trkpt>
      <trkpt lat="45.89101" lon="6.44745">
        <ele>1740.12</ele>
        <time>2018-12-13T14:59:03Z</time>
      </trkpt>
      <trkpt lat="45.891" lon="6.44741">
        <ele>1739.16</ele>
        <time>2018-12-13T14:59:04Z</time>
      </trkpt>
      <trkpt lat="45.891" lon="6.44735">
        <ele>1737.24</ele>
        <time>2018-12-13T14:59:05Z</time>
      </trkpt>
      <trkpt lat="45.891" lon="6.4473">
        <ele>1735.32</ele>
        <time>2018-12-13T14:59:06Z</time>
      </trkpt>
      <trkpt lat="45.891" lon="6.44727">
        <ele>1733.39</ele>
        <time>2018-12-13T14:59:07Z</time>
      </trkpt>
      <trkpt lat="45.89101" lon="6.44724">
        <ele>1731.47</ele>
        <time>2018-12-13T14:59:08Z</time>
      </trkpt>
      <trkpt lat="45.891" lon="6.44721">
        <ele>1730.51</ele>
        <time>2018-12-13T14:59:09Z</time>
      </trkpt>
      <trkpt lat="45.89099" lon="6.44718">
        <ele>1729.55</ele>
        <time>2018-12-13T14:59:10Z</time>
      </trkpt>
      <trkpt lat="45.89098" lon="6.44713">
        <ele>1728.11</ele>
        <time>2018-12-13T14:59:11Z</time>
      </trkpt>
      <trkpt lat="45.89099" lon="6.4471">
        <ele>1727.15</ele>
        <time>2018-12-13T14:59:12Z</time>
      </trkpt>
      <trkpt lat="45.89102" lon="6.44708">
        <ele>1725.7</ele>
        <time>2018-12-13T14:59:13Z</time>
      </trkpt>
      <trkpt lat="45.89103" lon="6.44705">
        <ele>1724.26</ele>
        <time>2018-12-13T14:59:14Z</time>
      </trkpt>
      <trkpt lat="45.89105" lon="6.44701">
        <ele>1722.82</ele>
        <time>2018-12-13T14:59:15Z</time>
      </trkpt>
      <trkpt lat="45.89107" lon="6.44698">
        <ele>1720.9</ele>
        <time>2018-12-13T14:59:16Z</time>
      </trkpt>
      <trkpt lat="45.89108" lon="6.44694">
        <ele>1719.94</ele>
        <time>2018-12-13T14:59:17Z</time>
      </trkpt>
      <trkpt lat="45.8911" lon="6.44691">
        <ele>1717.53</ele>
        <time>2018-12-13T14:59:18Z</time>
      </trkpt>
      <trkpt lat="45.89112" lon="6.44687">
        <ele>1715.61</ele>
        <time>2018-12-13T14:59:19Z</time>
      </trkpt>
      <trkpt lat="45.89113" lon="6.44684">
        <ele>1713.21</ele>
        <time>2018-12-13T14:59:20Z</time>
      </trkpt>
      <trkpt lat="45.89113" lon="6.4468">
        <ele>1711.76</ele>
        <time>2018-12-13T14:59:21Z</time>
      </trkpt>
      <trkpt lat="45.89112" lon="6.44676">
        <ele>1710.8</ele>
        <time>2018-12-13T14:59:22Z</time>
      </trkpt>
      <trkpt lat="45.89114" lon="6.44672">
        <ele>1709.36</ele>
        <time>2018-12-13T14:59:23Z</time>
      </trkpt>
      <trkpt lat="45.89116" lon="6.44671">
        <ele>1707.44</ele>
        <time>2018-12-13T14:59:24Z</time>
      </trkpt>
      <trkpt lat="45.8912" lon="6.44671">
        <ele>1706</ele>
        <time>2018-12-13T14:59:25Z</time>
      </trkpt>
      <trkpt lat="45.89123" lon="6.44672">
        <ele>1705.04</ele>
        <time>2018-12-13T14:59:26Z</time>
      </trkpt>
      <trkpt lat="45.89127" lon="6.44672">
        <ele>1703.59</ele>
        <time>2018-12-13T14:59:27Z</time>
      </trkpt>
      <trkpt lat="45.89132" lon="6.44672">
        <ele>1702.63</ele>
        <time>2018-12-13T14:59:28Z</time>
      </trkpt>
      <trkpt lat="45.89138" lon="6.44675">
        <ele>1702.15</ele>
        <time>2018-12-13T14:59:29Z</time>
      </trkpt>
      <trkpt lat="45.89144" lon="6.44678">
        <ele>1700.71</ele>
        <time>2018-12-13T14:59:30Z</time>
      </trkpt>
      <trkpt lat="45.8915" lon="6.44681">
        <ele>1700.23</ele>
        <time>2018-12-13T14:59:31Z</time>
      </trkpt>
      <trkpt lat="45.89156" lon="6.44685">
        <ele>1698.31</ele>
        <time>2018-12-13T14:59:32Z</time>
      </trkpt>
      <trkpt lat="45.89162" lon="6.44689">
        <ele>1696.38</ele>
        <time>2018-12-13T14:59:33Z</time>
      </trkpt>
      <trkpt lat="45.89167" lon="6.44693">
        <ele>1695.42</ele>
        <time>2018-12-13T14:59:34Z</time>
      </trkpt>
      <trkpt lat="45.89172" lon="6.44695">
        <ele>1694.94</ele>
        <time>2018-12-13T14:59:35Z</time>
      </trkpt>
      <trkpt lat="45.89177" lon="6.44699">
        <ele>1693.98</ele>
        <time>2018-12-13T14:59:36Z</time>
      </trkpt>
      <trkpt lat="45.89183" lon="6.44703">
        <ele>1693.5</ele>
        <time>2018-12-13T14:59:37Z</time>
      </trkpt>
      <trkpt lat="45.89193" lon="6.44713">
        <ele>1691.1</ele>
        <time>2018-12-13T14:59:39Z</time>
      </trkpt>
      <trkpt lat="45.89199" lon="6.44715">
        <ele>1690.14</ele>
        <time>2018-12-13T14:59:40Z</time>
      </trkpt>
      <trkpt lat="45.89205" lon="6.44719">
        <ele>1689.17</ele>
        <time>2018-12-13T14:59:41Z</time>
      </trkpt>
      <trkpt lat="45.89216" lon="6.44725">
        <ele>1686.77</ele>
        <time>2018-12-13T14:59:43Z</time>
      </trkpt>
      <trkpt lat="45.89221" lon="6.44727">
        <ele>1685.33</ele>
        <time>2018-12-13T14:59:44Z</time>
      </trkpt>
      <trkpt lat="45.89232" lon="6.44732">
        <ele>1683.41</ele>
        <time>2018-12-13T14:59:46Z</time>
      </trkpt>
      <trkpt lat="45.89237" lon="6.44735">
        <ele>1681.96</ele>
        <time>2018-12-13T14:59:47Z</time>
      </trkpt>
      <trkpt lat="45.89248" lon="6.44742">
        <ele>1679.56</ele>
        <time>2018-12-13T14:59:49Z</time>
      </trkpt>
      <trkpt lat="45.89253" lon="6.44744">
        <ele>1678.6</ele>
        <time>2018-12-13T14:59:50Z</time>
      </trkpt>
      <trkpt lat="45.89259" lon="6.44745">
        <ele>1677.16</ele>
        <time>2018-12-13T14:59:51Z</time>
      </trkpt>
      <trkpt lat="45.89264" lon="6.44744">
        <ele>1675.72</ele>
        <time>2018-12-13T14:59:52Z</time>
      </trkpt>
      <trkpt lat="45.8927" lon="6.44742">
        <ele>1674.27</ele>
        <time>2018-12-13T14:59:53Z</time>
      </trkpt>
      <trkpt lat="45.89276" lon="6.44742">
        <ele>1672.83</ele>
        <time>2018-12-13T14:59:54Z</time>
      </trkpt>
      <trkpt lat="45.89281" lon="6.44739">
        <ele>1671.87</ele>
        <time>2018-12-13T14:59:55Z</time>
      </trkpt>
      <trkpt lat="45.89285" lon="6.44734">
        <ele>1671.39</ele>
        <time>2018-12-13T14:59:56Z</time>
      </trkpt>
      <trkpt lat="45.89297" lon="6.44723">
        <ele>1668.02</ele>
        <time>2018-12-13T15:00:00Z</time>
      </trkpt>
      <trkpt lat="45.89297" lon="6.4472">
        <ele>1668.02</ele>
        <time>2018-12-13T15:00:01Z</time>
      </trkpt>
      <trkpt lat="45.89297" lon="6.44715">
        <ele>1666.58</ele>
        <time>2018-12-13T15:00:02Z</time>
      </trkpt>
      <trkpt lat="45.893" lon="6.44712">
        <ele>1665.62</ele>
        <time>2018-12-13T15:00:03Z</time>
      </trkpt>
      <trkpt lat="45.89304" lon="6.44707">
        <ele>1664.18</ele>
        <time>2018-12-13T15:00:04Z</time>
      </trkpt>
      <trkpt lat="45.8931" lon="6.44704">
        <ele>1662.74</ele>
        <time>2018-12-13T15:00:05Z</time>
      </trkpt>
      <trkpt lat="45.89317" lon="6.44703">
        <ele>1660.81</ele>
        <time>2018-12-13T15:00:06Z</time>
      </trkpt>
      <trkpt lat="45.89324" lon="6.44704">
        <ele>1659.37</ele>
        <time>2018-12-13T15:00:07Z</time>
      </trkpt>
      <trkpt lat="45.89331" lon="6.44706">
        <ele>1656.49</ele>
        <time>2018-12-13T15:00:08Z</time>
      </trkpt>
      <trkpt lat="45.89336" lon="6.44711">
        <ele>1654.57</ele>
        <time>2018-12-13T15:00:09Z</time>
      </trkpt>
      <trkpt lat="45.89342" lon="6.44713">
        <ele>1653.6</ele>
        <time>2018-12-13T15:00:10Z</time>
      </trkpt>
      <trkpt lat="45.89347" lon="6.44715">
        <ele>1652.64</ele>
        <time>2018-12-13T15:00:11Z</time>
      </trkpt>
      <trkpt lat="45.89352" lon="6.44718">
        <ele>1651.2</ele>
        <time>2018-12-13T15:00:12Z</time>
      </trkpt>
      <trkpt lat="45.89357" lon="6.44719">
        <ele>1650.72</ele>
        <time>2018-12-13T15:00:13Z</time>
      </trkpt>
      <trkpt lat="45.89362" lon="6.44721">
        <ele>1649.28</ele>
        <time>2018-12-13T15:00:14Z</time>
      </trkpt>
      <trkpt lat="45.89368" lon="6.44724">
        <ele>1647.84</ele>
        <time>2018-12-13T15:00:15Z</time>
      </trkpt>
      <trkpt lat="45.89373" lon="6.44724">
        <ele>1646.4</ele>
        <time>2018-12-13T15:00:16Z</time>
      </trkpt>
      <trkpt lat="45.8938" lon="6.44723">
        <ele>1644.95</ele>
        <time>2018-12-13T15:00:17Z</time>
      </trkpt>
      <trkpt lat="45.89386" lon="6.44724">
        <ele>1643.03</ele>
        <time>2018-12-13T15:00:18Z</time>
      </trkpt>
      <trkpt lat="45.89392" lon="6.44724">
        <ele>1642.07</ele>
        <time>2018-12-13T15:00:19Z</time>
      </trkpt>
      <trkpt lat="45.89399" lon="6.44723">
        <ele>1641.59</ele>
        <time>2018-12-13T15:00:20Z</time>
      </trkpt>
      <trkpt lat="45.89405" lon="6.4472">
        <ele>1639.67</ele>
        <time>2018-12-13T15:00:21Z</time>
      </trkpt>
      <trkpt lat="45.8941" lon="6.44716">
        <ele>1638.22</ele>
        <time>2018-12-13T15:00:22Z</time>
      </trkpt>
      <trkpt lat="45.89415" lon="6.44711">
        <ele>1636.78</ele>
        <time>2018-12-13T15:00:23Z</time>
      </trkpt>
      <trkpt lat="45.89419" lon="6.44706">
        <ele>1635.82</ele>
        <time>2018-12-13T15:00:24Z</time>
      </trkpt>
      <trkpt lat="45.89425" lon="6.447">
        <ele>1634.38</ele>
        <time>2018-12-13T15:00:25Z</time>
      </trkpt>
      <trkpt lat="45.8943" lon="6.44696">
        <ele>1632.94</ele>
        <time>2018-12-13T15:00:26Z</time>
      </trkpt>
      <trkpt lat="45.89435" lon="6.44688">
        <ele>1631.49</ele>
        <time>2018-12-13T15:00:27Z</time>
      </trkpt>
      <trkpt lat="45.8944" lon="6.4468">
        <ele>1628.13</ele>
        <time>2018-12-13T15:00:28Z</time>
      </trkpt>
      <trkpt lat="45.89447" lon="6.44675">
        <ele>1625.25</ele>
        <time>2018-12-13T15:00:29Z</time>
      </trkpt>
      <trkpt lat="45.89452" lon="6.4467">
        <ele>1623.8</ele>
        <time>2018-12-13T15:00:30Z</time>
      </trkpt>
      <trkpt lat="45.89456" lon="6.44664">
        <ele>1622.36</ele>
        <time>2018-12-13T15:00:31Z</time>
      </trkpt>
      <trkpt lat="45.89461" lon="6.44658">
        <ele>1620.44</ele>
        <time>2018-12-13T15:00:32Z</time>
      </trkpt>
      <trkpt lat="45.89464" lon="6.44652">
        <ele>1619</ele>
        <time>2018-12-13T15:00:33Z</time>
      </trkpt>
      <trkpt lat="45.89467" lon="6.44645">
        <ele>1618.04</ele>
        <time>2018-12-13T15:00:34Z</time>
      </trkpt>
      <trkpt lat="45.89469" lon="6.44639">
        <ele>1617.07</ele>
        <time>2018-12-13T15:00:35Z</time>
      </trkpt>
      <trkpt lat="45.89471" lon="6.44632">
        <ele>1616.59</ele>
        <time>2018-12-13T15:00:36Z</time>
      </trkpt>
      <trkpt lat="45.89474" lon="6.44626">
        <ele>1615.63</ele>
        <time>2018-12-13T15:00:37Z</time>
      </trkpt>
      <trkpt lat="45.89477" lon="6.4462">
        <ele>1614.67</ele>
        <time>2018-12-13T15:00:38Z</time>
      </trkpt>
      <trkpt lat="45.8948" lon="6.44614">
        <ele>1614.19</ele>
        <time>2018-12-13T15:00:39Z</time>
      </trkpt>
      <trkpt lat="45.89483" lon="6.44608">
        <ele>1613.23</ele>
        <time>2018-12-13T15:00:40Z</time>
      </trkpt>
      <trkpt lat="45.89486" lon="6.44603">
        <ele>1612.27</ele>
        <time>2018-12-13T15:00:41Z</time>
      </trkpt>
      <trkpt lat="45.89488" lon="6.44595">
        <ele>1611.31</ele>
        <time>2018-12-13T15:00:42Z</time>
      </trkpt>
      <trkpt lat="45.8949" lon="6.44589">
        <ele>1609.86</ele>
        <time>2018-12-13T15:00:43Z</time>
      </trkpt>
      <trkpt lat="45.89492" lon="6.44583">
        <ele>1609.38</ele>
        <time>2018-12-13T15:00:44Z</time>
      </trkpt>
      <trkpt lat="45.89493" lon="6.44577">
        <ele>1607.46</ele>
        <time>2018-12-13T15:00:45Z</time>
      </trkpt>
      <trkpt lat="45.89496" lon="6.4457">
        <ele>1606.02</ele>
        <time>2018-12-13T15:00:46Z</time>
      </trkpt>
      <trkpt lat="45.89499" lon="6.44562">
        <ele>1604.58</ele>
        <time>2018-12-13T15:00:47Z</time>
      </trkpt>
      <trkpt lat="45.89505" lon="6.44546">
        <ele>1601.21</ele>
        <time>2018-12-13T15:00:49Z</time>
      </trkpt>
      <trkpt lat="45.89508" lon="6.44537">
        <ele>1599.77</ele>
        <time>2018-12-13T15:00:50Z</time>
      </trkpt>
      <trkpt lat="45.8951" lon="6.44528">
        <ele>1596.41</ele>
        <time>2018-12-13T15:00:51Z</time>
      </trkpt>
      <trkpt lat="45.89514" lon="6.44511">
        <ele>1593.04</ele>
        <time>2018-12-13T15:00:53Z</time>
      </trkpt>
      <trkpt lat="45.89517" lon="6.44503">
        <ele>1591.6</ele>
        <time>2018-12-13T15:00:54Z</time>
      </trkpt>
      <trkpt lat="45.8952" lon="6.44495">
        <ele>1589.68</ele>
        <time>2018-12-13T15:00:55Z</time>
      </trkpt>
      <trkpt lat="45.89522" lon="6.44487">
        <ele>1588.24</ele>
        <time>2018-12-13T15:00:56Z</time>
      </trkpt>
      <trkpt lat="45.89525" lon="6.4448">
        <ele>1586.79</ele>
        <time>2018-12-13T15:00:57Z</time>
      </trkpt>
      <trkpt lat="45.89528" lon="6.44472">
        <ele>1584.39</ele>
        <time>2018-12-13T15:00:58Z</time>
      </trkpt>
      <trkpt lat="45.89531" lon="6.44463">
        <ele>1581.99</ele>
        <time>2018-12-13T15:00:59Z</time>
      </trkpt>
      <trkpt lat="45.89535" lon="6.44455">
        <ele>1580.06</ele>
        <time>2018-12-13T15:01:00Z</time>
      </trkpt>
      <trkpt lat="45.89538" lon="6.44446">
        <ele>1578.14</ele>
        <time>2018-12-13T15:01:01Z</time>
      </trkpt>
      <trkpt lat="45.89542" lon="6.44437">
        <ele>1576.22</ele>
        <time>2018-12-13T15:01:02Z</time>
      </trkpt>
      <trkpt lat="45.89546" lon="6.44429">
        <ele>1574.78</ele>
        <time>2018-12-13T15:01:03Z</time>
      </trkpt>
      <trkpt lat="45.8955" lon="6.4442">
        <ele>1572.85</ele>
        <time>2018-12-13T15:01:04Z</time>
      </trkpt>
      <trkpt lat="45.89553" lon="6.4441">
        <ele>1570.45</ele>
        <time>2018-12-13T15:01:05Z</time>
      </trkpt>
      <trkpt lat="45.89558" lon="6.44402">
        <ele>1568.05</ele>
        <time>2018-12-13T15:01:06Z</time>
      </trkpt>
      <trkpt lat="45.89564" lon="6.44394">
        <ele>1566.61</ele>
        <time>2018-12-13T15:01:07Z</time>
      </trkpt>
      <trkpt lat="45.89569" lon="6.44383">
        <ele>1564.68</ele>
        <time>2018-12-13T15:01:08Z</time>
      </trkpt>
      <trkpt lat="45.89573" lon="6.44373">
        <ele>1562.28</ele>
        <time>2018-12-13T15:01:09Z</time>
      </trkpt>
      <trkpt lat="45.89579" lon="6.44365">
        <ele>1559.4</ele>
        <time>2018-12-13T15:01:10Z</time>
      </trkpt>
      <trkpt lat="45.89586" lon="6.44359">
        <ele>1558.43</ele>
        <time>2018-12-13T15:01:11Z</time>
      </trkpt>
      <trkpt lat="45.8959" lon="6.4435">
        <ele>1557.47</ele>
        <time>2018-12-13T15:01:12Z</time>
      </trkpt>
      <trkpt lat="45.89593" lon="6.4434">
        <ele>1553.63</ele>
        <time>2018-12-13T15:01:13Z</time>
      </trkpt>
      <trkpt lat="45.89597" lon="6.44331">
        <ele>1551.71</ele>
        <time>2018-12-13T15:01:14Z</time>
      </trkpt>
      <trkpt lat="45.896" lon="6.44322">
        <ele>1550.26</ele>
        <time>2018-12-13T15:01:15Z</time>
      </trkpt>
      <trkpt lat="45.89601" lon="6.44311">
        <ele>1549.3</ele>
        <time>2018-12-13T15:01:16Z</time>
      </trkpt>
      <trkpt lat="45.89604" lon="6.44303">
        <ele>1547.38</ele>
        <time>2018-12-13T15:01:17Z</time>
      </trkpt>
      <trkpt lat="45.89609" lon="6.44297">
        <ele>1546.42</ele>
        <time>2018-12-13T15:01:18Z</time>
      </trkpt>
      <trkpt lat="45.89612" lon="6.44289">
        <ele>1544.98</ele>
        <time>2018-12-13T15:01:19Z</time>
      </trkpt>
      <trkpt lat="45.89614" lon="6.44282">
        <ele>1544.01</ele>
        <time>2018-12-13T15:01:20Z</time>
      </trkpt>
      <trkpt lat="45.89616" lon="6.44277">
        <ele>1543.05</ele>
        <time>2018-12-13T15:01:21Z</time>
      </trkpt>
      <trkpt lat="45.89617" lon="6.44271">
        <ele>1542.57</ele>
        <time>2018-12-13T15:01:22Z</time>
      </trkpt>
      <trkpt lat="45.8962" lon="6.44265">
        <ele>1541.61</ele>
        <time>2018-12-13T15:01:23Z</time>
      </trkpt>
      <trkpt lat="45.89621" lon="6.44259">
        <ele>1540.65</ele>
        <time>2018-12-13T15:01:24Z</time>
      </trkpt>
      <trkpt lat="45.89622" lon="6.44252">
        <ele>1539.69</ele>
        <time>2018-12-13T15:01:25Z</time>
      </trkpt>
      <trkpt lat="45.89624" lon="6.44246">
        <ele>1539.21</ele>
        <time>2018-12-13T15:01:26Z</time>
      </trkpt>
      <trkpt lat="45.89625" lon="6.44239">
        <ele>1538.25</ele>
        <time>2018-12-13T15:01:27Z</time>
      </trkpt>
      <trkpt lat="45.89627" lon="6.44233">
        <ele>1537.77</ele>
        <time>2018-12-13T15:01:28Z</time>
      </trkpt>
      <trkpt lat="45.89628" lon="6.44226">
        <ele>1536.8</ele>
        <time>2018-12-13T15:01:29Z</time>
      </trkpt>
      <trkpt lat="45.89629" lon="6.44219">
        <ele>1535.84</ele>
        <time>2018-12-13T15:01:30Z</time>
      </trkpt>
      <trkpt lat="45.8963" lon="6.44212">
        <ele>1534.88</ele>
        <time>2018-12-13T15:01:31Z</time>
      </trkpt>
      <trkpt lat="45.89631" lon="6.44205">
        <ele>1534.4</ele>
        <time>2018-12-13T15:01:32Z</time>
      </trkpt>
      <trkpt lat="45.89629" lon="6.44198">
        <ele>1533.44</ele>
        <time>2018-12-13T15:01:33Z</time>
      </trkpt>
      <trkpt lat="45.89629" lon="6.44192">
        <ele>1532.48</ele>
        <time>2018-12-13T15:01:34Z</time>
      </trkpt>
      <trkpt lat="45.89629" lon="6.44185">
        <ele>1532</ele>
        <time>2018-12-13T15:01:35Z</time>
      </trkpt>
      <trkpt lat="45.89628" lon="6.44177">
        <ele>1531.52</ele>
        <time>2018-12-13T15:01:36Z</time>
      </trkpt>
      <trkpt lat="45.89629" lon="6.44169">
        <ele>1530.08</ele>
        <time>2018-12-13T15:01:37Z</time>
      </trkpt>
      <trkpt lat="45.89629" lon="6.44162">
        <ele>1528.63</ele>
        <time>2018-12-13T15:01:38Z</time>
      </trkpt>
      <trkpt lat="45.89629" lon="6.44156">
        <ele>1527.19</ele>
        <time>2018-12-13T15:01:39Z</time>
      </trkpt>
      <trkpt lat="45.89629" lon="6.4415">
        <ele>1526.71</ele>
        <time>2018-12-13T15:01:40Z</time>
      </trkpt>
      <trkpt lat="45.8963" lon="6.44145">
        <ele>1525.75</ele>
        <time>2018-12-13T15:01:41Z</time>
      </trkpt>
      <trkpt lat="45.8963" lon="6.4414">
        <ele>1525.27</ele>
        <time>2018-12-13T15:01:42Z</time>
      </trkpt>
      <trkpt lat="45.8963" lon="6.44137">
        <ele>1524.79</ele>
        <time>2018-12-13T15:01:43Z</time>
      </trkpt>
      <trkpt lat="45.89631" lon="6.44133">
        <ele>1524.31</ele>
        <time>2018-12-13T15:01:44Z</time>
      </trkpt>
      <trkpt lat="45.89632" lon="6.44129">
        <ele>1523.83</ele>
        <time>2018-12-13T15:01:45Z</time>
      </trkpt>
      <trkpt lat="45.89632" lon="6.44125">
        <ele>1523.35</ele>
        <time>2018-12-13T15:01:46Z</time>
      </trkpt>
      <trkpt lat="45.89632" lon="6.44121">
        <ele>1522.39</ele>
        <time>2018-12-13T15:01:47Z</time>
      </trkpt>
      <trkpt lat="45.89635" lon="6.4412">
        <ele>1521.42</ele>
        <time>2018-12-13T15:01:48Z</time>
      </trkpt>
      <trkpt lat="45.89637" lon="6.44119">
        <ele>1520.94</ele>
        <time>2018-12-13T15:01:49Z</time>
      </trkpt>
      <trkpt lat="45.89639" lon="6.44117">
        <ele>1519.98</ele>
        <time>2018-12-13T15:01:50Z</time>
      </trkpt>
      <trkpt lat="45.89638" lon="6.44113">
        <ele>1519.5</ele>
        <time>2018-12-13T15:01:51Z</time>
      </trkpt>
      <trkpt lat="45.89638" lon="6.44108">
        <ele>1518.54</ele>
        <time>2018-12-13T15:01:52Z</time>
      </trkpt>
      <trkpt lat="45.89639" lon="6.44102">
        <ele>1517.58</ele>
        <time>2018-12-13T15:01:53Z</time>
      </trkpt>
      <trkpt lat="45.89641" lon="6.44098">
        <ele>1516.62</ele>
        <time>2018-12-13T15:01:54Z</time>
      </trkpt>
      <trkpt lat="45.89643" lon="6.44094">
        <ele>1515.66</ele>
        <time>2018-12-13T15:01:55Z</time>
      </trkpt>
      <trkpt lat="45.89645" lon="6.44089">
        <ele>1515.18</ele>
        <time>2018-12-13T15:01:56Z</time>
      </trkpt>
      <trkpt lat="45.89647" lon="6.44085">
        <ele>1514.69</ele>
        <time>2018-12-13T15:01:57Z</time>
      </trkpt>
      <trkpt lat="45.8965" lon="6.44082">
        <ele>1513.73</ele>
        <time>2018-12-13T15:01:58Z</time>
      </trkpt>
      <trkpt lat="45.89653" lon="6.44079">
        <ele>1513.73</ele>
        <time>2018-12-13T15:01:59Z</time>
      </trkpt>
      <trkpt lat="45.89656" lon="6.44077">
        <ele>1513.25</ele>
        <time>2018-12-13T15:02:00Z</time>
      </trkpt>
      <trkpt lat="45.8966" lon="6.44078">
        <ele>1512.77</ele>
        <time>2018-12-13T15:02:01Z</time>
      </trkpt>
      <trkpt lat="45.89671" lon="6.44081">
        <ele>1511.81</ele>
        <time>2018-12-13T15:02:04Z</time>
      </trkpt>
      <trkpt lat="45.89681" lon="6.44083">
        <ele>1510.85</ele>
        <time>2018-12-13T15:02:06Z</time>
      </trkpt>
      <trkpt lat="45.89688" lon="6.44085">
        <ele>1509.41</ele>
        <time>2018-12-13T15:02:08Z</time>
      </trkpt>
      <trkpt lat="45.89692" lon="6.44083">
        <ele>1509.41</ele>
        <time>2018-12-13T15:02:09Z</time>
      </trkpt>
      <trkpt lat="45.89693" lon="6.44079">
        <ele>1509.41</ele>
        <time>2018-12-13T15:02:10Z</time>
      </trkpt>
      <trkpt lat="45.89693" lon="6.44075">
        <ele>1509.41</ele>
        <time>2018-12-13T15:02:11Z</time>
      </trkpt>
      <trkpt lat="45.89694" lon="6.4407">
        <ele>1508.93</ele>
        <time>2018-12-13T15:02:12Z</time>
      </trkpt>
      <trkpt lat="45.89694" lon="6.44064">
        <ele>1507.97</ele>
        <time>2018-12-13T15:02:13Z</time>
      </trkpt>
      <trkpt lat="45.89693" lon="6.44058">
        <ele>1507</ele>
        <time>2018-12-13T15:02:14Z</time>
      </trkpt>
      <trkpt lat="45.89693" lon="6.44051">
        <ele>1506.04</ele>
        <time>2018-12-13T15:02:15Z</time>
      </trkpt>
      <trkpt lat="45.89694" lon="6.44046">
        <ele>1505.08</ele>
        <time>2018-12-13T15:02:16Z</time>
      </trkpt>
      <trkpt lat="45.89697" lon="6.44043">
        <ele>1504.6</ele>
        <time>2018-12-13T15:02:17Z</time>
      </trkpt>
      <trkpt lat="45.897" lon="6.44041">
        <ele>1503.64</ele>
        <time>2018-12-13T15:02:18Z</time>
      </trkpt>
      <trkpt lat="45.89703" lon="6.44036">
        <ele>1502.68</ele>
        <time>2018-12-13T15:02:19Z</time>
      </trkpt>
      <trkpt lat="45.89706" lon="6.44032">
        <ele>1501.72</ele>
        <time>2018-12-13T15:02:20Z</time>
      </trkpt>
      <trkpt lat="45.8971" lon="6.44029">
        <ele>1500.76</ele>
        <time>2018-12-13T15:02:21Z</time>
      </trkpt>
      <trkpt lat="45.89712" lon="6.44025">
        <ele>1499.79</ele>
        <time>2018-12-13T15:02:22Z</time>
      </trkpt>
      <trkpt lat="45.89716" lon="6.44021">
        <ele>1498.83</ele>
        <time>2018-12-13T15:02:23Z</time>
      </trkpt>
      <trkpt lat="45.89719" lon="6.44019">
        <ele>1497.87</ele>
        <time>2018-12-13T15:02:24Z</time>
      </trkpt>
      <trkpt lat="45.89721" lon="6.44016">
        <ele>1497.39</ele>
        <time>2018-12-13T15:02:25Z</time>
      </trkpt>
      <trkpt lat="45.89724" lon="6.44013">
        <ele>1496.43</ele>
        <time>2018-12-13T15:02:26Z</time>
      </trkpt>
      <trkpt lat="45.89726" lon="6.4401">
        <ele>1494.99</ele>
        <time>2018-12-13T15:02:27Z</time>
      </trkpt>
      <trkpt lat="45.89727" lon="6.44007">
        <ele>1494.03</ele>
        <time>2018-12-13T15:02:28Z</time>
      </trkpt>
      <trkpt lat="45.89727" lon="6.44003">
        <ele>1493.55</ele>
        <time>2018-12-13T15:02:29Z</time>
      </trkpt>
      <trkpt lat="45.89726" lon="6.44">
        <ele>1492.58</ele>
        <time>2018-12-13T15:02:30Z</time>
      </trkpt>
      <trkpt lat="45.89713" lon="6.43984">
        <ele>1489.7</ele>
        <time>2018-12-13T15:02:38Z</time>
      </trkpt>
      <trkpt lat="45.89706" lon="6.43976">
        <ele>1488.74</ele>
        <time>2018-12-13T15:02:42Z</time>
      </trkpt>
      <trkpt lat="45.89707" lon="6.43974">
        <ele>1488.26</ele>
        <time>2018-12-13T15:02:43Z</time>
      </trkpt>
      <trkpt lat="45.89709" lon="6.4397">
        <ele>1486.82</ele>
        <time>2018-12-13T15:02:47Z</time>
      </trkpt>
      <trkpt lat="45.89709" lon="6.43968">
        <ele>1486.34</ele>
        <time>2018-12-13T15:02:48Z</time>
      </trkpt>
      <trkpt lat="45.89707" lon="6.43966">
        <ele>1485.85</ele>
        <time>2018-12-13T15:02:49Z</time>
      </trkpt>
      <trkpt lat="45.89706" lon="6.43964">
        <ele>1485.37</ele>
        <time>2018-12-13T15:02:50Z</time>
      </trkpt>
      <trkpt lat="45.89703" lon="6.43963">
        <ele>1484.89</ele>
        <time>2018-12-13T15:02:54Z</time>
      </trkpt>
      <trkpt lat="45.89701" lon="6.43962">
        <ele>1484.89</ele>
        <time>2018-12-13T15:02:55Z</time>
      </trkpt>
      <trkpt lat="45.897" lon="6.43959">
        <ele>1484.41</ele>
        <time>2018-12-13T15:02:56Z</time>
      </trkpt>
      <trkpt lat="45.89701" lon="6.43956">
        <ele>1483.45</ele>
        <time>2018-12-13T15:02:57Z</time>
      </trkpt>
      <trkpt lat="45.89702" lon="6.43952">
        <ele>1482.97</ele>
        <time>2018-12-13T15:02:58Z</time>
      </trkpt>
      <trkpt lat="45.89703" lon="6.43949">
        <ele>1481.53</ele>
        <time>2018-12-13T15:02:59Z</time>
      </trkpt>
      <trkpt lat="45.89704" lon="6.43946">
        <ele>1480.57</ele>
        <time>2018-12-13T15:03:00Z</time>
      </trkpt>
      <trkpt lat="45.89705" lon="6.43942">
        <ele>1479.13</ele>
        <time>2018-12-13T15:03:01Z</time>
      </trkpt>
      <trkpt lat="45.89706" lon="6.43938">
        <ele>1477.68</ele>
        <time>2018-12-13T15:03:02Z</time>
      </trkpt>
      <trkpt lat="45.89707" lon="6.43936">
        <ele>1476.72</ele>
        <time>2018-12-13T15:03:03Z</time>
      </trkpt>
      <trkpt lat="45.89712" lon="6.43928">
        <ele>1473.84</ele>
        <time>2018-12-13T15:03:06Z</time>
      </trkpt>
      <trkpt lat="45.89715" lon="6.43927">
        <ele>1473.36</ele>
        <time>2018-12-13T15:03:07Z</time>
      </trkpt>
      <trkpt lat="45.89716" lon="6.43924">
        <ele>1472.4</ele>
        <time>2018-12-13T15:03:08Z</time>
      </trkpt>
      <trkpt lat="45.89717" lon="6.4392">
        <ele>1471.92</ele>
        <time>2018-12-13T15:03:09Z</time>
      </trkpt>
      <trkpt lat="45.89718" lon="6.43916">
        <ele>1470.95</ele>
        <time>2018-12-13T15:03:10Z</time>
      </trkpt>
      <trkpt lat="45.89721" lon="6.43914">
        <ele>1469.99</ele>
        <time>2018-12-13T15:03:11Z</time>
      </trkpt>
      <trkpt lat="45.89722" lon="6.43911">
        <ele>1469.03</ele>
        <time>2018-12-13T15:03:12Z</time>
      </trkpt>
      <trkpt lat="45.89723" lon="6.43906">
        <ele>1468.55</ele>
        <time>2018-12-13T15:03:13Z</time>
      </trkpt>
      <trkpt lat="45.89725" lon="6.43902">
        <ele>1467.59</ele>
        <time>2018-12-13T15:03:14Z</time>
      </trkpt>
      <trkpt lat="45.89727" lon="6.439">
        <ele>1466.15</ele>
        <time>2018-12-13T15:03:15Z</time>
      </trkpt>
      <trkpt lat="45.8973" lon="6.439">
        <ele>1464.71</ele>
        <time>2018-12-13T15:03:16Z</time>
      </trkpt>
      <trkpt lat="45.89735" lon="6.43896">
        <ele>1463.74</ele>
        <time>2018-12-13T15:03:18Z</time>
      </trkpt>
      <trkpt lat="45.89737" lon="6.43892">
        <ele>1462.78</ele>
        <time>2018-12-13T15:03:19Z</time>
      </trkpt>
      <trkpt lat="45.8974" lon="6.4389">
        <ele>1461.82</ele>
        <time>2018-12-13T15:03:20Z</time>
      </trkpt>
      <trkpt lat="45.89742" lon="6.43887">
        <ele>1460.86</ele>
        <time>2018-12-13T15:03:21Z</time>
      </trkpt>
      <trkpt lat="45.89745" lon="6.43884">
        <ele>1459.9</ele>
        <time>2018-12-13T15:03:22Z</time>
      </trkpt>
      <trkpt lat="45.89748" lon="6.43883">
        <ele>1458.46</ele>
        <time>2018-12-13T15:03:23Z</time>
      </trkpt>
      <trkpt lat="45.8975" lon="6.43881">
        <ele>1457.5</ele>
        <time>2018-12-13T15:03:24Z</time>
      </trkpt>
      <trkpt lat="45.89751" lon="6.43878">
        <ele>1457.02</ele>
        <time>2018-12-13T15:03:25Z</time>
      </trkpt>
      <trkpt lat="45.89753" lon="6.43875">
        <ele>1456.05</ele>
        <time>2018-12-13T15:03:26Z</time>
      </trkpt>
      <trkpt lat="45.89755" lon="6.43872">
        <ele>1455.57</ele>
        <time>2018-12-13T15:03:27Z</time>
      </trkpt>
      <trkpt lat="45.89758" lon="6.43869">
        <ele>1455.09</ele>
        <time>2018-12-13T15:03:28Z</time>
      </trkpt>
      <trkpt lat="45.89761" lon="6.43866">
        <ele>1453.65</ele>
        <time>2018-12-13T15:03:29Z</time>
      </trkpt>
      <trkpt lat="45.89763" lon="6.43863">
        <ele>1452.69</ele>
        <time>2018-12-13T15:03:30Z</time>
      </trkpt>
      <trkpt lat="45.89766" lon="6.43861">
        <ele>1451.73</ele>
        <time>2018-12-13T15:03:31Z</time>
      </trkpt>
      <trkpt lat="45.89769" lon="6.4386">
        <ele>1450.29</ele>
        <time>2018-12-13T15:03:32Z</time>
      </trkpt>
      <trkpt lat="45.8977" lon="6.4386">
        <ele>1449.81</ele>
        <time>2018-12-13T15:03:33Z</time>
      </trkpt>
      <trkpt lat="45.89771" lon="6.4386">
        <ele>1448.84</ele>
        <time>2018-12-13T15:03:34Z</time>
      </trkpt>
      <trkpt lat="45.89771" lon="6.43858">
        <ele>1448.36</ele>
        <time>2018-12-13T15:03:35Z</time>
      </trkpt>
      <trkpt lat="45.8977" lon="6.43856">
        <ele>1447.88</ele>
        <time>2018-12-13T15:03:36Z</time>
      </trkpt>
      <trkpt lat="45.89769" lon="6.43855">
        <ele>1446.92</ele>
        <time>2018-12-13T15:03:38Z</time>
      </trkpt>
      <trkpt lat="45.89771" lon="6.43853">
        <ele>1446.92</ele>
        <time>2018-12-13T15:03:43Z</time>
      </trkpt>
      <trkpt lat="45.89772" lon="6.43853">
        <ele>1446.44</ele>
        <time>2018-12-13T15:03:44Z</time>
      </trkpt>
      <trkpt lat="45.89773" lon="6.43851">
        <ele>1445.96</ele>
        <time>2018-12-13T15:03:45Z</time>
      </trkpt>
      <trkpt lat="45.89775" lon="6.4385">
        <ele>1445.48</ele>
        <time>2018-12-13T15:03:46Z</time>
      </trkpt>
      <trkpt lat="45.89776" lon="6.43848">
        <ele>1445</ele>
        <time>2018-12-13T15:03:47Z</time>
      </trkpt>
      <trkpt lat="45.89777" lon="6.43848">
        <ele>1444.52</ele>
        <time>2018-12-13T15:03:48Z</time>
      </trkpt>
      <trkpt lat="45.89778" lon="6.43847">
        <ele>1444.04</ele>
        <time>2018-12-13T15:03:49Z</time>
      </trkpt>
      <trkpt lat="45.89779" lon="6.43846">
        <ele>1444.04</ele>
        <time>2018-12-13T15:03:50Z</time>
      </trkpt>
      <trkpt lat="45.89779" lon="6.43844">
        <ele>1443.08</ele>
        <time>2018-12-13T15:03:51Z</time>
      </trkpt>
      <trkpt lat="45.89778" lon="6.43843">
        <ele>1443.08</ele>
        <time>2018-12-13T15:03:52Z</time>
      </trkpt>
      <trkpt lat="45.89776" lon="6.43841">
        <ele>1442.6</ele>
        <time>2018-12-13T15:03:53Z</time>
      </trkpt>
      <trkpt lat="45.89775" lon="6.43826">
        <ele>1440.67</ele>
        <time>2018-12-13T15:03:57Z</time>
      </trkpt>
      <trkpt lat="45.89777" lon="6.43823">
        <ele>1440.19</ele>
        <time>2018-12-13T15:03:58Z</time>
      </trkpt>
      <trkpt lat="45.89781" lon="6.43814">
        <ele>1437.31</ele>
        <time>2018-12-13T15:04:00Z</time>
      </trkpt>
      <trkpt lat="45.89786" lon="6.43807">
        <ele>1435.39</ele>
        <time>2018-12-13T15:04:02Z</time>
      </trkpt>
      <trkpt lat="45.89794" lon="6.43793">
        <ele>1432.02</ele>
        <time>2018-12-13T15:04:05Z</time>
      </trkpt>
      <trkpt lat="45.89798" lon="6.4379">
        <ele>1430.58</ele>
        <time>2018-12-13T15:04:06Z</time>
      </trkpt>
      <trkpt lat="45.89805" lon="6.43784">
        <ele>1428.18</ele>
        <time>2018-12-13T15:04:08Z</time>
      </trkpt>
      <trkpt lat="45.89809" lon="6.43781">
        <ele>1426.73</ele>
        <time>2018-12-13T15:04:09Z</time>
      </trkpt>
      <trkpt lat="45.89812" lon="6.43777">
        <ele>1425.77</ele>
        <time>2018-12-13T15:04:10Z</time>
      </trkpt>
      <trkpt lat="45.89817" lon="6.43774">
        <ele>1423.85</ele>
        <time>2018-12-13T15:04:11Z</time>
      </trkpt>
      <trkpt lat="45.89822" lon="6.43771">
        <ele>1422.41</ele>
        <time>2018-12-13T15:04:12Z</time>
      </trkpt>
      <trkpt lat="45.89825" lon="6.43768">
        <ele>1421.45</ele>
        <time>2018-12-13T15:04:13Z</time>
      </trkpt>
      <trkpt lat="45.89829" lon="6.43763">
        <ele>1420</ele>
        <time>2018-12-13T15:04:14Z</time>
      </trkpt>
      <trkpt lat="45.89833" lon="6.4376">
        <ele>1418.56</ele>
        <time>2018-12-13T15:04:15Z</time>
      </trkpt>
      <trkpt lat="45.89836" lon="6.43755">
        <ele>1417.12</ele>
        <time>2018-12-13T15:04:16Z</time>
      </trkpt>
      <trkpt lat="45.89839" lon="6.4375">
        <ele>1416.16</ele>
        <time>2018-12-13T15:04:17Z</time>
      </trkpt>
      <trkpt lat="45.89843" lon="6.43746">
        <ele>1414.24</ele>
        <time>2018-12-13T15:04:18Z</time>
      </trkpt>
      <trkpt lat="45.89845" lon="6.43741">
        <ele>1412.79</ele>
        <time>2018-12-13T15:04:19Z</time>
      </trkpt>
      <trkpt lat="45.89849" lon="6.43737">
        <ele>1411.35</ele>
        <time>2018-12-13T15:04:20Z</time>
      </trkpt>
      <trkpt lat="45.89853" lon="6.43734">
        <ele>1409.43</ele>
        <time>2018-12-13T15:04:21Z</time>
      </trkpt>
      <trkpt lat="45.89855" lon="6.43729">
        <ele>1407.99</ele>
        <time>2018-12-13T15:04:22Z</time>
      </trkpt>
      <trkpt lat="45.89859" lon="6.43724">
        <ele>1407.03</ele>
        <time>2018-12-13T15:04:23Z</time>
      </trkpt>
      <trkpt lat="45.89862" lon="6.4372">
        <ele>1405.1</ele>
        <time>2018-12-13T15:04:24Z</time>
      </trkpt>
      <trkpt lat="45.89865" lon="6.43715">
        <ele>1403.18</ele>
        <time>2018-12-13T15:04:25Z</time>
      </trkpt>
      <trkpt lat="45.89867" lon="6.43711">
        <ele>1401.74</ele>
        <time>2018-12-13T15:04:26Z</time>
      </trkpt>
      <trkpt lat="45.8987" lon="6.43707">
        <ele>1400.3</ele>
        <time>2018-12-13T15:04:27Z</time>
      </trkpt>
      <trkpt lat="45.89873" lon="6.43703">
        <ele>1398.86</ele>
        <time>2018-12-13T15:04:28Z</time>
      </trkpt>
      <trkpt lat="45.89876" lon="6.43698">
        <ele>1397.41</ele>
        <time>2018-12-13T15:04:29Z</time>
      </trkpt>
      <trkpt lat="45.89877" lon="6.43693">
        <ele>1395.49</ele>
        <time>2018-12-13T15:04:30Z</time>
      </trkpt>
      <trkpt lat="45.8988" lon="6.43689">
        <ele>1393.57</ele>
        <time>2018-12-13T15:04:31Z</time>
      </trkpt>
      <trkpt lat="45.89883" lon="6.43685">
        <ele>1392.61</ele>
        <time>2018-12-13T15:04:32Z</time>
      </trkpt>
      <trkpt lat="45.89887" lon="6.43679">
        <ele>1390.68</ele>
        <time>2018-12-13T15:04:33Z</time>
      </trkpt>
      <trkpt lat="45.89889" lon="6.43674">
        <ele>1388.76</ele>
        <time>2018-12-13T15:04:34Z</time>
      </trkpt>
      <trkpt lat="45.89892" lon="6.43671">
        <ele>1387.32</ele>
        <time>2018-12-13T15:04:35Z</time>
      </trkpt>
      <trkpt lat="45.89895" lon="6.43667">
        <ele>1385.88</ele>
        <time>2018-12-13T15:04:36Z</time>
      </trkpt>
      <trkpt lat="45.89898" lon="6.43663">
        <ele>1383.47</ele>
        <time>2018-12-13T15:04:37Z</time>
      </trkpt>
      <trkpt lat="45.89901" lon="6.43659">
        <ele>1382.03</ele>
        <time>2018-12-13T15:04:38Z</time>
      </trkpt>
      <trkpt lat="45.89904" lon="6.43654">
        <ele>1380.11</ele>
        <time>2018-12-13T15:04:39Z</time>
      </trkpt>
      <trkpt lat="45.89907" lon="6.43649">
        <ele>1378.19</ele>
        <time>2018-12-13T15:04:40Z</time>
      </trkpt>
      <trkpt lat="45.8991" lon="6.43645">
        <ele>1376.26</ele>
        <time>2018-12-13T15:04:41Z</time>
      </trkpt>
      <trkpt lat="45.89915" lon="6.43636">
        <ele>1372.9</ele>
        <time>2018-12-13T15:04:43Z</time>
      </trkpt>
      <trkpt lat="45.89921" lon="6.43632">
        <ele>1370.02</ele>
        <time>2018-12-13T15:04:45Z</time>
      </trkpt>
      <trkpt lat="45.89922" lon="6.43627">
        <ele>1368.57</ele>
        <time>2018-12-13T15:04:46Z</time>
      </trkpt>
      <trkpt lat="45.89925" lon="6.43623">
        <ele>1367.13</ele>
        <time>2018-12-13T15:04:47Z</time>
      </trkpt>
      <trkpt lat="45.89928" lon="6.43618">
        <ele>1366.17</ele>
        <time>2018-12-13T15:04:48Z</time>
      </trkpt>
      <trkpt lat="45.89931" lon="6.43614">
        <ele>1363.77</ele>
        <time>2018-12-13T15:04:49Z</time>
      </trkpt>
      <trkpt lat="45.89933" lon="6.43609">
        <ele>1362.33</ele>
        <time>2018-12-13T15:04:50Z</time>
      </trkpt>
      <trkpt lat="45.89936" lon="6.43604">
        <ele>1360.88</ele>
        <time>2018-12-13T15:04:51Z</time>
      </trkpt>
      <trkpt lat="45.89938" lon="6.43601">
        <ele>1358.96</ele>
        <time>2018-12-13T15:04:52Z</time>
      </trkpt>
      <trkpt lat="45.8994" lon="6.436">
        <ele>1357.52</ele>
        <time>2018-12-13T15:04:53Z</time>
      </trkpt>
      <trkpt lat="45.89942" lon="6.43599">
        <ele>1356.56</ele>
        <time>2018-12-13T15:04:54Z</time>
      </trkpt>
      <trkpt lat="45.89943" lon="6.43595">
        <ele>1355.12</ele>
        <time>2018-12-13T15:04:55Z</time>
      </trkpt>
      <trkpt lat="45.89945" lon="6.4359">
        <ele>1353.67</ele>
        <time>2018-12-13T15:04:56Z</time>
      </trkpt>
      <trkpt lat="45.89947" lon="6.43587">
        <ele>1352.23</ele>
        <time>2018-12-13T15:04:57Z</time>
      </trkpt>
      <trkpt lat="45.89949" lon="6.43585">
        <ele>1351.27</ele>
        <time>2018-12-13T15:04:58Z</time>
      </trkpt>
      <trkpt lat="45.8995" lon="6.43581">
        <ele>1349.83</ele>
        <time>2018-12-13T15:04:59Z</time>
      </trkpt>
      <trkpt lat="45.89953" lon="6.43578">
        <ele>1347.91</ele>
        <time>2018-12-13T15:05:00Z</time>
      </trkpt>
      <trkpt lat="45.89956" lon="6.43577">
        <ele>1346.94</ele>
        <time>2018-12-13T15:05:01Z</time>
      </trkpt>
      <trkpt lat="45.89957" lon="6.43574">
        <ele>1345.98</ele>
        <time>2018-12-13T15:05:02Z</time>
      </trkpt>
      <trkpt lat="45.89958" lon="6.43569">
        <ele>1344.54</ele>
        <time>2018-12-13T15:05:03Z</time>
      </trkpt>
      <trkpt lat="45.8996" lon="6.43565">
        <ele>1343.1</ele>
        <time>2018-12-13T15:05:04Z</time>
      </trkpt>
      <trkpt lat="45.89963" lon="6.43563">
        <ele>1341.18</ele>
        <time>2018-12-13T15:05:05Z</time>
      </trkpt>
      <trkpt lat="45.89965" lon="6.43561">
        <ele>1340.22</ele>
        <time>2018-12-13T15:05:06Z</time>
      </trkpt>
      <trkpt lat="45.89966" lon="6.43558">
        <ele>1339.73</ele>
        <time>2018-12-13T15:05:07Z</time>
      </trkpt>
      <trkpt lat="45.89968" lon="6.43555">
        <ele>1338.77</ele>
        <time>2018-12-13T15:05:08Z</time>
      </trkpt>
      <trkpt lat="45.89969" lon="6.43553">
        <ele>1337.81</ele>
        <time>2018-12-13T15:05:09Z</time>
      </trkpt>
      <trkpt lat="45.89971" lon="6.43551">
        <ele>1337.33</ele>
        <time>2018-12-13T15:05:10Z</time>
      </trkpt>
      <trkpt lat="45.89973" lon="6.43547">
        <ele>1336.37</ele>
        <time>2018-12-13T15:05:11Z</time>
      </trkpt>
      <trkpt lat="45.89976" lon="6.43543">
        <ele>1334.93</ele>
        <time>2018-12-13T15:05:12Z</time>
      </trkpt>
      <trkpt lat="45.89979" lon="6.43539">
        <ele>1333.01</ele>
        <time>2018-12-13T15:05:13Z</time>
      </trkpt>
      <trkpt lat="45.89981" lon="6.43535">
        <ele>1331.56</ele>
        <time>2018-12-13T15:05:14Z</time>
      </trkpt>
      <trkpt lat="45.89983" lon="6.43532">
        <ele>1329.64</ele>
        <time>2018-12-13T15:05:15Z</time>
      </trkpt>
      <trkpt lat="45.89986" lon="6.43528">
        <ele>1328.2</ele>
        <time>2018-12-13T15:05:16Z</time>
      </trkpt>
      <trkpt lat="45.89988" lon="6.43524">
        <ele>1326.28</ele>
        <time>2018-12-13T15:05:17Z</time>
      </trkpt>
      <trkpt lat="45.8999" lon="6.43519">
        <ele>1324.83</ele>
        <time>2018-12-13T15:05:18Z</time>
      </trkpt>
      <trkpt lat="45.89991" lon="6.43514">
        <ele>1323.87</ele>
        <time>2018-12-13T15:05:19Z</time>
      </trkpt>
      <trkpt lat="45.89993" lon="6.43509">
        <ele>1322.43</ele>
        <time>2018-12-13T15:05:20Z</time>
      </trkpt>
      <trkpt lat="45.89995" lon="6.43506">
        <ele>1320.99</ele>
        <time>2018-12-13T15:05:21Z</time>
      </trkpt>
      <trkpt lat="45.89997" lon="6.43504">
        <ele>1320.51</ele>
        <time>2018-12-13T15:05:22Z</time>
      </trkpt>
      <trkpt lat="45.89999" lon="6.435">
        <ele>1319.55</ele>
        <time>2018-12-13T15:05:23Z</time>
      </trkpt>
      <trkpt lat="45.89998" lon="6.43494">
        <ele>1318.1</ele>
        <time>2018-12-13T15:05:24Z</time>
      </trkpt>
      <trkpt lat="45.9" lon="6.43488">
        <ele>1317.14</ele>
        <time>2018-12-13T15:05:25Z</time>
      </trkpt>
      <trkpt lat="45.90002" lon="6.43485">
        <ele>1314.74</ele>
        <time>2018-12-13T15:05:26Z</time>
      </trkpt>
      <trkpt lat="45.90005" lon="6.43483">
        <ele>1313.3</ele>
        <time>2018-12-13T15:05:27Z</time>
      </trkpt>
      <trkpt lat="45.90008" lon="6.4348">
        <ele>1312.34</ele>
        <time>2018-12-13T15:05:28Z</time>
      </trkpt>
      <trkpt lat="45.9001" lon="6.43475">
        <ele>1311.38</ele>
        <time>2018-12-13T15:05:29Z</time>
      </trkpt>
      <trkpt lat="45.90013" lon="6.43472">
        <ele>1309.45</ele>
        <time>2018-12-13T15:05:30Z</time>
      </trkpt>
      <trkpt lat="45.90015" lon="6.43467">
        <ele>1308.97</ele>
        <time>2018-12-13T15:05:31Z</time>
      </trkpt>
      <trkpt lat="45.90017" lon="6.43462">
        <ele>1307.05</ele>
        <time>2018-12-13T15:05:32Z</time>
      </trkpt>
      <trkpt lat="45.90019" lon="6.43459">
        <ele>1306.57</ele>
        <time>2018-12-13T15:05:33Z</time>
      </trkpt>
      <trkpt lat="45.90021" lon="6.43456">
        <ele>1306.09</ele>
        <time>2018-12-13T15:05:34Z</time>
      </trkpt>
      <trkpt lat="45.90023" lon="6.43451">
        <ele>1305.13</ele>
        <time>2018-12-13T15:05:35Z</time>
      </trkpt>
      <trkpt lat="45.90025" lon="6.43446">
        <ele>1303.2</ele>
        <time>2018-12-13T15:05:36Z</time>
      </trkpt>
      <trkpt lat="45.90028" lon="6.43441">
        <ele>1302.24</ele>
        <time>2018-12-13T15:05:37Z</time>
      </trkpt>
      <trkpt lat="45.90031" lon="6.43437">
        <ele>1300.8</ele>
        <time>2018-12-13T15:05:38Z</time>
      </trkpt>
      <trkpt lat="45.90034" lon="6.43432">
        <ele>1298.88</ele>
        <time>2018-12-13T15:05:39Z</time>
      </trkpt>
      <trkpt lat="45.90036" lon="6.43428">
        <ele>1297.92</ele>
        <time>2018-12-13T15:05:40Z</time>
      </trkpt>
      <trkpt lat="45.90039" lon="6.43423">
        <ele>1295.99</ele>
        <time>2018-12-13T15:05:41Z</time>
      </trkpt>
      <trkpt lat="45.90041" lon="6.4342">
        <ele>1295.03</ele>
        <time>2018-12-13T15:05:42Z</time>
      </trkpt>
      <trkpt lat="45.90043" lon="6.43416">
        <ele>1293.59</ele>
        <time>2018-12-13T15:05:43Z</time>
      </trkpt>
      <trkpt lat="45.90045" lon="6.43412">
        <ele>1292.63</ele>
        <time>2018-12-13T15:05:44Z</time>
      </trkpt>
      <trkpt lat="45.90047" lon="6.43409">
        <ele>1290.71</ele>
        <time>2018-12-13T15:05:45Z</time>
      </trkpt>
      <trkpt lat="45.90048" lon="6.43405">
        <ele>1289.75</ele>
        <time>2018-12-13T15:05:46Z</time>
      </trkpt>
      <trkpt lat="45.9005" lon="6.434">
        <ele>1288.78</ele>
        <time>2018-12-13T15:05:47Z</time>
      </trkpt>
      <trkpt lat="45.90053" lon="6.43396">
        <ele>1287.34</ele>
        <time>2018-12-13T15:05:48Z</time>
      </trkpt>
      <trkpt lat="45.90055" lon="6.43391">
        <ele>1285.9</ele>
        <time>2018-12-13T15:05:49Z</time>
      </trkpt>
      <trkpt lat="45.90058" lon="6.43386">
        <ele>1283.98</ele>
        <time>2018-12-13T15:05:50Z</time>
      </trkpt>
      <trkpt lat="45.90061" lon="6.43381">
        <ele>1283.02</ele>
        <time>2018-12-13T15:05:51Z</time>
      </trkpt>
      <trkpt lat="45.90064" lon="6.43376">
        <ele>1281.57</ele>
        <time>2018-12-13T15:05:52Z</time>
      </trkpt>
      <trkpt lat="45.90068" lon="6.43373">
        <ele>1280.61</ele>
        <time>2018-12-13T15:05:53Z</time>
      </trkpt>
      <trkpt lat="45.9007" lon="6.43368">
        <ele>1279.17</ele>
        <time>2018-12-13T15:05:54Z</time>
      </trkpt>
      <trkpt lat="45.90072" lon="6.43363">
        <ele>1278.21</ele>
        <time>2018-12-13T15:05:55Z</time>
      </trkpt>
      <trkpt lat="45.90076" lon="6.43361">
        <ele>1275.81</ele>
        <time>2018-12-13T15:05:56Z</time>
      </trkpt>
      <trkpt lat="45.90078" lon="6.43358">
        <ele>1274.36</ele>
        <time>2018-12-13T15:05:57Z</time>
      </trkpt>
      <trkpt lat="45.9008" lon="6.43353">
        <ele>1273.4</ele>
        <time>2018-12-13T15:05:58Z</time>
      </trkpt>
      <trkpt lat="45.90084" lon="6.43347">
        <ele>1271.48</ele>
        <time>2018-12-13T15:05:59Z</time>
      </trkpt>
      <trkpt lat="45.90088" lon="6.43344">
        <ele>1268.6</ele>
        <time>2018-12-13T15:06:00Z</time>
      </trkpt>
      <trkpt lat="45.90092" lon="6.43341">
        <ele>1267.16</ele>
        <time>2018-12-13T15:06:01Z</time>
      </trkpt>
      <trkpt lat="45.90092" lon="6.43335">
        <ele>1266.19</ele>
        <time>2018-12-13T15:06:02Z</time>
      </trkpt>
      <trkpt lat="45.90091" lon="6.4333">
        <ele>1265.23</ele>
        <time>2018-12-13T15:06:03Z</time>
      </trkpt>
      <trkpt lat="45.90089" lon="6.43326">
        <ele>1264.27</ele>
        <time>2018-12-13T15:06:04Z</time>
      </trkpt>
      <trkpt lat="45.90079" lon="6.43301">
        <ele>1260.43</ele>
        <time>2018-12-13T15:06:09Z</time>
      </trkpt>
      <trkpt lat="45.90082" lon="6.43296">
        <ele>1259.46</ele>
        <time>2018-12-13T15:06:10Z</time>
      </trkpt>
      <trkpt lat="45.90087" lon="6.43285">
        <ele>1256.58</ele>
        <time>2018-12-13T15:06:12Z</time>
      </trkpt>
      <trkpt lat="45.90088" lon="6.43279">
        <ele>1255.62</ele>
        <time>2018-12-13T15:06:13Z</time>
      </trkpt>
      <trkpt lat="45.9009" lon="6.43273">
        <ele>1254.66</ele>
        <time>2018-12-13T15:06:14Z</time>
      </trkpt>
      <trkpt lat="45.90092" lon="6.43267">
        <ele>1252.74</ele>
        <time>2018-12-13T15:06:15Z</time>
      </trkpt>
      <trkpt lat="45.90093" lon="6.43261">
        <ele>1251.77</ele>
        <time>2018-12-13T15:06:16Z</time>
      </trkpt>
      <trkpt lat="45.90094" lon="6.43254">
        <ele>1250.33</ele>
        <time>2018-12-13T15:06:17Z</time>
      </trkpt>
      <trkpt lat="45.90098" lon="6.4325">
        <ele>1248.41</ele>
        <time>2018-12-13T15:06:18Z</time>
      </trkpt>
      <trkpt lat="45.90101" lon="6.43245">
        <ele>1247.45</ele>
        <time>2018-12-13T15:06:19Z</time>
      </trkpt>
      <trkpt lat="45.90103" lon="6.43238">
        <ele>1246.01</ele>
        <time>2018-12-13T15:06:20Z</time>
      </trkpt>
      <trkpt lat="45.90105" lon="6.43232">
        <ele>1243.6</ele>
        <time>2018-12-13T15:06:21Z</time>
      </trkpt>
      <trkpt lat="45.90109" lon="6.43228">
        <ele>1241.68</ele>
        <time>2018-12-13T15:06:22Z</time>
      </trkpt>
      <trkpt lat="45.90114" lon="6.43223">
        <ele>1240.72</ele>
        <time>2018-12-13T15:06:23Z</time>
      </trkpt>
      <trkpt lat="45.90117" lon="6.43217">
        <ele>1238.8</ele>
        <time>2018-12-13T15:06:24Z</time>
      </trkpt>
      <trkpt lat="45.90123" lon="6.43207">
        <ele>1235.43</ele>
        <time>2018-12-13T15:06:26Z</time>
      </trkpt>
      <trkpt lat="45.90126" lon="6.43201">
        <ele>1233.99</ele>
        <time>2018-12-13T15:06:27Z</time>
      </trkpt>
      <trkpt lat="45.90128" lon="6.43195">
        <ele>1232.07</ele>
        <time>2018-12-13T15:06:28Z</time>
      </trkpt>
      <trkpt lat="45.90131" lon="6.43191">
        <ele>1230.62</ele>
        <time>2018-12-13T15:06:29Z</time>
      </trkpt>
      <trkpt lat="45.90133" lon="6.43187">
        <ele>1229.18</ele>
        <time>2018-12-13T15:06:30Z</time>
      </trkpt>
      <trkpt lat="45.90135" lon="6.43181">
        <ele>1228.22</ele>
        <time>2018-12-13T15:06:31Z</time>
      </trkpt>
      <trkpt lat="45.90136" lon="6.43176">
        <ele>1226.3</ele>
        <time>2018-12-13T15:06:32Z</time>
      </trkpt>
      <trkpt lat="45.90139" lon="6.43172">
        <ele>1225.82</ele>
        <time>2018-12-13T15:06:33Z</time>
      </trkpt>
      <trkpt lat="45.9014" lon="6.43168">
        <ele>1224.38</ele>
        <time>2018-12-13T15:06:34Z</time>
      </trkpt>
      <trkpt lat="45.9014" lon="6.43164">
        <ele>1223.42</ele>
        <time>2018-12-13T15:06:35Z</time>
      </trkpt>
      <trkpt lat="45.90142" lon="6.43161">
        <ele>1222.45</ele>
        <time>2018-12-13T15:06:36Z</time>
      </trkpt>
      <trkpt lat="45.90143" lon="6.43157">
        <ele>1221.49</ele>
        <time>2018-12-13T15:06:37Z</time>
      </trkpt>
      <trkpt lat="45.90144" lon="6.43153">
        <ele>1221.01</ele>
        <time>2018-12-13T15:06:38Z</time>
      </trkpt>
      <trkpt lat="45.90146" lon="6.43149">
        <ele>1220.05</ele>
        <time>2018-12-13T15:06:39Z</time>
      </trkpt>
      <trkpt lat="45.90147" lon="6.43146">
        <ele>1219.09</ele>
        <time>2018-12-13T15:06:40Z</time>
      </trkpt>
      <trkpt lat="45.90148" lon="6.43142">
        <ele>1218.13</ele>
        <time>2018-12-13T15:06:41Z</time>
      </trkpt>
      <trkpt lat="45.9015" lon="6.43139">
        <ele>1217.17</ele>
        <time>2018-12-13T15:06:42Z</time>
      </trkpt>
      <trkpt lat="45.90151" lon="6.43136">
        <ele>1216.69</ele>
        <time>2018-12-13T15:06:43Z</time>
      </trkpt>
      <trkpt lat="45.90151" lon="6.43133">
        <ele>1216.21</ele>
        <time>2018-12-13T15:06:44Z</time>
      </trkpt>
      <trkpt lat="45.90151" lon="6.43129">
        <ele>1215.72</ele>
        <time>2018-12-13T15:06:45Z</time>
      </trkpt>
      <trkpt lat="45.90153" lon="6.43124">
        <ele>1214.76</ele>
        <time>2018-12-13T15:06:46Z</time>
      </trkpt>
      <trkpt lat="45.90154" lon="6.4312">
        <ele>1213.8</ele>
        <time>2018-12-13T15:06:47Z</time>
      </trkpt>
      <trkpt lat="45.90156" lon="6.43117">
        <ele>1213.32</ele>
        <time>2018-12-13T15:06:48Z</time>
      </trkpt>
      <trkpt lat="45.90158" lon="6.43108">
        <ele>1212.36</ele>
        <time>2018-12-13T15:06:50Z</time>
      </trkpt>
      <trkpt lat="45.90162" lon="6.43104">
        <ele>1211.4</ele>
        <time>2018-12-13T15:06:51Z</time>
      </trkpt>
      <trkpt lat="45.90164" lon="6.43097">
        <ele>1210.44</ele>
        <time>2018-12-13T15:06:52Z</time>
      </trkpt>
      <trkpt lat="45.90169" lon="6.43084">
        <ele>1205.63</ele>
        <time>2018-12-13T15:06:54Z</time>
      </trkpt>
      <trkpt lat="45.90172" lon="6.43078">
        <ele>1204.19</ele>
        <time>2018-12-13T15:06:55Z</time>
      </trkpt>
      <trkpt lat="45.90172" lon="6.43069">
        <ele>1202.75</ele>
        <time>2018-12-13T15:06:56Z</time>
      </trkpt>
      <trkpt lat="45.90173" lon="6.4306">
        <ele>1200.34</ele>
        <time>2018-12-13T15:06:57Z</time>
      </trkpt>
      <trkpt lat="45.90177" lon="6.43052">
        <ele>1197.94</ele>
        <time>2018-12-13T15:06:58Z</time>
      </trkpt>
      <trkpt lat="45.90182" lon="6.43045">
        <ele>1196.02</ele>
        <time>2018-12-13T15:06:59Z</time>
      </trkpt>
      <trkpt lat="45.90186" lon="6.43036">
        <ele>1193.61</ele>
        <time>2018-12-13T15:07:00Z</time>
      </trkpt>
      <trkpt lat="45.90191" lon="6.43027">
        <ele>1190.73</ele>
        <time>2018-12-13T15:07:01Z</time>
      </trkpt>
      <trkpt lat="45.90196" lon="6.4302">
        <ele>1189.29</ele>
        <time>2018-12-13T15:07:02Z</time>
      </trkpt>
      <trkpt lat="45.90199" lon="6.43011">
        <ele>1187.85</ele>
        <time>2018-12-13T15:07:03Z</time>
      </trkpt>
      <trkpt lat="45.90203" lon="6.43003">
        <ele>1184.96</ele>
        <time>2018-12-13T15:07:04Z</time>
      </trkpt>
      <trkpt lat="45.90208" lon="6.42996">
        <ele>1182.56</ele>
        <time>2018-12-13T15:07:05Z</time>
      </trkpt>
      <trkpt lat="45.90214" lon="6.42991">
        <ele>1181.12</ele>
        <time>2018-12-13T15:07:06Z</time>
      </trkpt>
      <trkpt lat="45.90217" lon="6.42982">
        <ele>1180.16</ele>
        <time>2018-12-13T15:07:07Z</time>
      </trkpt>
      <trkpt lat="45.90219" lon="6.42974">
        <ele>1179.19</ele>
        <time>2018-12-13T15:07:08Z</time>
      </trkpt>
      <trkpt lat="45.90223" lon="6.42966">
        <ele>1176.79</ele>
        <time>2018-12-13T15:07:09Z</time>
      </trkpt>
      <trkpt lat="45.90231" lon="6.42952">
        <ele>1173.91</ele>
        <time>2018-12-13T15:07:11Z</time>
      </trkpt>
      <trkpt lat="45.90233" lon="6.42942">
        <ele>1171.98</ele>
        <time>2018-12-13T15:07:12Z</time>
      </trkpt>
      <trkpt lat="45.90236" lon="6.42934">
        <ele>1169.58</ele>
        <time>2018-12-13T15:07:13Z</time>
      </trkpt>
      <trkpt lat="45.9024" lon="6.42927">
        <ele>1168.62</ele>
        <time>2018-12-13T15:07:14Z</time>
      </trkpt>
      <trkpt lat="45.90242" lon="6.42919">
        <ele>1167.66</ele>
        <time>2018-12-13T15:07:15Z</time>
      </trkpt>
      <trkpt lat="45.90244" lon="6.42911">
        <ele>1165.26</ele>
        <time>2018-12-13T15:07:16Z</time>
      </trkpt>
      <trkpt lat="45.90247" lon="6.42904">
        <ele>1163.33</ele>
        <time>2018-12-13T15:07:17Z</time>
      </trkpt>
      <trkpt lat="45.9025" lon="6.42897">
        <ele>1162.37</ele>
        <time>2018-12-13T15:07:18Z</time>
      </trkpt>
      <trkpt lat="45.90252" lon="6.42889">
        <ele>1160.93</ele>
        <time>2018-12-13T15:07:19Z</time>
      </trkpt>
      <trkpt lat="45.90255" lon="6.42882">
        <ele>1159.49</ele>
        <time>2018-12-13T15:07:20Z</time>
      </trkpt>
      <trkpt lat="45.90258" lon="6.42875">
        <ele>1157.56</ele>
        <time>2018-12-13T15:07:21Z</time>
      </trkpt>
      <trkpt lat="45.9026" lon="6.42868">
        <ele>1156.12</ele>
        <time>2018-12-13T15:07:22Z</time>
      </trkpt>
      <trkpt lat="45.90262" lon="6.42861">
        <ele>1154.68</ele>
        <time>2018-12-13T15:07:23Z</time>
      </trkpt>
      <trkpt lat="45.90266" lon="6.42848">
        <ele>1151.8</ele>
        <time>2018-12-13T15:07:25Z</time>
      </trkpt>
      <trkpt lat="45.90269" lon="6.4284">
        <ele>1150.35</ele>
        <time>2018-12-13T15:07:26Z</time>
      </trkpt>
      <trkpt lat="45.90271" lon="6.42833">
        <ele>1148.91</ele>
        <time>2018-12-13T15:07:27Z</time>
      </trkpt>
      <trkpt lat="45.90273" lon="6.4282">
        <ele>1146.51</ele>
        <time>2018-12-13T15:07:29Z</time>
      </trkpt>
      <trkpt lat="45.90273" lon="6.428">
        <ele>1143.14</ele>
        <time>2018-12-13T15:07:32Z</time>
      </trkpt>
      <trkpt lat="45.90274" lon="6.42795">
        <ele>1142.18</ele>
        <time>2018-12-13T15:07:33Z</time>
      </trkpt>
      <trkpt lat="45.90276" lon="6.42791">
        <ele>1140.74</ele>
        <time>2018-12-13T15:07:34Z</time>
      </trkpt>
      <trkpt lat="45.90278" lon="6.42788">
        <ele>1139.78</ele>
        <time>2018-12-13T15:07:35Z</time>
      </trkpt>
      <trkpt lat="45.90281" lon="6.42788">
        <ele>1139.3</ele>
        <time>2018-12-13T15:07:36Z</time>
      </trkpt>
      <trkpt lat="45.90285" lon="6.42789">
        <ele>1138.34</ele>
        <time>2018-12-13T15:07:37Z</time>
      </trkpt>
      <trkpt lat="45.90288" lon="6.42787">
        <ele>1137.86</ele>
        <time>2018-12-13T15:07:38Z</time>
      </trkpt>
      <trkpt lat="45.9029" lon="6.42782">
        <ele>1136.9</ele>
        <time>2018-12-13T15:07:39Z</time>
      </trkpt>
      <trkpt lat="45.9029" lon="6.42776">
        <ele>1135.94</ele>
        <time>2018-12-13T15:07:40Z</time>
      </trkpt>
      <trkpt lat="45.90288" lon="6.42769">
        <ele>1134.97</ele>
        <time>2018-12-13T15:07:41Z</time>
      </trkpt>
      <trkpt lat="45.90287" lon="6.42763">
        <ele>1134.01</ele>
        <time>2018-12-13T15:07:42Z</time>
      </trkpt>
      <trkpt lat="45.90287" lon="6.42756">
        <ele>1133.05</ele>
        <time>2018-12-13T15:07:43Z</time>
      </trkpt>
      <trkpt lat="45.90286" lon="6.4275">
        <ele>1132.57</ele>
        <time>2018-12-13T15:07:44Z</time>
      </trkpt>
      <trkpt lat="45.90285" lon="6.42743">
        <ele>1132.09</ele>
        <time>2018-12-13T15:07:45Z</time>
      </trkpt>
      <trkpt lat="45.90283" lon="6.42736">
        <ele>1131.13</ele>
        <time>2018-12-13T15:07:46Z</time>
      </trkpt>
      <trkpt lat="45.90282" lon="6.4273">
        <ele>1130.17</ele>
        <time>2018-12-13T15:07:47Z</time>
      </trkpt>
      <trkpt lat="45.90281" lon="6.42725">
        <ele>1129.69</ele>
        <time>2018-12-13T15:07:48Z</time>
      </trkpt>
      <trkpt lat="45.90279" lon="6.42722">
        <ele>1129.21</ele>
        <time>2018-12-13T15:07:49Z</time>
      </trkpt>
      <trkpt lat="45.9028" lon="6.42719">
        <ele>1128.73</ele>
        <time>2018-12-13T15:07:50Z</time>
      </trkpt>
      <trkpt lat="45.9028" lon="6.42715">
        <ele>1128.24</ele>
        <time>2018-12-13T15:07:51Z</time>
      </trkpt>
      <trkpt lat="45.90279" lon="6.42711">
        <ele>1127.76</ele>
        <time>2018-12-13T15:07:52Z</time>
      </trkpt>
      <trkpt lat="45.90277" lon="6.42709">
        <ele>1126.8</ele>
        <time>2018-12-13T15:07:53Z</time>
      </trkpt>
      <trkpt lat="45.90275" lon="6.42707">
        <ele>1126.8</ele>
        <time>2018-12-13T15:07:54Z</time>
      </trkpt>
      <trkpt lat="45.9027" lon="6.427">
        <ele>1125.84</ele>
        <time>2018-12-13T15:07:56Z</time>
      </trkpt>
      <trkpt lat="45.90269" lon="6.42695">
        <ele>1125.36</ele>
        <time>2018-12-13T15:07:57Z</time>
      </trkpt>
      <trkpt lat="45.90271" lon="6.42691">
        <ele>1124.4</ele>
        <time>2018-12-13T15:07:58Z</time>
      </trkpt>
      <trkpt lat="45.9027" lon="6.42687">
        <ele>1123.44</ele>
        <time>2018-12-13T15:07:59Z</time>
      </trkpt>
      <trkpt lat="45.90268" lon="6.42683">
        <ele>1122.96</ele>
        <time>2018-12-13T15:08:00Z</time>
      </trkpt>
      <trkpt lat="45.90267" lon="6.42679">
        <ele>1122</ele>
        <time>2018-12-13T15:08:01Z</time>
      </trkpt>
      <trkpt lat="45.90268" lon="6.42675">
        <ele>1121.03</ele>
        <time>2018-12-13T15:08:02Z</time>
      </trkpt>
      <trkpt lat="45.90269" lon="6.42671">
        <ele>1120.07</ele>
        <time>2018-12-13T15:08:03Z</time>
      </trkpt>
      <trkpt lat="45.90267" lon="6.42667">
        <ele>1118.63</ele>
        <time>2018-12-13T15:08:04Z</time>
      </trkpt>
      <trkpt lat="45.90264" lon="6.42662">
        <ele>1117.67</ele>
        <time>2018-12-13T15:08:05Z</time>
      </trkpt>
      <trkpt lat="45.90262" lon="6.42656">
        <ele>1116.71</ele>
        <time>2018-12-13T15:08:06Z</time>
      </trkpt>
      <trkpt lat="45.90261" lon="6.42651">
        <ele>1115.75</ele>
        <time>2018-12-13T15:08:07Z</time>
      </trkpt>
      <trkpt lat="45.90262" lon="6.42647">
        <ele>1115.27</ele>
        <time>2018-12-13T15:08:08Z</time>
      </trkpt>
      <trkpt lat="45.90263" lon="6.42643">
        <ele>1114.79</ele>
        <time>2018-12-13T15:08:09Z</time>
      </trkpt>
      <trkpt lat="45.90265" lon="6.42639">
        <ele>1113.34</ele>
        <time>2018-12-13T15:08:10Z</time>
      </trkpt>
      <trkpt lat="45.90267" lon="6.42637">
        <ele>1112.38</ele>
        <time>2018-12-13T15:08:11Z</time>
      </trkpt>
      <trkpt lat="45.9027" lon="6.42634">
        <ele>1111.42</ele>
        <time>2018-12-13T15:08:12Z</time>
      </trkpt>
      <trkpt lat="45.90273" lon="6.42631">
        <ele>1109.98</ele>
        <time>2018-12-13T15:08:13Z</time>
      </trkpt>
      <trkpt lat="45.90277" lon="6.42629">
        <ele>1109.5</ele>
        <time>2018-12-13T15:08:14Z</time>
      </trkpt>
      <trkpt lat="45.90279" lon="6.42627">
        <ele>1108.54</ele>
        <time>2018-12-13T15:08:15Z</time>
      </trkpt>
      <trkpt lat="45.90281" lon="6.42627">
        <ele>1108.06</ele>
        <time>2018-12-13T15:08:16Z</time>
      </trkpt>
      <trkpt lat="45.90283" lon="6.42627">
        <ele>1107.58</ele>
        <time>2018-12-13T15:08:17Z</time>
      </trkpt>
      <trkpt lat="45.90284" lon="6.42627">
        <ele>1107.58</ele>
        <time>2018-12-13T15:08:18Z</time>
      </trkpt>
      <trkpt lat="45.90286" lon="6.42626">
        <ele>1107.1</ele>
        <time>2018-12-13T15:08:19Z</time>
      </trkpt>
      <trkpt lat="45.90287" lon="6.42626">
        <ele>1107.1</ele>
        <time>2018-12-13T15:08:20Z</time>
      </trkpt>
      <trkpt lat="45.90305" lon="6.42642">
        <ele>1104.69</ele>
        <time>2018-12-13T15:08:32Z</time>
      </trkpt>
      <trkpt lat="45.90306" lon="6.42643">
        <ele>1104.69</ele>
        <time>2018-12-13T15:08:33Z</time>
      </trkpt>
      <trkpt lat="45.90307" lon="6.42644">
        <ele>1104.69</ele>
        <time>2018-12-13T15:08:34Z</time>
      </trkpt>
      <trkpt lat="45.90307" lon="6.42645">
        <ele>1104.69</ele>
        <time>2018-12-13T15:08:35Z</time>
      </trkpt>
      <trkpt lat="45.90308" lon="6.42646">
        <ele>1104.21</ele>
        <time>2018-12-13T15:08:36Z</time>
      </trkpt>
      <trkpt lat="45.90308" lon="6.42648">
        <ele>1104.21</ele>
        <time>2018-12-13T15:08:45Z</time>
      </trkpt>
    </trkseg>
  </trk>
</gpx>